[[{"header":{"parameterUnit":"m.s-1","parameterCategory":1,"la1":30.6,"la2":29.2853,"lo1":-89.7004,"lo2":-87.6739,"dy":0.0162,"dx":0.0183,"nx":112,"ny":82,"refTime":"2024-06-09T12:00:00:Z","depth":0,"parameterNumber":2,"parameterNumberName":"U-component_of_WINDS"},"data":[0.0,0.0,0.0,0.0,0.0,0.0,0.0,0.0,0.0,0.0,0.0,0.0,0.0,0.0,0.0,0.0,0.0,0.0,0.0,0.0,0.0,0.0,0.0,0.0,0.0,0.0,0.0,0.0,0.0,0.0,0.0,0.0,0.0,0.0,0.0,0.0,0.0,0.0,0.0,0.0,0.0,0.0,0.0,0.0,0.0,0.0,0.0,0.0,0.0,0.0,0.0,0.0,0.0,0.0,0.0,0.0,0.0,0.0,0.0,0.0,0.0,0.0,0.0,0.0,0.0,0.0,0.0,0.0,0.0,0.0,0.0,0.0,0.0,0.0,0.0,0.0,0.0,0.0,0.0,0.0,0.0,0.0,0.0,0.0,0.0,0.0,0.0,0.0,0.0,0.0,0.3294,0.2826,0.3396,0.4156,0.4957,0.5006,0.51,0.5368,0.0,0.0,0.0,0.0,0.0,0.0,0.0,0.0,0.0,0.0,0.0,0.0,0.0,0.0,0.0,0.0,0.0,0.0,0.0,0.0,0.0,0.0,0.0,0.0,0.0,0.0,0.0,0.0,0.0,0.0,0.0,0.0,0.0,0.0,0.0,0.0,0.0,0.0,0.0,0.0,0.0,0.0,0.0,0.0,0.0,0.0,0.0,0.0,0.0,0.0,0.0,0.0,0.0,0.0,0.0,0.0,0.0,0.0,0.0,0.0,0.0,0.0,0.0,0.0,0.0,0.0,0.0,0.0,0.0,0.0,0.0,0.0,0.0,0.0,0.0,0.0,0.0,0.0,0.0,0.0,0.0,0.0,0.0,0.0,0.0,0.0,0.0,0.0,0.0,0.0,0.0,0.0,0.0,0.0,0.0,0.0,0.0,0.0,0.0,0.0,0.0,0.0,0.0,0.0,0.2497,0.2995,0.3605,0.4154,0.4625,0.5416,0.5754,0.5419,0.0,0.0,0.0,0.0,0.0,0.0,0.0,0.0,0.0,0.0,0.0,0.0,0.0,0.0,0.0,0.0,0.0,0.0,0.0,0.0,0.0,0.0,0.0,0.0,0.0,0.0,0.0,0.0,0.0,0.0,0.0,0.0,0.0,0.0,0.0,0.0,0.0,0.0,0.0,0.0,0.0,0.0,0.0,0.0,0.0,0.0,0.0,0.0,0.0,0.0,0.0,0.0,0.0,0.0,0.0,0.0,0.0,0.0,0.0,0.0,0.0,0.0,0.0,0.0,0.0,0.0,0.0,0.0,0.0,0.0,0.0,0.0,0.0,0.0,0.0,0.0,0.0,0.0,0.0,0.0,0.0,0.0,0.0,0.0,0.0,0.0,0.0,0.0,0.0,0.0,0.0,0.0,0.0,0.0,0.0,0.0,0.0,0.0,0.0,0.0,0.0,0.0,0.0,0.2847,0.3065,0.3443,0.3992,0.4622,0.5226,0.577,0.6019,0.5863,0.514,0.0,0.0,0.0,0.0,0.0,0.0,0.0,0.0,0.0,0.0,0.0,0.0,0.0,0.0,0.0,0.0,0.0,0.0,0.0,0.0,0.0,0.0,0.0,0.0,0.0,0.0,0.0,0.0,0.0,0.0,0.0,0.0,0.0,0.0,0.0,0.0,0.0,0.0,0.0,0.0,0.0,0.0,0.0,0.0,0.0,0.0,0.0,0.0,0.0,0.0,0.0,0.0,0.0,0.0,0.0,0.0,0.0,0.0,0.0,0.0,0.0,0.0,0.0,0.0,0.0,0.0,0.0,0.0,0.0,0.0,0.0,0.0,0.0,0.0,0.0,0.0,0.0,0.0,0.0,0.0,0.0,0.0,0.0,0.0,0.0,0.0,0.0,0.0,0.0,0.0,0.0,0.0,0.0,0.0,0.0,0.0,0.0,0.0,0.0,0.0,0.0,0.0,0.3209,0.3432,0.3794,0.4292,0.4957,0.5822,0.6109,0.6205,0.6201,0.5401,0.0,0.0,0.0,0.0,0.0,0.0,0.0,0.0,0.0,0.0,0.0,0.0,0.0,0.0,0.0,0.0,0.0,0.0,0.0,0.0,0.0,0.0,0.0,0.0,0.0,0.0,0.0,0.0,0.0,0.0,0.0,0.0,0.0,0.0,0.0,0.0,0.0,0.0,0.0,0.0,0.0,0.0,0.0,0.0,0.0,0.0,0.0,0.0,0.0,0.0,0.0,0.0,0.0,0.0,0.0,0.0,0.0,0.0,0.0,0.0,0.0,0.0,0.0,0.0,0.0,0.0,0.0,0.0,0.0,0.0,0.0,0.0,0.0,0.0,0.0,0.0,0.0,0.0,0.0,0.0,0.0,0.0,0.0,0.0,0.0,0.0,0.0,0.0,0.0,0.0,0.0,0.0,0.0,0.0,0.0,0.0,0.0,0.0,0.0,0.0,0.0,0.0,0.2336,0.2831,0.3735,0.442,0.5084,0.5822,0.6237,0.6403,0.6187,0.5259,0.0,0.0,0.0,0.0,0.0,0.0,0.0,0.0,0.0,0.0,0.0,0.0,0.0,0.0,0.0,0.0,0.0,0.0,0.0,0.0,0.0,0.0,0.0,0.0,0.0,0.0,0.0,0.0,0.0,0.0,0.0,0.0,0.0,0.0,0.0,0.0,0.0,0.0,0.0,0.0,0.0,0.0,0.0,0.0,0.0,0.0,0.0,0.0,0.0,0.0,0.0,0.0,0.0,0.0,0.0,0.0,0.0,0.0,0.0,0.0,0.0,0.0,0.0,0.0,0.0,0.0,0.0,0.0,0.0,0.0,0.0,0.0,0.0,0.0,0.0,0.0,0.0,0.0,0.0,0.0,0.0,0.0,0.0,0.0,0.0,0.0,0.0,0.0,0.0,0.0,0.0,0.0,0.0,0.0,0.0,0.0,0.0,0.0,0.0,0.0,0.0,0.0,0.2715,0.3329,0.0,0.4087,0.4616,0.5355,0.5461,0.5533,0.5648,0.0,0.0,0.0,0.0,0.0,0.0,0.0,0.0,0.0,0.0,0.0,0.0,0.0,0.0,0.0,0.0,0.0,0.0,0.0,0.0,0.0,0.0,0.0,0.0,0.0,0.0,0.0,0.0,0.0,0.0,0.0,0.0,0.0,0.0,0.0,0.0,0.0,0.0,0.0,0.0,0.0,0.0,0.0,0.0,0.0,0.0,0.0,0.0,0.0,0.0,0.0,0.0,0.0,0.0,0.0,0.0,0.0,0.0,0.0,0.0,0.0,0.0,0.0,0.0,0.0,0.0,0.0,0.0,0.0,0.0,0.0,0.0,0.0,0.0,0.0,0.0,0.0,0.0,0.0,0.0,0.0,0.0,0.0,0.0,0.0,0.0,0.0,0.0,0.0,0.0,0.0,0.0,0.0,0.0,0.0,0.0,0.0,0.0,0.0,0.0,0.0,0.0,0.2175,0.2788,0.3322,0.0,0.3954,0.442,0.502,0.5158,0.5173,0.5179,0.0,0.0,0.0,0.0,0.0,0.0,0.0,0.0,0.0,0.0,0.0,0.0,0.0,0.0,0.0,0.0,0.0,0.0,0.0,0.0,0.0,0.0,0.0,0.0,0.0,0.0,0.0,0.0,0.0,0.0,0.0,0.0,0.0,0.0,0.0,0.0,0.0,0.0,0.0,0.0,0.0,0.0,0.0,0.0,0.0,0.0,0.0,0.0,0.0,0.0,0.0,0.0,0.0,0.0,0.0,0.0,0.0,0.0,0.0,0.0,0.0,0.0,0.0,0.0,0.0,0.0,0.0,0.0,0.0,0.0,0.0,0.0,0.0,0.0,0.0,0.0,0.0,0.0,0.0,0.0,0.0,0.0,0.0,0.0,0.0,0.0,0.0,0.0,0.0,0.0,0.0,0.0,0.0,0.0,0.0,0.0,0.0,0.0,0.0,0.0,0.0,0.0,0.2236,0.2443,0.2713,0.3141,0.4025,0.4758,0.5087,0.5434,0.5462,0.0,0.0,0.0,0.0,0.0,0.0,0.0,0.0,0.0,0.0,0.0,0.0,0.0,0.0,0.0,0.0,0.0,0.0,0.0,0.0,0.0,0.0,0.0,0.0,0.0,0.0,0.0,0.0,0.0,0.0,0.0,0.0,0.0,0.0,0.0,0.0,0.0,0.0,0.0,0.0,0.0,0.0,0.0,0.0,0.0,0.0,0.0,0.0,0.0,0.0,0.0,0.0,0.0,0.0,0.0,0.0,0.0,0.0,0.0,0.0,0.0,0.0,0.0,0.0,0.0,0.0,0.0,0.0,0.0,0.0,0.0,0.0,0.0,0.0,0.0,0.0,0.0,0.0,0.0,0.0,0.0,0.0,0.0,0.0,0.0,0.0,0.0,0.0,0.0,0.0,0.0,0.0,0.0,0.0,0.0,0.0,0.0,0.0,0.0,0.0,0.0,0.0,0.0,0.2632,0.3177,0.359,0.3941,0.4028,0.4159,0.4498,0.4537,0.4591,0.4634,0.0,0.0,0.0,0.0,0.0,0.0,0.0,0.0,0.0,0.0,0.0,0.0,0.0,0.0,0.0,0.0,0.0,0.0,0.0,0.0,0.0,0.0,0.0,0.0,0.0,0.0,0.0,0.0,0.0,0.0,0.0,0.0,0.0,0.0,0.0,0.0,0.0,0.0,0.0,0.0,0.0,0.0,0.0,0.0,0.0,0.0,0.0,0.0,0.0,0.0,0.0,0.0,0.0,0.0,0.0,0.0,0.0,0.0,0.0,0.0,0.0,0.0,0.0,0.0,0.0,0.0,0.0,0.0,0.0,0.0,0.0,0.0,0.0,0.0,0.0,0.0,0.0,0.0,0.0,0.0,0.0,0.0,0.0,0.0,0.0,0.0,0.0,0.0,0.0,0.0,0.0,0.0,0.0,0.0,0.0,0.0,0.0,0.0,0.0,0.0,0.0,0.0,0.2619,0.3349,0.3844,0.3939,0.423,0.4501,0.4707,0.4795,0.489,0.4809,0.0,0.0,0.0,0.0,0.0,0.0,0.0,0.0,0.0,0.0,0.0,0.0,0.0,0.0,0.0,0.0,0.0,0.0,0.0,0.0,0.0,0.0,0.0,0.0,0.0,0.0,0.0,0.0,0.0,0.0,0.0,0.0,0.0,0.0,0.0,0.0,0.0,0.0,0.0,0.0,0.0,0.0,0.0,0.0,0.0,0.0,0.0,0.0,0.0,0.0,0.0,0.0,0.0,0.0,0.0,0.0,0.0,0.0,0.0,0.0,0.0,0.0,0.0,0.0,0.0,0.0,0.0,0.0,0.0,0.0,0.0,0.0,0.0,0.0,0.0,0.0,0.0,0.0,0.0,0.0,0.0,0.0,0.0,0.0,0.0,0.0,0.0,0.0,0.0,0.0,0.0,0.0,0.0,0.0,0.0,0.0,0.0,0.0,0.0,0.0,0.0,0.0,0.2321,0.306,0.3565,0.3496,0.448,0.5168,0.5234,0.5755,0.5805,0.527,0.0,0.0,0.0,0.0,0.0,0.0,0.0,0.0,0.0,0.0,0.0,0.0,0.0,0.0,0.0,0.0,0.0,0.0,0.0,0.0,0.0,0.0,0.0,0.0,0.0,0.0,0.0,0.0,0.0,0.0,0.0,0.0,0.0,0.0,0.0,0.0,0.0,0.0,0.0,0.0,0.0,0.0,0.0,0.0,0.0,0.0,0.0,0.0,0.0,0.0,0.0,0.0,0.0,0.0,0.0,0.0,0.0,0.0,0.0,0.0,0.1336,0.0,0.0,0.0,0.0,0.0,0.0,0.0,0.0,0.0,0.0,0.0,0.0,0.0,0.0,0.0,0.0,0.0,0.0,0.0,0.0,0.0,0.0,0.0,0.0,0.0,0.0,0.0,0.0,0.0,0.0,0.0,0.0,0.0,0.0,0.0,0.0,0.0,0.0,0.0,0.0,0.0,0.2243,0.2817,0.34,0.3806,0.4036,0.4263,0.4607,0.5336,0.5502,0.4995,0.4923,0.0,0.0,0.0,0.0,0.0,0.0,0.0,0.0,0.0,0.0,0.0,0.0,0.0,0.0,0.0,0.0,0.0,0.0,0.0,0.0,0.0,0.0,0.0,0.0,0.0,0.0,0.0,0.0,0.0,0.0,0.0,0.0,0.0,0.0,0.0,0.0,0.0,0.0,0.0,0.0,0.0,0.0,0.0,0.0,0.0,0.0,0.0,0.0,0.0,0.0,0.0,0.0,0.0,0.0,0.0,0.0,0.0,0.0,0.0,0.0,0.1793,0.0,0.0,0.0,0.0,0.0,0.0,0.0,0.0,0.0,0.0,0.0,0.0,0.0,0.0,0.0,0.0,0.0,0.0,0.0,0.0,0.0,0.0,0.0,0.0,0.0,0.0,0.0,0.0,0.0,0.0,0.0,0.0,0.0,0.0,0.0,0.0,0.0,0.0,0.0,0.0,0.2054,0.2694,0.3291,0.3467,0.4024,0.4472,0.4629,0.5272,0.5519,0.5275,0.4899,0.0,0.0,0.0,0.0,0.0,0.0,0.0,0.0,0.0,0.0,0.0,0.0,0.0,0.0,0.0,0.0,0.0,0.0,0.0,0.0,0.0,0.0,0.0,0.0,0.0,0.0,0.0,0.0,0.0,0.0,0.0,0.0,0.0,0.0,0.0,0.0,0.0,0.0,0.0,0.0,0.0,0.0,0.0,0.0,0.0,0.0,0.0,0.0,0.0,0.0,0.0,0.0,0.0,-0.0953,-0.0793,-0.076,0.0068,0.0543,0.0758,0.1586,0.1816,0.1614,0.2338,0.0,0.0,0.0,0.0,0.0,0.0,0.0,0.0,0.0,0.0,0.0,0.0,0.0,0.0,0.0,0.0,0.0,0.0,0.0,0.0,0.0,0.0,0.0,0.0,0.6242,0.5989,0.5124,0.0,0.0,0.0,0.0,0.0,0.0,0.0,0.0,0.0,0.0,0.0,0.1911,0.2567,0.311,0.3032,0.4011,0.4628,0.4654,0.5202,0.5515,0.5459,0.4898,0.4367,0.0,0.0,0.0,0.0,0.0,0.0,0.0,0.0,0.0,0.0,0.0,0.0,0.0,0.0,0.0,0.0,0.0,0.0,0.0,0.0,0.0,0.0,0.0,0.0,0.0,0.0,0.0,0.0,0.0,0.0,0.0,0.0,-0.3166,-0.3396,0.0,0.0,0.0,0.0,0.0,0.0,0.0,0.0,0.0,0.0,0.0,0.0,0.0,-0.1852,-0.1884,-0.1736,-0.1715,-0.1835,-0.1581,-0.1452,-0.1461,-0.0536,-0.0077,0.0,0.0984,0.0,0.1909,0.1854,0.0,0.0,0.0,0.0,0.0,0.0,0.0,0.0,0.0,0.0,0.0,0.0,0.0,0.0,0.0,0.0,0.0,0.0,0.0,0.0,0.0,0.0,0.4652,0.4613,0.472,0.4759,0.0,0.449,0.4273,0.3304,0.2859,0.0,0.0,0.0,0.0,0.0,0.0,0.0,0.1972,0.2285,0.2651,0.3037,0.3219,0.3517,0.4082,0.4526,0.4757,0.49,0.4866,0.4702,0.4321,0.3776,0.0,0.0,0.0,0.0,0.0,0.0,0.0,0.0,0.0,0.0,0.0,0.0,0.0,0.0,0.0,0.0,0.0,0.0,0.0,0.0,0.0,0.0,0.0,0.0,0.0,0.0,0.0,0.0,0.0,-0.3399,-0.3896,-0.4271,-0.4113,-0.3961,0.0,0.0,0.0,0.0,0.0,0.0,0.0,0.0,0.0,-0.2926,-0.2979,-0.3024,-0.2986,-0.2984,-0.2961,-0.2994,-0.2533,-0.2326,-0.2327,-0.1514,-0.11,-0.11,-0.0593,-0.0329,0.0,0.1508,0.2239,0.2406,0.0,0.0,0.0,0.0,0.2521,0.2636,0.2555,0.2507,0.2473,0.2685,0.0,0.0,0.0,0.0,0.0,0.0,0.0,0.0,0.0,0.0,0.4558,0.4624,0.48,0.4788,0.4191,0.4115,0.3937,0.0,0.3555,0.342,0.2433,0.0,0.0,0.0,0.0,0.2303,0.2162,0.2278,0.2595,0.3054,0.3343,0.3593,0.4101,0.4212,0.4431,0.4596,0.4313,0.4187,0.4206,0.3842,0.3463,0.0,0.0,0.0,0.0,0.0,0.0,0.0,0.0,0.0,0.0,0.0,0.0,0.0,0.0,0.0,0.0,0.0,0.0,0.0,0.0,0.0,0.0,0.0,0.0,0.0,0.0,0.0,0.0,-0.4105,-0.4632,-0.5001,-0.4965,-0.4935,0.0,0.0,0.0,0.0,0.0,0.0,-0.4151,-0.4225,-0.4298,-0.4448,-0.4488,-0.4533,-0.4582,-0.458,-0.4548,-0.4409,-0.3853,-0.3556,-0.3291,-0.2528,-0.2092,-0.2092,-0.191,-0.1713,-0.15,0.0727,0.1679,0.192,0.2539,0.2908,0.3048,0.2565,0.2479,0.2564,0.2361,0.2316,0.2381,0.2679,0.2845,0.2997,0.3088,0.0,0.0,0.0,0.0,0.348,0.4089,0.4148,0.4166,0.4347,0.4509,0.4393,0.3723,0.3758,0.3746,0.0,0.3758,0.3664,0.2444,0.0,0.0,0.0,0.0,0.2521,0.2462,0.2547,0.2691,0.2899,0.3374,0.3728,0.4015,0.4063,0.4173,0.4477,0.4074,0.39,0.4164,0.396,0.3735,0.3496,0.0,0.0,0.0,0.0,0.0,0.0,0.0,0.0,0.0,0.0,0.0,0.0,0.0,0.0,0.0,0.0,0.0,0.0,0.0,0.0,0.0,0.0,0.0,0.0,0.0,0.0,0.0,0.0,0.0,-0.5732,-0.5723,0.0,0.0,0.0,0.0,-0.5535,-0.5635,-0.579,-0.6019,-0.6043,-0.611,-0.648,-0.6373,-0.6399,-0.6663,-0.6672,-0.6377,-0.566,-0.5672,-0.5209,-0.4456,-0.3507,-0.3033,-0.2938,-0.2087,-0.1707,-0.1695,-0.104,-0.0407,0.0389,0.0836,0.143,0.2034,0.2186,0.2251,0.2341,0.2509,0.2593,0.2601,0.2653,0.2994,0.3348,0.3413,0.3298,0.0,0.0,0.3514,0.2741,0.3536,0.3294,0.2782,0.2845,0.295,0.2951,0.2865,0.3464,0.375,0.0,0.2518,0.2324,0.2163,0.0,0.2869,0.2598,0.3213,0.3549,0.3058,0.3044,0.2901,0.2589,0.2904,0.3263,0.3634,0.384,0.4173,0.4477,0.4357,0.4289,0.4289,0.4167,0.3985,0.3798,0.3498,0.0,0.0,0.0,0.0,0.0,0.0,0.0,0.0,0.0,0.0,0.0,0.0,0.0,0.0,0.0,0.0,0.0,0.0,0.0,0.0,0.0,0.0,0.0,0.0,0.0,0.0,0.0,0.0,-0.693,-0.6875,0.0,-0.7017,-0.6975,-0.6726,-0.6425,-0.6557,-0.6499,-0.6284,-0.6441,-0.6576,-0.6763,-0.6725,-0.6844,-0.6941,-0.6945,-0.6783,-0.6549,-0.6634,-0.6195,-0.5432,-0.5103,-0.4638,-0.4146,-0.3849,-0.3629,-0.3581,-0.273,-0.1543,-0.0262,0.0434,0.0772,0.1018,0.1637,0.1923,0.204,0.2697,0.289,0.2887,0.2869,0.2956,0.302,0.302,0.2954,0.2984,0.3352,0.3068,0.2853,0.3221,0.3145,0.2868,0.289,0.2868,0.2842,0.2842,0.3106,0.318,0.2872,0.3074,0.3089,0.2461,0.2824,0.303,0.261,0.3293,0.3754,0.3205,0.3175,0.327,0.3299,0.3452,0.3673,0.4099,0.4098,0.4203,0.4591,0.4198,0.4064,0.4186,0.4143,0.4004,0.3815,0.3705,0.3397,0.0,0.0,0.0,0.0,0.0,0.0,0.0,0.0,0.0,0.0,0.0,0.0,0.0,0.0,0.0,0.0,0.0,0.0,0.0,0.0,0.0,0.0,0.0,0.0,0.0,0.0,-0.703,-0.7491,-0.7599,-0.7658,-0.7894,-0.7901,-0.7787,-0.7585,-0.7586,-0.7543,-0.7249,-0.7455,-0.7639,-0.7691,-0.7792,-0.7872,-0.7832,-0.7832,-0.7733,-0.7449,-0.7547,-0.7104,-0.6323,-0.6404,-0.5837,-0.4933,-0.4933,-0.4702,-0.416,-0.3268,-0.2242,-0.1141,-0.0188,0.0278,0.055,0.1116,0.1495,0.1778,0.2466,0.2666,0.2566,0.2251,0.211,0.2065,0.2423,0.24,0.2474,0.2819,0.2933,0.2951,0.3123,0.3113,0.2989,0.2989,0.2961,0.2933,0.2933,0.2933,0.2928,0.2906,0.324,0.3365,0.2697,0.2862,0.3024,0.2817,0.3498,0.3858,0.3527,0.3611,0.3824,0.3818,0.3968,0.4189,0.4387,0.4194,0.4292,0.4654,0.415,0.3911,0.4124,0.4118,0.4004,0.3815,0.3711,0.3528,0.3176,0.0,0.0,0.0,0.0,0.0,0.0,0.0,0.0,0.0,0.0,0.0,0.0,0.0,0.0,0.0,0.0,0.0,0.0,0.0,0.0,0.0,0.0,0.0,-0.6075,-0.668,-0.7323,-0.7453,-0.7766,-0.8049,-0.8218,-0.828,-0.8459,-0.8804,-0.8832,-0.8917,-0.9096,-0.9108,-0.919,-0.936,-0.9364,-0.9449,-0.9624,-0.9628,-0.9229,-0.8432,-0.8432,-0.8035,-0.7235,-0.7235,-0.6534,-0.5229,-0.5229,-0.4531,-0.323,-0.2724,-0.2422,-0.2312,-0.0969,0.0,0.0573,0.0573,0.105,0.1811,0.1811,0.1811,0.1622,0.0859,0.0573,0.0763,0.1525,0.1809,0.1999,0.2764,0.3052,0.3052,0.3053,0.3053,0.3147,0.3147,0.3146,0.3144,0.3144,0.3144,0.3126,0.2971,0.2869,0.279,0.2786,0.2737,0.2866,0.3199,0.3699,0.0,0.403,0.4453,0.4502,0.3993,0.4306,0.4506,0.4399,0.4204,0.43,0.4654,0.4153,0.3916,0.4129,0.4124,0.4009,0.3826,0.3589,0.3525,0.3588,0.0,0.0,0.0,0.0,0.0,0.0,0.0,0.0,0.0,0.0,0.0,0.0,0.0,0.0,0.0,0.0,0.0,0.0,0.0,0.0,0.0,0.0,-0.7742,-0.7552,-0.7755,-0.8052,-0.823,-0.8381,-0.8586,-0.88,-0.8906,-0.8917,-0.9015,-0.9137,-0.923,-0.9283,-0.9409,-0.9502,-0.9551,-0.9551,-0.9575,-0.9628,-0.9628,-0.9529,-0.9229,-0.9229,-0.8832,-0.8031,-0.8031,-0.7534,-0.6634,-0.6431,-0.5729,-0.463,-0.3825,-0.3123,-0.2318,-0.1598,-0.1194,-0.0895,-0.0298,0.0397,0.1092,0.1092,0.1092,0.0993,0.0794,0.0689,0.0681,0.0972,0.1347,0.1718,0.1452,0.2236,0.2929,0.2474,0.2655,0.3115,0.3115,0.308,0.3144,0.3144,0.3144,0.3139,0.3122,0.2997,0.295,0.2864,0.3099,0.3262,0.3087,0.3961,0.0,0.4132,0.4552,0.46,0.4001,0.4072,0.4119,0.4029,0.4144,0.4385,0.4664,0.4437,0.43,0.4257,0.4249,0.4178,0.402,0.384,0.3729,0.0,0.0,0.0,0.0,0.0,0.0,0.0,0.0,0.0,0.0,0.0,0.0,0.0,0.0,0.0,0.0,0.0,0.0,0.0,0.0,0.0,0.0,-0.8947,-0.9403,-0.9488,-0.8903,-0.845,-0.8705,-0.8743,-0.8897,-0.9177,-0.9206,-0.9234,-0.9315,-0.9413,-0.947,-0.947,-0.9567,-0.9628,-0.9628,-0.9628,-0.9628,-0.9628,-0.9628,-0.9628,-0.9628,-0.9628,-0.9327,-0.8931,-0.8931,-0.8329,-0.7329,-0.7126,-0.6326,-0.5129,-0.4124,-0.3324,0.0,0.0,0.0,0.0,0.0,-0.0101,0.0303,0.0303,0.0303,0.0202,-0.0101,-0.02,-0.0198,0.0099,0.0492,0.088,0.0791,0.1686,0.2587,0.2112,0.2602,0.3177,0.3177,0.3151,0.3125,0.3125,0.3125,0.3117,0.3093,0.3087,0.0,0.3331,0.338,0.3261,0.2967,0.3765,0.4368,0.4226,0.4655,0.4877,0.4688,0.4594,0.4639,0.4538,0.4472,0.0,0.0,0.0,0.4354,0.4376,0.4325,0.0,0.0,0.0,0.0,0.0,0.0,0.0,0.0,0.419,0.4324,0.0,0.0,0.0,0.0,0.0,0.0,0.0,0.0,0.0,0.0,0.0,0.0,0.0,0.0,0.0,0.0,-1.0931,-1.1302,-1.1537,-1.0119,-0.9063,-0.922,-0.9301,-0.9382,-0.9556,-0.9481,-0.9453,-0.9616,-0.9628,-0.9628,-0.9628,0.0,0.0,0.0,0.0,-0.9628,-0.9628,-0.9628,-0.9628,-0.9628,-0.9628,-0.9628,-0.9529,-0.9529,-0.8924,-0.7713,-0.7422,-0.6625,-0.5329,-0.4026,-0.3425,-0.3123,-0.2019,-0.1617,-0.1516,-0.0808,-0.0505,-0.0505,-0.0505,0.0,0.0,-0.1415,-0.1617,-0.1516,-0.0707,-0.0505,-0.0303,0.0403,0.121,0.1815,0.1815,0.2422,0.313,0.313,0.323,0.323,0.323,0.323,0.3214,0.3161,0.3052,0.3129,0.3641,0.3288,0.3042,0.2983,0.3422,0.3774,0.4121,0.4654,0.5154,0.5234,0.0,0.0,0.5317,0.4869,0.4666,0.5037,0.4523,0.428,0.4515,0.4414,0.4414,0.4529,0.4518,0.4572,0.4767,0.4814,0.4874,0.4866,0.4548,0.4637,0.0,0.0,0.0,0.0,0.0,0.0,0.0,0.0,0.0,0.0,0.0,0.0,0.0,0.0,0.0,-1.1233,-1.1388,-1.1628,-1.204,-1.187,-1.1724,-1.176,-1.1065,-1.061,-1.0803,-1.0053,-0.9592,-0.9624,-0.9628,-0.9628,-0.9628,-0.9628,-0.9628,-0.9628,-0.9628,-0.9628,-0.9628,-0.9628,-0.9628,-0.9628,0.0,0.0,-0.9236,-0.9236,-0.9027,-0.852,-0.8326,-0.7528,-0.6429,-0.5932,-0.4728,-0.3123,-0.2019,-0.1617,-0.1617,-0.1415,-0.1415,-0.1415,-0.1415,-0.1415,-0.1415,-0.1516,-0.1617,-0.1617,-0.1415,-0.0909,0.0,-0.101,-0.0101,0.1008,0.1008,0.1613,0.2422,0.3029,0.323,0.323,0.323,0.323,0.3228,0.3215,0.281,0.2593,0.2641,0.2879,0.32,0.3598,0.3954,0.4017,0.3232,0.4567,0.5186,0.4092,0.4623,0.5027,0.4925,0.4791,0.4863,0.5165,0.4945,0.4817,0.4768,0.4743,0.4787,0.4909,0.4814,0.4825,0.4947,0.5061,0.5118,0.5116,0.5048,0.505,0.0,0.0,0.0,0.0,0.0,0.0,0.0,0.0,0.0,0.0,0.0,-1.0653,0.0,0.0,-1.2273,-1.2463,-1.3067,-1.3447,-1.3579,-1.3912,-1.3738,-1.2664,-1.2099,-1.1834,-1.194,-1.0979,-1.04,-1.04,-0.992,-0.9628,-0.9628,-0.9628,-0.9628,-0.9628,-0.9628,-0.9628,-0.9628,-0.943,-0.943,-0.943,-0.9229,-0.913,-0.9031,-0.9031,-0.8928,-0.8825,-0.8531,-0.8131,-0.7531,-0.6734,-0.5131,-0.3123,-0.2622,-0.212,-0.1617,-0.1617,-0.1617,-0.1617,-0.1617,-0.1617,-0.1617,-0.1617,-0.1617,-0.1617,-0.1617,-0.1314,-0.1111,-0.1516,-0.0707,0.0202,0.0202,0.0807,0.1513,0.1916,0.2118,0.2219,0.2219,0.232,0.2422,0.2422,0.2219,0.2112,0.2291,0.2368,0.2428,0.2547,0.2817,0.2795,0.2554,0.3273,0.3893,0.3942,0.3939,0.4279,0.5207,0.5152,0.4959,0.4543,0.4978,0.5167,0.5105,0.5102,0.5132,0.5192,0.5132,0.5132,0.5192,0.5311,0.5401,0.5461,0.5518,0.5515,0.0,0.0,0.0,0.0,0.0,0.0,0.0,0.0,-1.007,-1.022,-1.107,-1.1744,-1.1952,-1.2945,-1.3709,-1.3667,-1.4585,-1.5199,-1.5006,-1.5396,-1.5063,-1.3314,-1.2997,-1.3022,-1.3022,-1.2047,-1.1463,-1.1463,-1.0498,-0.9916,-0.9916,-0.9723,-0.9545,-0.9577,-0.9577,-0.9598,-0.953,-0.9334,-0.9237,-0.9234,-0.9026,-0.8822,-0.8822,-0.8822,-0.8822,-0.8721,-0.8521,-0.8424,-0.832,-0.6983,-0.5358,-0.3542,-0.3328,-0.2521,-0.1617,-0.1617,-0.1617,-0.1617,-0.1617,-0.1617,-0.1617,-0.1617,-0.1617,-0.1617,-0.1617,-0.1617,-0.1617,-0.1617,-0.1111,-0.0606,-0.0404,0.0101,0.0605,0.0806,0.1008,0.121,0.121,0.1412,0.1613,0.1613,0.1513,0.1614,0.2018,0.1614,0.1396,0.1542,0.1534,0.1618,0.1771,0.2044,0.2672,0.361,0.3243,0.3509,0.5018,0.5202,0.4927,0.3972,0.4895,0.5396,0.5371,0.5368,0.5379,0.5404,0.5404,0.5417,0.5442,0.5561,0.567,0.5768,0.5885,0.589,-1.2522,-1.2268,-1.2087,-1.2,-1.259,-1.3089,0.0,0.0,-1.2969,-1.2215,-1.2481,-1.291,-1.294,-1.3489,-1.397,-1.4186,-1.454,-1.4835,-1.5032,-1.5337,-1.5432,-1.521,-1.4561,-1.41,-1.41,-1.3125,-1.2533,-1.2533,-1.156,-1.0979,-1.0979,-1.0113,-0.9598,-0.9552,-0.9556,-0.9426,-0.9376,-0.9276,-0.9276,-0.9276,-0.9272,-0.9168,-0.8859,-0.8859,-0.8751,-0.8536,-0.8536,-0.8536,-0.8421,-0.715,-0.5972,-0.4733,-0.3649,-0.2521,-0.1617,-0.1617,-0.1617,-0.1617,-0.1617,-0.1617,-0.1617,-0.1617,-0.1617,-0.1617,-0.1617,-0.1617,-0.1617,-0.1617,-0.1516,-0.1313,-0.0606,-0.0303,-0.0101,0.0605,0.1008,0.121,0.121,0.1412,0.1613,0.1613,0.1211,0.0909,0.101,0.0505,0.0601,0.1961,0.2151,0.1845,0.0952,0.1991,0.2539,0.1844,0.2391,0.3012,0.323,0.3931,0.4333,0.4066,0.4925,0.5483,0.5374,0.5368,0.542,0.5529,0.5529,0.5583,0.5692,0.5806,0.5871,0.5888,0.6007,0.6059,-1.3682,-1.3729,-1.378,0.0,-1.4336,-1.4633,-1.3773,-1.3783,-1.377,-1.2954,-1.3212,-1.358,-1.358,-1.3981,-1.4325,0.0,-1.462,-1.4892,-1.4885,-1.5077,-1.5267,-1.5267,-1.4981,-1.4879,-1.5159,-1.4094,-1.3414,-1.3613,-1.2446,-1.1531,-1.1051,-1.0467,-0.9957,-0.9423,-0.9427,-0.9361,-0.9328,-0.9122,-0.9017,-0.9017,-0.8909,-0.88,-0.8696,-0.8696,-0.8591,-0.8482,-0.8482,-0.8482,-0.8479,-0.7994,-0.7131,-0.6076,-0.5453,-0.4193,-0.256,-0.1826,-0.1617,-0.1617,-0.1617,-0.1617,-0.1617,-0.1617,-0.1617,-0.1617,-0.1415,-0.1516,-0.1617,-0.1415,-0.1516,-0.1516,-0.101,-0.101,-0.101,-0.0505,-0.0202,0.0,0.0,0.0404,0.0707,0.0707,0.0505,0.0303,0.0303,0.0101,0.0201,0.0899,0.0898,0.0793,0.0389,0.0872,0.1057,0.066,0.1952,0.2482,0.1278,0.3066,0.4014,0.3449,0.4773,0.5635,0.5583,0.5581,0.5635,0.5754,0.5754,0.5814,0.5939,0.5986,0.6045,0.6116,0.6168,0.6227,-1.4292,-1.4668,0.0,-1.5353,-1.6053,-1.6348,-1.5129,-1.512,-1.4981,-1.3907,-1.4,-1.4272,-1.3906,-1.4257,-1.4386,-1.4189,-1.4543,-1.479,-1.4592,-1.479,-1.4987,-1.4987,-1.5083,-1.5267,-1.5547,-1.4777,-1.4298,-1.4496,-1.3294,-1.2324,-1.1878,-1.1134,-1.0446,-0.97,-0.9391,-0.9206,-0.9143,-0.9041,-0.8938,-0.8938,-0.8718,-0.8608,-0.8608,-0.8608,-0.8608,-0.8608,-0.8608,-0.8608,-0.8604,-0.8564,-0.7905,-0.6934,-0.681,-0.5622,-0.3747,-0.256,-0.1927,-0.1617,-0.1617,-0.1617,-0.1617,-0.1516,-0.1516,-0.1415,-0.1212,-0.1313,-0.1314,-0.1212,-0.1313,-0.1314,-0.1111,-0.1212,-0.1314,-0.1111,-0.0909,-0.0707,-0.0707,-0.0303,0.0,0.0,0.0,0.0,0.0,0.0,0.0,0.0,0.0,0.0,0.0,0.0,0.0,0.0,0.1225,0.1489,0.0093,0.2113,0.3188,0.255,0.428,0.5375,0.5375,0.5647,0.5869,0.5953,0.5953,0.5996,0.6086,0.6119,0.6181,0.6271,0.6301,0.6358,-1.421,0.0,-1.6396,-1.6781,-1.7715,-1.8372,-1.7784,-1.7881,-1.7596,-1.5698,-1.5351,-1.5094,-1.4086,-1.3912,-1.3918,-1.3918,-1.4129,-1.4298,-1.4298,-1.4496,-1.4694,-1.4694,-1.4981,-1.5083,0.0,-1.5083,-1.5083,-1.5083,-1.4332,-1.387,-1.3783,-1.1977,-1.0945,-1.072,-0.9659,-0.9096,-0.8923,-0.8927,-0.8923,-0.8923,-0.8923,-0.8923,-0.8923,-0.8923,-0.8923,-0.8923,-0.8923,-0.8923,-0.8913,-0.8764,-0.8053,-0.7064,-0.694,-0.6255,-0.5086,-0.3854,-0.2561,-0.1617,-0.1617,-0.1617,-0.1516,-0.1313,-0.1212,-0.1212,-0.1212,-0.101,-0.0909,-0.1111,-0.101,-0.0808,-0.0808,-0.0808,-0.0808,-0.0808,-0.0606,-0.0404,-0.0404,-0.0202,0.0,0.0,0.0,0.0,0.0,0.0,0.0,0.0,0.0,0.0,0.0,0.0,0.0,0.0,0.0096,0.0095,0.0,0.0951,0.152,0.1424,0.3416,0.4553,0.4553,0.5504,0.6078,0.6081,0.6081,0.6081,0.6086,0.6206,0.6265,0.6271,0.638,0.6434,-1.6327,0.0,-1.7304,-1.8194,-1.8888,-1.9183,-1.8628,-1.7979,-1.7169,-1.5674,-1.476,-1.395,-1.3417,-1.3387,-1.3441,-1.3622,-1.387,-1.4099,-1.4268,-1.4394,-1.4394,-1.4394,-1.4496,0.0,0.0,0.0,0.0,-1.5083,-1.4649,-1.4272,-1.3819,-1.3236,-1.2197,-1.0795,-1.0369,-0.9749,-0.8937,-0.894,-0.894,-0.894,-0.894,-0.894,-0.894,-0.894,-0.894,-0.894,-0.894,-0.894,-0.8933,-0.8882,-0.8526,-0.8069,-0.804,-0.7338,-0.6034,-0.4661,-0.3465,-0.2397,-0.1833,-0.1617,-0.1516,-0.1313,-0.1212,-0.1111,-0.0808,-0.0707,-0.0808,-0.0707,-0.0707,-0.0808,-0.0606,-0.0707,-0.0707,-0.0606,-0.0505,-0.0404,-0.0404,-0.0202,0.0,0.0,0.0,0.0,0.0,0.0,0.0,0.0,0.0,0.0,0.0,0.0,0.0,0.0,0.0,0.0,0.0,0.0864,0.1427,0.1427,0.2661,0.3801,0.4466,0.4847,0.5451,0.6206,0.6206,0.6244,0.6317,0.6358,0.5983,0.5289,0.532,0.4933,-1.7548,-1.7826,-1.8108,-1.9127,-1.9658,-1.9788,-1.9241,-1.8422,-1.7279,-1.5847,-1.4559,-1.3461,-1.2954,-1.2681,-1.2735,-1.329,-1.3519,-1.3779,-1.4238,-1.4298,-1.4298,-1.4298,-1.4298,-1.4298,0.0,0.0,0.0,-1.479,-1.4845,-1.4619,-1.4259,-1.4069,-1.3352,-1.1978,-1.1109,-1.0347,-0.9588,-0.9154,-0.894,-0.894,-0.894,-0.894,-0.894,-0.894,-0.894,-0.894,-0.894,-0.894,-0.8937,-0.8826,-0.8709,-0.8478,-0.8497,-0.791,-0.7018,-0.5714,-0.4502,-0.331,-0.1859,-0.1326,-0.1427,-0.1012,-0.101,-0.101,-0.0505,-0.0404,-0.0505,-0.0404,-0.0505,-0.0505,-0.0303,-0.0404,-0.0505,-0.0303,-0.0303,-0.0303,-0.0303,-0.0101,0.0,0.0,0.0,0.0,0.0,0.0,0.0,0.0,0.0,0.0,0.0,0.0,0.0,0.0,0.0,0.0,0.0,0.0588,0.0875,0.0875,0.1845,0.2719,0.3397,0.3786,0.459,0.5736,0.5342,0.5372,0.5834,0.5434,0.4931,0.423,0.423,0.3828,-1.7835,-1.8155,-1.8828,-1.9581,-2.0035,-2.0198,-1.9829,-1.8993,-1.7856,-1.6171,-1.4691,-1.3446,0.0,0.0,-1.1848,-1.2892,-1.3109,-1.3417,-1.4189,-1.4298,-1.4304,0.0,0.0,0.0,0.0,0.0,0.0,-1.434,0.0,-1.5113,-1.5125,-1.4556,-1.4277,-1.4056,-1.1982,-1.0781,-1.0566,-0.9482,-0.894,-0.894,-0.894,-0.894,-0.894,-0.894,-0.894,-0.894,-0.894,-0.894,-0.8826,-0.8598,-0.8484,-0.8484,-0.8156,-0.8045,-0.7808,-0.6585,-0.5345,-0.4018,-0.1579,-0.0936,-0.1139,-0.0611,-0.0607,-0.0707,-0.0505,-0.0202,-0.0101,-0.0303,-0.0202,0.0,0.0,0.0,0.0,0.0,0.0,0.0,0.0,0.0,0.0,0.0,0.0,0.0,0.0,0.0,0.0,0.0,0.0,0.0,0.0,0.0,0.0,0.0,0.0,0.0,0.0,0.0,0.0,0.0,0.0908,0.1513,0.1613,0.262,0.3626,0.4734,0.3726,0.3726,0.4734,0.3726,0.3123,0.3123,0.3123,0.3123,-1.9134,-1.9283,-1.9564,-2.0035,-2.0223,-2.0198,-1.9829,-1.8795,-1.7368,-1.5433,-1.3818,-1.2214,0.0,0.0,0.0,-1.2119,-1.2898,0.0,-1.4214,-1.4298,0.0,-1.4582,0.0,-1.4684,-1.4883,-1.4902,0.0,0.0,-1.5028,-1.5191,-1.539,-1.5394,-1.4696,-1.296,-1.2309,-1.1114,-0.9372,-0.9047,-0.894,-0.894,-0.894,-0.894,-0.894,-0.894,-0.894,-0.894,-0.894,-0.894,-0.8937,-0.8826,-0.8491,-0.8156,-0.8263,-0.8045,-0.7487,-0.5337,-0.4329,-0.3763,-0.1087,-0.0531,-0.083,-0.0516,-0.0409,-0.0404,-0.0202,-0.0101,0.0,-0.0101,-0.0101,0.0,0.0,0.0,0.0,0.0,0.0,0.0,0.0,0.0,0.0,0.0,0.0,0.0,0.0,0.0,0.0,0.0,0.0,0.0,0.0,0.0,0.0,0.0,0.0,0.0,0.0,0.0,0.0,0.0,0.0303,0.0807,0.1613,0.1814,0.2519,0.3626,0.3324,0.3324,0.3626,0.3324,0.2821,0.2016,0.2016,0.1613,-1.971,-1.9878,-2.0035,-2.024,-2.0172,-1.9821,-1.8948,-1.7522,-1.5921,-1.3962,-1.2276,0.0,-0.9916,-1.006,0.0,0.0,0.0,0.0,-1.4171,-1.4401,-1.4539,0.0,-1.4817,0.0,-1.5095,-1.5107,-1.5155,0.0,-1.5282,-1.5342,-1.5493,-1.5747,-1.5024,-1.329,-1.2635,-1.1223,-0.8937,-0.894,-0.894,-0.894,-0.894,-0.8826,-0.8712,-0.8712,-0.8602,-0.8491,0.0,-0.8491,-0.8494,-0.8383,-0.8162,-0.7826,-0.7931,-0.7709,-0.7268,-0.5922,-0.5029,-0.4354,-0.288,-0.2171,-0.1802,-0.0632,-0.0313,-0.031,-0.0103,0.0,0.0,0.0,0.0,0.0,0.0,0.0,0.0,0.0,0.0,0.0,0.0,0.0,0.0,0.0,0.0,0.0,0.0,0.0,0.0,0.0,0.0,0.0,0.0,0.0,0.0,0.0,0.0,0.0,0.0,0.0,0.0,0.0,0.0,0.0303,0.0908,0.0908,0.1412,0.2519,0.2016,0.2016,0.2519,0.2016,0.1513,0.0908,0.0908,0.0606,-1.9877,-2.0043,-2.0292,-2.0292,-1.9975,-1.9281,-1.7721,-1.6089,-1.4298,-1.2285,0.0,-0.9479,-0.9349,-0.9388,-0.9976,-1.157,0.0,-1.2819,-1.4117,-1.4539,-1.4733,-1.4769,-1.4998,-1.5173,-1.5209,-1.5215,-1.5306,-1.5535,-1.5553,-1.5553,-1.5553,-1.5765,-1.5351,-1.4277,-1.2852,-1.1219,-0.9154,-0.8937,-0.8826,-0.8826,-0.8826,-0.8712,-0.8484,-0.8484,-0.8263,-0.8045,-0.8045,-0.8045,-0.7934,-0.7715,-0.7607,-0.7607,-0.7379,-0.7265,-0.7154,-0.7043,-0.6262,-0.5371,-0.5258,-0.4433,-0.3274,-0.1182,-0.0534,-0.0532,-0.0523,-0.0208,0.0,-0.0204,-0.0102,0.0,0.0,0.0,0.0,0.0,0.0,0.0,0.0,0.0,0.0,0.0,0.0,0.0,0.0,0.0,0.0,0.0,0.0,0.0,0.0,0.0,0.0,0.0,0.0,0.0,0.0,0.0,0.0,0.0,0.0,0.0,0.0,0.0,0.0404,0.1412,0.0505,0.0505,0.1412,0.0404,0.0,0.0,0.0,0.0,-2.0266,-2.024,-2.0292,-2.0292,-1.9778,-1.8871,-1.7183,-1.5861,0.0,0.0,-1.0253,-0.9485,-0.8361,-0.889,-0.9856,-1.1063,-1.2029,-1.3025,-1.4141,-1.4539,-1.4799,0.0,-1.527,-1.5517,-1.5734,-1.5753,0.0,0.0,-1.5819,-1.5819,-1.5819,-1.5861,-1.5351,-1.4277,-1.2091,-1.0781,-1.0347,-0.9372,-0.8826,-0.8598,-0.8598,-0.8377,-0.8045,-0.8045,-0.8045,-0.8045,-0.8045,0.0,-0.8045,-0.7934,-0.7826,-0.7607,-0.7496,-0.7379,-0.7043,-0.604,-0.5594,-0.526,-0.425,-0.3797,-0.3555,-0.3058,-0.2367,-0.1701,-0.2647,-0.1589,-0.0212,-0.1161,-0.0731,0.0,0.0,0.0,0.0,0.0,0.0,0.0,0.0,0.0,0.0,0.0,0.0,0.0,0.0,0.0,0.0,0.0,0.0,0.0,0.0,0.0,0.0,0.0,0.0,0.0,0.0,0.0,0.0,0.0,0.0,0.0,0.0,0.0,0.0101,0.0303,0.0101,0.0101,0.0303,0.0101,0.0,0.0,0.0,0.0,-2.0279,-2.0292,-2.0292,-2.0292,-1.9573,-1.8303,-1.6242,0.0,0.0,0.0,-0.9187,-0.868,-0.7997,-0.8537,0.0,-1.0351,-1.116,-1.2143,-1.3495,-1.4039,0.0,-1.504,-1.5457,-1.5753,0.0,-1.5891,-1.5891,-1.5891,-1.5891,-1.5891,-1.5891,-1.5351,-1.4374,-1.3073,-1.1328,-1.0014,-0.9251,-0.8706,-0.8377,-0.8263,-0.8263,-0.8045,-0.7826,-0.7826,-0.7712,-0.7598,-0.7598,-0.7598,-0.7598,-0.7598,-0.749,-0.7379,-0.7379,-0.7268,-0.7154,-0.6596,-0.6374,-0.6262,-0.5701,-0.5477,-0.547,-0.5427,-0.4284,-0.2726,-0.2701,-0.1833,-0.097,-0.0854,-0.0424,0.0,0.0,0.0,0.0,0.0,0.0,0.0,0.0,0.0,0.0,0.0,0.0,0.0,0.0,0.0,0.0,0.0,0.0,0.0,0.0,0.0,0.0,0.0,0.0,0.0,0.0,0.0,0.0,0.0,0.0,0.0,0.0,0.0,0.0,0.0,0.0,0.0,0.0,0.0,0.0,0.0,0.0,0.0,-2.0078,-2.0232,-2.0275,-2.0189,-1.9316,-1.7811,-1.5284,-1.3434,0.0,0.0,-0.8209,-0.7901,-0.7901,0.0,-0.8873,0.0,-1.0381,-1.128,-1.2898,-1.3622,-1.4268,0.0,-1.5572,0.0,-1.5891,-1.5891,0.0,-1.5891,-1.5565,-1.5452,-1.5452,-1.4589,-1.3393,-1.1978,-1.0777,-0.9578,-0.8374,-0.8156,-0.7934,-0.7934,-0.7934,-0.7826,-0.7493,-0.7493,-0.7379,-0.7154,-0.7154,-0.7154,-0.7154,-0.7154,-0.7154,-0.7154,-0.7154,-0.7154,-0.7154,-0.7154,-0.7154,-0.7154,-0.7154,-0.7154,-0.7154,-0.7154,-0.5701,-0.3795,-0.2863,-0.2195,-0.1642,-0.0649,-0.0215,0.0,0.0,0.0,0.0,0.0,0.0,0.0,0.0,0.0,0.0,0.0,0.0,0.0,0.0,0.0,0.0101,0.0101,0.0101,0.0202,0.0202,0.0202,0.0202,0.0202,0.0101,0.0,0.0,0.0,0.0,0.0101,0.0,0.0,0.0101,0.0,0.0,0.0,0.0,0.0,0.0,0.0,0.0,0.0,0.0,0.0,-1.9684,-2.0035,-2.0215,-1.9881,-1.8939,-1.7271,-1.4411,0.0,0.0,-0.8549,-0.7955,-0.7901,-0.7901,-0.8135,-0.8663,-0.9706,0.0,-1.128,-1.2898,-1.3779,-1.4473,-1.504,0.0,0.0,-1.5891,-1.5891,0.0,-1.5891,-1.4685,-1.3917,-1.3917,-1.3809,-1.3048,-1.1629,-1.0445,-0.9798,-0.9688,-0.8592,-0.7826,-0.7607,-0.7607,-0.7493,-0.7265,-0.7265,-0.7265,-0.7154,-0.7154,-0.7154,0.0,-0.7154,-0.7154,-0.7154,-0.7154,-0.7154,-0.7154,-0.7154,-0.7154,-0.7154,-0.7154,-0.7154,-0.7154,-0.7154,-0.6262,-0.5258,-0.5137,-0.3572,-0.1787,-0.1673,-0.0883,0.0,0.0,0.0,0.0,0.0,0.0,0.0,0.0,0.0,0.0,0.0,0.0,0.0,0.0,0.0202,0.0404,0.0404,0.0606,0.0707,0.0707,0.0707,0.0707,0.0707,0.0303,0.0,0.0,0.0,0.0101,0.0303,0.0101,0.0101,0.0303,0.0101,0.0,0.0,0.0,0.0,0.0,0.0,0.0,0.0,0.0,0.0,-1.9239,-1.9838,-2.0198,-1.9829,-1.8364,-1.6468,-1.4103,0.0,-1.0352,-0.83,-0.7901,-0.7901,-0.7901,-0.7985,-0.8297,-0.9034,-0.9328,-1.0031,-1.1473,-1.2367,-1.3153,-1.407,-1.4891,0.0,0.0,0.0,-1.4482,-1.3609,-1.2832,-1.1955,-1.1084,-1.1846,-1.1738,-1.021,-0.9783,-0.913,-0.8257,-0.7709,-0.7487,-0.7379,-0.7379,-0.7268,-0.7154,-0.7154,-0.7154,-0.7154,-0.7154,-0.7154,0.0,-0.7154,-0.7154,-0.7154,-0.7154,-0.7154,-0.7154,-0.7154,-0.7154,-0.7154,-0.7154,-0.7154,-0.7154,-0.7154,-0.6821,-0.626,-0.481,-0.3134,-0.1679,-0.0896,-0.0335,0.0,0.0,0.0,0.0,0.0,0.0,0.0,0.0,0.0,0.0,0.0,0.0,0.0,0.0,0.0204,0.0404,0.0404,0.0606,0.0808,0.0808,0.0808,0.0707,0.0606,0.0505,0.0505,0.0505,0.0505,0.0505,0.0404,0.0303,0.0202,0.0202,0.0101,0.0,0.0,0.0,0.0,0.0,0.0,0.0,0.0,0.0,0.0,-1.8434,-1.9213,-1.9701,-1.9151,-1.7672,-1.571,0.0,-1.1596,-0.9735,-0.8227,-0.7848,-0.7788,-0.7842,-0.7794,-0.7936,-0.8374,-0.8634,-0.9256,-1.0581,-1.145,-1.2416,0.0,0.0,-1.5071,0.0,-1.441,-1.3181,-1.1319,-1.0983,-1.021,-0.8796,-0.9665,-0.9775,-0.8686,-0.8686,-0.8251,-0.7154,-0.7154,-0.7154,-0.7154,-0.7154,-0.7154,-0.7154,-0.7154,-0.7154,-0.7154,-0.7154,-0.7154,0.0,-0.7154,-0.7154,-0.7154,-0.7154,-0.7154,-0.7154,-0.7154,-0.7154,-0.7154,-0.7154,-0.7154,-0.7154,-0.7154,-0.6932,-0.6374,-0.4698,-0.3245,-0.2127,-0.0896,-0.0224,0.0,0.0,0.0,0.0,0.0,0.0,0.0,0.0,0.0,0.0,0.0,0.0,0.0,0.0,0.0311,0.0513,0.0513,0.0818,0.1019,0.1019,0.1014,0.101,0.0808,0.0909,0.0909,0.0606,0.0606,0.0606,0.0404,0.0303,0.0303,0.0202,0.0202,0.0101,0.0101,0.0101,0.0101,0.0,0.0,0.0,0.0,0.0,0.0,-1.7184,-1.8031,-1.8428,-1.7727,-1.6602,-1.5072,-1.2468,-1.0829,-0.9426,-0.8172,-0.7681,-0.7568,-0.767,-0.7622,-0.7601,-0.7852,-0.8492,-0.9338,-1.071,-1.1726,0.0,0.0,0.0,-1.4724,-1.4677,-1.3884,-1.2191,-0.9559,-0.934,0.0,-0.7265,-0.7265,-0.7265,-0.7265,-0.7265,-0.7265,-0.7154,-0.7154,-0.7154,-0.7154,-0.7154,-0.7154,-0.7154,-0.7154,-0.7154,-0.7154,-0.7154,-0.7154,0.0,-0.7154,-0.7154,-0.7154,-0.7154,-0.7154,-0.7154,-0.7154,-0.7154,-0.7154,-0.7154,-0.7154,-0.7154,-0.7154,-0.6374,-0.5371,-0.5371,-0.4587,-0.3357,-0.2127,-0.0896,0.0,0.0,0.0,0.0,0.0,0.0,0.0,0.0,0.0,0.0,0.0,0.0,0.0,0.0,0.0533,0.0853,0.0853,0.1366,0.1662,0.1662,0.1635,0.1617,0.1617,0.1617,0.1212,0.0101,0.0202,0.0404,0.0404,0.0101,0.0202,0.0808,0.0505,0.0404,0.0404,0.0404,0.0303,0.0,0.0,0.0,0.0,0.0,0.0,-1.4657,-1.5536,-1.6125,-1.4832,-1.3521,-1.2241,-1.0933,-0.949,-0.8348,-0.7769,-0.7574,-0.7515,-0.7568,-0.7521,-0.7772,-0.8537,-0.9128,-0.9676,0.0,0.0,0.0,-1.274,-1.3247,-1.3213,0.0,0.0,-0.9892,-0.826,-0.7925,-0.7703,-0.7265,-0.7154,-0.7154,-0.7154,-0.7154,-0.7154,-0.7154,-0.7154,-0.7154,-0.7154,-0.7154,-0.7154,-0.7154,-0.7154,-0.7154,-0.7154,-0.7154,-0.7154,-0.7154,-0.7154,-0.7154,-0.7154,-0.7154,-0.7154,-0.7154,-0.7154,-0.7154,-0.7154,-0.7154,-0.7154,-0.7154,-0.7154,-0.6932,-0.6485,-0.5367,-0.3804,-0.2127,-0.0896,-0.0112,0.0224,0.0224,0.0449,0.0561,0.0561,0.0561,0.0561,0.0561,0.0561,0.056,0.0669,0.0662,0.0655,0.0651,0.0967,0.1172,0.1172,0.1485,0.1691,0.1691,0.1682,0.1565,0.1443,0.1545,0.1537,0.1113,0.1212,0.1111,0.0909,0.0909,0.0808,0.0808,0.0707,0.0707,0.0707,0.0512,0.0309,0.0309,0.0315,0.0426,0.0646,0.0649,0.0657,0.0,-1.3549,-1.4112,-1.277,-1.1609,-1.0635,-0.9745,-0.8637,-0.7656,-0.7518,-0.7413,-0.7359,-0.7413,-0.7359,-0.7555,-0.817,-0.8823,0.0,0.0,0.0,0.0,-1.2029,0.0,0.0,0.0,-0.964,-0.8692,-0.749,-0.7268,-0.7154,-0.7154,-0.7154,-0.7154,-0.7154,-0.7154,-0.7154,-0.7154,-0.7154,-0.7154,-0.7154,-0.7154,-0.7154,-0.7154,-0.7154,-0.7154,-0.7154,-0.7154,-0.7154,0.0,-0.7154,-0.7154,-0.7154,-0.7154,-0.7154,-0.7154,-0.7154,-0.7154,-0.7154,-0.7154,-0.7154,-0.7154,-0.7154,-0.6818,-0.6038,-0.4695,-0.3019,-0.1344,-0.0336,0.0112,0.0224,0.0224,0.0449,0.0673,0.0673,0.0785,0.0897,0.0897,0.0897,0.0897,0.0897,0.089,0.0883,0.0883,0.1094,0.1304,0.1304,0.1513,0.1721,0.1721,0.1711,0.1591,0.147,0.1573,0.167,0.1652,0.1527,0.1318,0.1122,0.1123,0.1024,0.1031,0.1031,0.1031,0.1031,0.0834,0.0734,0.0629,0.0641,0.0652,0.0883,0.0883,0.0888,0.0,-1.2072,-1.2131,-1.1274,-1.0538,-0.9761,-0.8958,-0.8034,0.0,-0.7458,-0.7246,-0.7149,-0.7307,-0.7236,-0.7139,-0.7219,-0.7947,0.0,0.0,-1.0796,0.0,0.0,-1.1885,0.0,-0.9219,-0.8835,-0.8371,-0.7265,-0.7154,-0.7154,-0.7154,-0.7154,-0.7154,-0.7154,-0.7154,-0.7154,-0.7154,-0.7154,-0.7154,-0.7154,-0.7154,-0.7154,-0.7154,-0.7154,-0.7154,0.0,-0.7154,-0.7154,-0.7154,-0.7154,-0.7154,-0.7154,-0.7154,-0.7154,-0.7154,-0.7154,-0.7154,-0.7154,-0.7154,-0.7154,-0.7154,-0.7154,-0.6038,-0.4472,-0.3466,-0.2238,-0.112,-0.0224,0.0112,0.0112,0.0112,0.0336,0.0449,0.0449,0.0785,0.1009,0.1009,0.1009,0.1009,0.1009,0.1009,0.1009,0.1009,0.1121,0.1346,0.1346,0.155,0.1752,0.1752,0.1728,0.171,0.1707,0.1707,0.1707,0.1705,0.1447,0.1124,0.0935,0.0936,0.1048,0.1277,0.1278,0.1278,0.1278,0.128,0.1175,0.0964,0.0979,0.0994,0.1009,0.1009,0.1009,-0.8857,0.0,-0.9508,-0.8393,-0.8022,-0.7896,0.0,-0.7318,-0.7155,-0.7203,-0.7139,-0.7198,-0.7627,-0.7488,-0.7661,-0.856,0.0,0.0,-1.0627,0.0,0.0,-1.3037,-1.181,-1.0775,-1.0385,-0.8676,-0.7487,-0.7265,-0.7154,-0.7154,-0.7154,-0.7154,-0.7154,-0.7154,-0.7154,-0.7154,-0.7154,-0.7154,-0.7154,-0.7154,-0.7154,-0.7154,-0.7154,-0.7154,-0.7154,-0.7154,-0.7154,-0.7154,-0.7154,-0.7154,-0.7154,-0.7154,-0.7154,-0.7154,-0.7154,-0.7154,-0.7154,-0.7154,-0.6935,-0.6824,-0.6824,-0.6824,-0.5029,-0.2907,-0.3019,-0.2125,-0.0784,0.0336,0.0785,0.1009,0.1009,0.1234,0.1458,0.1458,0.157,0.157,0.157,0.157,0.157,0.157,0.157,0.157,0.157,0.1683,0.1683,0.1683,0.1789,0.1784,0.1784,0.1778,0.1765,0.1742,0.1739,0.1729,0.1706,0.1586,0.1581,0.1482,0.1482,0.1591,0.1597,0.1598,0.1598,0.1598,0.1403,0.1312,0.1219,0.1224,0.1341,0.157,0.157,0.157,-0.783,-0.8159,-0.8474,-0.761,-0.7475,-0.7531,-0.7413,-0.7241,-0.7085,0.0,0.0,0.0,0.0,0.0,0.0,0.0,-0.9542,0.0,0.0,0.0,-1.2913,-1.2,-1.1202,-1.0233,0.0,-0.7925,-0.7154,-0.7154,-0.7154,-0.7154,-0.7154,-0.7154,-0.7154,-0.7154,-0.7154,-0.7154,-0.7154,-0.7154,-0.7154,-0.7154,-0.7154,-0.7154,-0.7154,-0.7154,-0.7154,-0.7154,-0.7154,-0.7154,-0.7154,-0.7154,-0.7154,-0.7154,-0.7154,-0.7154,-0.7154,-0.7154,-0.7154,-0.7154,-0.6824,-0.6604,-0.6381,-0.5817,-0.4136,-0.2124,-0.1901,-0.0783,0.0448,0.0785,0.1009,0.1121,0.1121,0.1346,0.157,0.157,0.1683,0.1795,0.1795,0.1795,0.1795,0.1795,0.1795,0.1795,0.1795,0.1795,0.1795,0.1795,0.1795,0.1795,0.1795,0.1795,0.1789,0.1772,0.177,0.1764,0.1747,0.1746,0.174,0.1726,0.1725,0.1731,0.1746,0.1746,0.1746,0.1746,0.1652,0.1556,0.157,0.157,0.157,0.1795,0.1795,0.1795,-0.7715,-0.8057,-0.8289,-0.7784,-0.7747,-0.779,-0.7752,0.0,0.0,0.0,0.0,0.0,0.0,-0.786,0.0,0.0,0.0,0.0,-1.1785,-1.2516,-1.2235,-1.0277,-1.0254,0.0,-0.7706,-0.7265,-0.7154,-0.7154,-0.7154,-0.7154,-0.7154,-0.7154,-0.7154,-0.7154,-0.7154,-0.7154,-0.7154,-0.7154,-0.7154,-0.7154,-0.7154,-0.7154,-0.7154,-0.7154,-0.7154,-0.7154,0.0,0.0,-0.7154,-0.7154,-0.7154,-0.7154,-0.7154,-0.7154,-0.7154,-0.7154,-0.7154,-0.7043,-0.6712,-0.6383,-0.5938,-0.481,-0.3353,-0.1901,-0.0783,0.0672,0.1683,0.1234,0.1009,0.1009,0.1009,0.1234,0.1346,0.1346,0.157,0.1795,0.1795,0.1795,0.1795,0.1795,0.1795,0.1795,0.1795,0.1795,0.1795,0.1795,0.1795,0.1795,0.1795,0.1795,0.1795,0.1795,0.1795,0.1795,0.1795,0.1795,0.1784,0.1759,0.1757,0.1768,0.1794,0.1795,0.1795,0.1795,0.1795,0.1795,0.1795,0.1795,0.1795,0.1795,0.18,0.1802,-0.7753,-0.8099,-0.8272,-0.7397,-0.7499,-0.7747,-0.749,-0.7394,0.0,0.0,0.0,0.0,0.0,-0.8834,-0.9217,0.0,0.0,-1.0348,0.0,0.0,-1.051,-1.0241,0.0,-0.903,-0.8702,-0.7817,-0.7154,-0.7154,-0.7154,-0.7154,-0.7154,-0.7154,-0.7154,-0.7154,-0.7154,-0.7154,-0.7154,-0.7154,-0.7154,-0.7154,-0.7154,-0.7154,-0.7154,-0.7154,-0.7154,-0.7154,0.0,-0.7154,-0.7154,-0.6935,-0.6824,-0.6824,-0.6824,-0.6824,-0.6824,-0.6824,-0.6824,-0.6712,-0.6156,-0.5712,-0.538,-0.4365,-0.3022,-0.1679,-0.0672,0.0672,0.1795,0.1683,0.1683,0.1683,0.1683,0.1683,0.1683,0.1683,0.1795,0.1795,0.1795,0.1795,0.1795,0.1795,0.1795,0.1795,0.1795,0.1795,0.1795,0.1795,0.1795,0.1795,0.1795,0.1795,0.1795,0.1795,0.1795,0.1795,0.1795,0.1795,0.1793,0.1789,0.1788,0.179,0.1795,0.1795,0.1795,0.1795,0.1795,0.1795,0.1795,0.1795,0.1795,0.1795,0.1821,0.1834,-0.7253,-0.7666,-0.8021,-0.758,-0.8016,-0.8565,-0.8597,-0.8398,0.0,0.0,0.0,0.0,0.0,0.0,-0.9956,-1.0319,0.0,-1.0476,-1.0388,-1.0182,-0.989,0.0,0.0,-0.8699,-0.8039,-0.7487,-0.7154,-0.7154,-0.7154,-0.7154,-0.7154,-0.7154,-0.7154,-0.7154,-0.7154,-0.7154,-0.7154,-0.7154,-0.7154,-0.7154,-0.7154,-0.7154,-0.7154,-0.7154,-0.7154,-0.7154,0.0,-0.6935,-0.6935,-0.6606,-0.6495,-0.6495,-0.6495,-0.6495,-0.6495,-0.6495,-0.6381,-0.6156,-0.5933,-0.5601,-0.5156,-0.3358,-0.2351,-0.1456,0.0224,0.1233,0.1795,0.1795,0.1795,0.1795,0.1795,0.1795,0.1795,0.1795,0.1795,0.1795,0.1795,0.1795,0.1795,0.1795,0.1795,0.1795,0.1795,0.1795,0.1795,0.1795,0.1795,0.1795,0.1795,0.1795,0.1795,0.1795,0.1795,0.1795,0.1795,0.1795,0.1795,0.1795,0.1795,0.1795,0.1795,0.1795,0.1795,0.1795,0.1795,0.1795,0.1795,0.1811,0.1819,0.182,0.1851,0.1865,-0.6881,-0.7231,-0.7693,-0.7925,-0.8425,-0.8996,-0.9475,-0.9206,-0.899,0.0,0.0,0.0,0.0,-1.0021,0.0,-1.0648,-1.036,-1.0015,-0.9587,-0.9438,-0.9064,-0.8399,-0.841,-0.8149,-0.7265,-0.7154,-0.7154,-0.7154,-0.7154,-0.7154,-0.7154,-0.7154,-0.7154,-0.7154,-0.7154,-0.7043,-0.7043,-0.7046,-0.7046,-0.7154,-0.7154,-0.7154,-0.7154,-0.7154,-0.7043,-0.7046,-0.6824,-0.6715,-0.6604,-0.6272,-0.6161,-0.6161,-0.6161,-0.6161,-0.6161,-0.6161,-0.5938,-0.5712,-0.5712,-0.5603,-0.5043,-0.2575,-0.1791,-0.1344,0.1121,0.1795,0.1795,0.1795,0.1795,0.1795,0.1795,0.1795,0.1795,0.1795,0.1795,0.1795,0.1795,0.1795,0.1795,0.1795,0.1795,0.1795,0.1795,0.1795,0.1795,0.1795,0.1795,0.1795,0.1795,0.1802,0.1803,0.1795,0.1802,0.1803,0.1795,0.1795,0.1795,0.1795,0.1795,0.1795,0.1795,0.1795,0.1795,0.1795,0.1795,0.1798,0.1806,0.1829,0.1844,0.1852,0.1882,0.1896,-0.7203,-0.7244,-0.7386,-0.8233,-0.8178,-0.8194,-0.9324,-0.9206,0.0,-1.0299,0.0,0.0,0.0,-1.0264,-1.0367,-1.1023,-0.9473,-0.8313,-0.8522,0.0,-0.7099,-0.7334,-0.726,-0.7265,-0.7154,-0.7154,-0.7154,-0.7154,-0.7154,-0.7154,-0.7154,-0.7154,-0.7154,-0.7154,-0.6935,-0.6712,-0.6712,-0.6495,-0.6604,-0.7154,-0.6935,-0.6935,-0.7154,-0.6824,-0.6712,-0.6712,-0.6715,-0.6606,-0.6274,-0.5935,-0.5822,-0.5822,-0.5822,-0.5822,-0.5822,-0.5822,-0.5712,-0.5382,-0.5382,-0.5382,-0.5043,-0.2575,-0.1791,-0.1344,0.1121,0.1795,0.1795,0.1795,0.1795,0.1795,0.1795,0.1795,0.1795,0.1795,0.1795,0.1795,0.1795,0.1795,0.1795,0.1795,0.1795,0.1795,0.1795,0.1795,0.1795,0.1795,0.1795,0.1795,0.1795,0.182,0.1826,0.1798,0.182,0.1825,0.1797,0.1795,0.1795,0.1795,0.1795,0.1795,0.1795,0.1795,0.1795,0.1795,0.1795,0.1809,0.1837,0.1839,0.1855,0.1883,0.1913,0.1928,-0.6632,-0.6832,-0.7086,-0.7919,-0.8199,0.0,0.0,-0.9864,-1.0354,-1.0895,-1.134,0.0,0.0,0.0,-1.0467,-1.0236,-0.9008,-0.7828,-0.7497,-0.7012,-0.6891,-0.7127,-0.7154,-0.7154,-0.7154,-0.7154,-0.7154,-0.7154,-0.7154,-0.7154,-0.7154,-0.7046,-0.6935,-0.6935,-0.6606,-0.6495,-0.6495,-0.6386,-0.6383,-0.6604,-0.6495,-0.6495,-0.6606,-0.6495,-0.6495,-0.6495,-0.627,-0.6047,-0.5935,-0.5712,-0.5603,-0.5603,-0.5603,-0.5603,-0.5603,-0.5603,-0.5491,-0.5382,-0.5382,-0.4929,-0.403,-0.2351,-0.1344,-0.0336,0.1346,0.1808,0.1823,0.1823,0.1837,0.1842,0.1805,0.1795,0.1795,0.1795,0.1809,0.1818,0.1799,0.181,0.1818,0.1799,0.1795,0.1795,0.1795,0.1795,0.1795,0.1795,0.1795,0.1802,0.1821,0.1834,0.1843,0.1851,0.1862,0.1864,0.1852,0.1851,0.1851,0.1851,0.1816,0.1795,0.1795,0.1795,0.1804,0.1823,0.1823,0.1838,0.1868,0.1887,0.1903,0.1915,0.1945,0.196,-0.6115,-0.6374,-0.6745,-0.7535,0.0,0.0,-0.9128,-1.0172,-1.1139,-1.1446,-1.1873,-1.2047,-1.2073,0.0,0.0,0.0,-0.8219,-0.7311,-0.6818,-0.6779,-0.6877,-0.7076,-0.7133,-0.7154,-0.7154,-0.7154,-0.7154,-0.7154,-0.7154,-0.7043,-0.7043,-0.6715,-0.6604,-0.6604,-0.6272,-0.6161,-0.6161,-0.6051,-0.6051,-0.6051,-0.6051,-0.6163,-0.6274,-0.6161,-0.6161,-0.6161,-0.5935,-0.571,-0.5712,-0.5491,-0.5382,-0.5382,-0.5382,-0.5382,-0.5382,-0.5382,-0.5382,-0.5382,-0.5382,-0.4608,-0.3381,-0.2131,-0.1012,0.0226,0.1469,0.1824,0.1842,0.1852,0.187,0.1877,0.1834,0.1823,0.1823,0.1823,0.184,0.1849,0.1828,0.184,0.1849,0.1827,0.1823,0.1823,0.1823,0.1823,0.1823,0.1823,0.1823,0.1832,0.1852,0.1863,0.1877,0.1898,0.1892,0.1886,0.1886,0.1886,0.1886,0.1886,0.1847,0.1823,0.1823,0.1823,0.1834,0.1854,0.1855,0.187,0.19,0.1921,0.1936,0.1946,0.1967,0.1977,-0.5795,-0.5936,-0.628,0.0,0.0,0.0,-0.863,-0.9897,-1.1154,-1.1844,-1.2005,-1.191,-1.1293,-0.9884,0.0,-0.8072,-0.7129,-0.6478,-0.6603,-0.6722,-0.6844,-0.6972,-0.7084,-0.7154,-0.7154,-0.7154,-0.7154,-0.7154,-0.6935,-0.6715,-0.6715,-0.6495,-0.6274,-0.6274,-0.5935,-0.5822,-0.5822,-0.5491,-0.5382,-0.5382,-0.5382,-0.5717,-0.6274,-0.5935,-0.5822,-0.5822,-0.5822,-0.5601,-0.5382,-0.5382,-0.5382,-0.5382,-0.5382,-0.5382,-0.5382,-0.5382,-0.5382,-0.5382,-0.5382,-0.453,-0.3317,-0.2139,-0.1019,0.023,0.1495,0.1841,0.1847,0.1878,0.1887,0.1887,0.1887,0.1887,0.1887,0.1886,0.1886,0.1886,0.1886,0.1886,0.1886,0.1886,0.1886,0.1886,0.1886,0.1886,0.1886,0.1886,0.1886,0.1886,0.1886,0.1913,0.1932,0.1932,0.1904,0.1887,0.1887,0.1887,0.1887,0.1887,0.1887,0.1887,0.1886,0.1886,0.1886,0.1886,0.1886,0.1901,0.1932,0.1932,0.1947,0.1977,0.1977,0.1977,-0.574,-0.6053,0.0,-0.6994,0.0,0.0,0.0,-0.9741,0.0,0.0,-1.0595,-1.0448,-0.9674,-0.8634,0.0,-0.7713,-0.6933,-0.638,-0.6298,-0.6548,-0.6645,-0.674,-0.6904,-0.7067,-0.7146,-0.6935,-0.6824,-0.6824,-0.6604,-0.6383,-0.6383,-0.6161,-0.5935,-0.5935,-0.5714,-0.5491,-0.5491,-0.5493,-0.5382,-0.5382,-0.5382,-0.5493,-0.5717,-0.5603,-0.5491,-0.5491,-0.5491,-0.5491,-0.5382,-0.5382,-0.5382,-0.5382,-0.5382,-0.5382,-0.5382,-0.5382,-0.5382,-0.5382,-0.5382,-0.4046,-0.2258,-0.1819,-0.0343,0.1382,0.1749,0.1887,0.1906,0.1915,0.1933,0.1949,0.1949,0.1949,0.1939,0.1896,0.1902,0.1912,0.189,0.1902,0.1911,0.189,0.1886,0.1886,0.1886,0.1886,0.1886,0.1886,0.1886,0.1894,0.1915,0.1945,0.1963,0.1963,0.1955,0.1949,0.1949,0.1949,0.1949,0.1949,0.1949,0.193,0.1887,0.1886,0.1896,0.1917,0.1917,0.1932,0.1963,0.1963,0.1968,0.1977,0.1977,0.1977,-0.5952,-0.6324,0.0,-0.7421,-0.8269,-0.9021,-0.9144,0.0,0.0,0.0,-0.9641,-0.912,-0.8403,-0.7875,0.0,-0.7123,-0.6637,-0.6165,-0.6134,-0.6182,-0.6362,-0.6396,-0.6708,-0.6899,-0.6968,-0.6798,-0.6604,-0.6495,-0.6272,-0.6049,-0.6049,-0.5826,-0.5601,-0.5601,-0.5491,-0.5382,-0.5382,-0.5382,-0.5382,-0.5382,-0.5382,-0.5382,-0.5382,-0.5382,-0.5382,-0.5382,-0.5382,-0.5382,-0.5382,-0.5382,-0.5382,-0.5382,-0.5382,-0.5382,-0.5382,-0.5382,-0.5382,-0.5382,-0.4817,-0.3389,-0.1714,-0.1147,0.0232,0.188,0.1898,0.1917,0.1934,0.1946,0.1962,0.1977,0.1977,0.1977,0.1967,0.193,0.1936,0.1944,0.1926,0.1937,0.1944,0.1925,0.1922,0.1922,0.1922,0.1922,0.1922,0.1922,0.1922,0.1928,0.1947,0.1965,0.1977,0.1977,0.1977,0.1977,0.1977,0.1977,0.1977,0.1977,0.1977,0.196,0.1924,0.1922,0.193,0.1949,0.1949,0.1958,0.1977,0.1977,0.1977,0.1977,0.1977,0.1977,-0.6233,-0.6656,0.0,-0.8028,-0.8442,0.0,-0.9377,-0.9225,-0.9114,-0.9604,0.0,-0.8042,-0.7406,-0.7226,-0.689,-0.6418,-0.6139,-0.5942,-0.5942,-0.5824,-0.5889,-0.611,-0.6391,-0.6521,-0.6433,-0.6636,-0.6594,-0.6272,-0.6047,-0.5822,-0.5822,-0.5491,-0.5382,-0.5382,-0.5382,-0.5382,-0.5382,-0.5382,-0.5382,-0.5382,-0.5382,-0.5382,-0.5382,-0.5382,-0.5382,-0.5382,-0.5382,-0.5382,-0.5382,-0.5382,-0.5382,-0.5382,-0.5382,-0.5382,-0.5382,-0.5382,-0.5382,-0.527,-0.4036,-0.2747,-0.1523,-0.0347,0.0824,0.1932,0.1934,0.1935,0.1941,0.1969,0.1977,0.1977,0.1977,0.1977,0.1977,0.1977,0.1977,0.1977,0.1977,0.1977,0.1977,0.1977,0.1977,0.1977,0.1977,0.1977,0.1977,0.1977,0.1977,0.1977,0.1977,0.1977,0.1977,0.1977,0.1977,0.1977,0.1977,0.1977,0.1977,0.1977,0.1977,0.1977,0.1977,0.1977,0.1977,0.1977,0.1977,0.1977,0.1977,0.1977,0.1977,0.1977,0.1977,0.1977,-0.5929,-0.6469,0.0,0.0,-0.8536,-0.9168,-0.8769,-0.8131,-0.7633,-0.773,-0.7108,-0.6305,-0.5529,-0.5518,-0.5613,-0.5436,-0.5536,-0.5639,-0.5441,-0.5557,-0.5602,-0.5585,-0.5839,-0.6035,-0.6207,-0.6673,-0.6613,-0.5929,-0.6267,-0.6158,-0.5491,-0.5382,-0.5382,-0.5382,-0.5382,-0.5382,-0.5382,-0.5382,-0.5382,-0.5382,-0.5382,-0.5382,-0.5382,-0.5382,-0.5382,-0.5382,-0.5382,-0.5382,-0.5382,-0.5382,-0.5382,-0.5382,-0.5382,-0.5382,-0.5382,-0.5382,-0.5382,-0.5166,-0.3977,-0.2752,-0.1505,-0.0355,0.0959,0.1936,0.196,0.1967,0.1968,0.1975,0.1977,0.1977,0.1977,0.1977,0.1977,0.1977,0.1977,0.1977,0.1977,0.1977,0.1977,0.1977,0.1977,0.1977,0.1977,0.1977,0.1977,0.1977,0.1977,0.1977,0.1977,0.1977,0.1977,0.1977,0.1977,0.1977,0.1977,0.1977,0.1977,0.1977,0.1977,0.1977,0.1977,0.1977,0.1977,0.1977,0.1977,0.1977,0.1977,0.1977,0.1977,0.1977,0.1977,0.1977,-0.5439,0.0,0.0,-0.7666,0.0,-0.8329,-0.8414,-0.7434,-0.6639,-0.6639,-0.5939,-0.5338,-0.5037,-0.514,-0.524,-0.5338,-0.5438,-0.5338,-0.524,-0.5238,-0.5256,-0.5311,-0.587,-0.6274,-0.6445,-0.6724,-0.6909,-0.6808,-0.6712,-0.6492,-0.6049,-0.6047,-0.5826,-0.5382,-0.5382,-0.5382,-0.5382,-0.5382,-0.5382,-0.5382,-0.5382,-0.5382,-0.5382,-0.5382,-0.5382,-0.5382,-0.5382,-0.5382,-0.5382,-0.5382,-0.5382,-0.5382,-0.5382,-0.5382,-0.5382,-0.5382,-0.5382,-0.5168,-0.3308,-0.2192,-0.14,0.0359,0.1455,0.1956,0.1972,0.1977,0.1977,0.1977,0.1977,0.1977,0.1977,0.1977,0.1977,0.1977,0.1977,0.1977,0.1977,0.1977,0.1977,0.1977,0.1977,0.1977,0.1977,0.1977,0.1977,0.1977,0.1977,0.1977,0.1977,0.1977,0.1977,0.1977,0.1977,0.1977,0.1977,0.1977,0.1977,0.1977,0.1977,0.1977,0.1977,0.1977,0.1977,0.1977,0.1977,0.1977,0.1977,0.1977,0.1977,0.1977,0.1977,0.1977,-0.4836,0.0,-0.6376,-0.7472,-0.7481,0.0,-0.7829,-0.6939,-0.5942,-0.5839,-0.5238,-0.4834,-0.514,-0.514,-0.5238,-0.5436,-0.5238,-0.514,-0.514,-0.4937,-0.4834,-0.514,-0.5817,-0.6323,-0.6432,-0.685,-0.718,-0.7767,-0.7343,-0.7025,-0.6712,-0.6715,-0.627,-0.5382,-0.5382,-0.5382,-0.5382,-0.5382,-0.5382,-0.5382,-0.5382,-0.5382,-0.5382,-0.5382,-0.5382,-0.5382,-0.5382,-0.5382,-0.5382,-0.5382,-0.5382,-0.5382,-0.5382,-0.5382,-0.5382,-0.5382,-0.5382,-0.5058,-0.252,-0.1745,-0.1298,0.1083,0.1956,0.1977,0.1977,0.1977,0.1977,0.1977,0.1977,0.1977,0.1977,0.1977,0.1977,0.1977,0.1977,0.1977,0.1977,0.1977,0.1977,0.1977,0.1977,0.1977,0.1977,0.1977,0.1977,0.1977,0.1977,0.1977,0.1977,0.1977,0.1977,0.1977,0.1977,0.1977,0.1977,0.1977,0.1977,0.1977,0.1977,0.1977,0.1977,0.1977,0.1977,0.1977,0.1977,0.1977,0.1977,0.1977,0.1853,0.1605,0.1605,0.1482,-0.4347,0.0,-0.6089,0.0,-0.6957,-0.6994,0.0,0.0,-0.5842,0.0,-0.4834,-0.4834,-0.4834,-0.4834,-0.4834,-0.4935,-0.4834,-0.4834,-0.4834,-0.4834,-0.4834,-0.4834,-0.4945,-0.5092,-0.5186,-0.6546,-0.7276,-0.6764,-0.7976,-0.8138,-0.6821,-0.6715,-0.627,-0.5382,-0.5382,-0.5382,-0.5382,-0.5382,-0.5382,-0.5382,-0.5382,-0.5382,-0.5382,-0.5382,-0.5382,-0.5382,-0.5382,-0.5382,-0.5382,-0.5382,-0.5382,-0.5382,-0.5382,-0.5382,-0.5382,-0.5382,-0.5382,-0.5065,-0.2553,-0.1644,-0.1301,0.1219,0.1973,0.1977,0.1977,0.1977,0.1977,0.1977,0.1977,0.1977,0.1977,0.1977,0.1977,0.1977,0.1977,0.1977,0.1977,0.1977,0.1977,0.1977,0.1977,0.1977,0.1977,0.1977,0.1977,0.1977,0.1977,0.1977,0.1977,0.1977,0.1977,0.1977,0.1977,0.1977,0.1977,0.1977,0.1977,0.1977,0.1977,0.1977,0.1977,0.1977,0.1977,0.1977,0.1977,0.1977,0.1977,0.1977,0.1358,0.0247,0.0247,-0.037,-0.3952,-0.4362,-0.4813,0.0,-0.5887,-0.5711,-0.5922,0.0,-0.5236,-0.4834,-0.4834,-0.4834,-0.4834,-0.4834,-0.4834,-0.4834,-0.4834,-0.4834,-0.4834,-0.4834,-0.4834,-0.4834,-0.5238,-0.5679,-0.6292,-0.7021,-0.782,-0.856,-0.8789,-0.8391,-0.7271,-0.7233,-0.6728,-0.5304,-0.5355,-0.5382,-0.5382,-0.5382,-0.5382,-0.5382,-0.5382,-0.5382,-0.5382,-0.5382,-0.5382,-0.5382,-0.5382,-0.5382,-0.5382,-0.5382,-0.5382,-0.5382,-0.5382,-0.5382,-0.5382,-0.5382,-0.4959,-0.4102,-0.2333,-0.1301,-0.0359,0.1471,0.1977,0.1977,0.1977,0.1977,0.1977,0.1977,0.1977,0.1977,0.1977,0.1977,0.1977,0.1977,0.1977,0.1977,0.1977,0.1977,0.1977,0.1977,0.1977,0.1977,0.1977,0.1977,0.1977,0.1977,0.1977,0.1977,0.1977,0.1977,0.1977,0.1977,0.1977,0.1977,0.1977,0.1977,0.1977,0.1977,0.1977,0.1977,0.1977,0.1977,0.1977,0.1977,0.1977,0.1605,0.0863,0.0863,0.0247,-0.1108,-0.1108,-0.1478,0.0,0.0,-0.3689,-0.4787,-0.4743,-0.4657,0.0,0.0,-0.4804,0.0,-0.482,-0.4834,-0.4834,-0.4834,-0.4834,-0.4834,-0.4834,-0.4834,-0.4834,-0.4834,-0.4834,-0.4834,-0.5338,-0.6073,-0.7068,-0.728,-0.7948,-0.945,-0.9042,-0.8327,-0.7317,-0.7413,-0.6714,-0.521,-0.5275,-0.5324,-0.5347,-0.5369,-0.5382,-0.5382,-0.5382,-0.5382,-0.5382,-0.5382,-0.5382,-0.5382,-0.5382,-0.527,-0.5156,-0.5382,-0.527,-0.5156,-0.5382,-0.5382,-0.5384,-0.5406,-0.4657,-0.3337,-0.2114,-0.0954,0.0362,0.1597,0.1977,0.1977,0.1977,0.1977,0.1977,0.1977,0.1977,0.1977,0.1977,0.1977,0.1977,0.1977,0.1977,0.1977,0.1977,0.1977,0.1977,0.1977,0.1977,0.1977,0.1977,0.1977,0.1977,0.1977,0.1977,0.1977,0.1977,0.1977,0.1977,0.1977,0.1977,0.1977,0.1977,0.1977,0.1977,0.1977,0.1977,0.1977,0.1977,0.1977,0.1853,0.1481,0.1606,0.1111,0.0,-0.037,-0.1231,-0.2461,-0.2461,-0.2584,0.0,-0.2858,0.0,-0.3711,-0.3928,0.0,0.0,0.0,-0.4714,-0.4714,-0.4779,-0.4834,-0.4834,-0.4834,-0.4834,-0.4834,-0.4834,-0.4834,-0.4834,-0.4834,-0.4834,-0.4834,-0.4834,-0.5138,-0.605,-0.6748,-0.7299,-0.7635,-0.8262,-0.8014,-0.6577,-0.6484,-0.6064,-0.5114,-0.512,-0.5163,-0.5251,-0.5339,-0.5382,-0.5382,-0.5382,-0.5382,-0.5382,-0.5382,-0.5382,-0.5382,-0.5382,-0.5043,-0.4592,-0.5156,-0.5043,-0.4592,-0.5156,-0.5382,-0.5392,-0.5471,-0.47,-0.3342,-0.2139,-0.0962,0.0362,0.1597,0.1977,0.1977,0.1977,0.1977,0.1977,0.1977,0.1977,0.1977,0.1977,0.1977,0.1977,0.1977,0.1977,0.1977,0.1977,0.1977,0.1977,0.1977,0.1977,0.1977,0.1977,0.1977,0.1977,0.1977,0.1977,0.1977,0.1977,0.1977,0.1977,0.1977,0.1977,0.1977,0.1977,0.1977,0.1977,0.1977,0.1977,0.1977,0.1977,0.1977,0.1358,0.0123,0.0741,0.0741,0.0,-0.1231,-0.2584,-0.3815,-0.3815,-0.4185,0.0,0.0,0.0,-0.3332,-0.3685,-0.3989,-0.4144,-0.4408,-0.4636,-0.4696,-0.4732,-0.4771,-0.4824,-0.4834,-0.4834,-0.4834,-0.4834,-0.4834,-0.4834,-0.4834,-0.4834,-0.4834,-0.5236,-0.5839,-0.6739,-0.7039,-0.7456,-0.8006,-0.7908,-0.7226,-0.6159,-0.6225,-0.5848,-0.502,-0.5077,-0.5153,-0.5243,-0.5335,-0.5382,-0.5382,-0.5043,-0.4817,-0.4817,-0.437,-0.4258,-0.4258,-0.4258,-0.437,-0.4479,-0.437,-0.4147,-0.3921,-0.4147,-0.4258,-0.4268,-0.4793,-0.3581,-0.1754,-0.1791,-0.0485,0.147,0.2094,0.2222,0.2099,0.2222,0.2345,0.2221,0.2099,0.2099,0.2222,0.2099,0.1977,0.1977,0.1977,0.1977,0.1977,0.1977,0.1977,0.1977,0.1977,0.1977,0.1977,0.1977,0.1977,0.1977,0.1977,0.1977,0.1977,0.1977,0.1977,0.1977,0.1977,0.1977,0.1977,0.1977,0.1977,0.1977,0.1977,0.1977,0.2099,0.2345,0.1729,0.1234,0.0986,-0.0247,-0.1479,-0.2461,-0.2217,-0.2833,-0.4555,-0.4063,-0.4086,-0.2497,0.0,0.0,0.0,0.0,-0.3654,-0.3928,0.0,-0.4426,-0.4547,-0.4645,-0.4726,-0.4781,-0.4816,-0.4834,-0.4834,-0.4834,-0.4834,-0.4834,-0.4834,-0.4834,-0.4834,-0.5238,-0.6039,-0.7138,-0.6939,-0.7138,-0.7935,-0.7238,0.0,-0.5639,-0.5701,-0.5535,-0.4926,-0.5014,-0.5106,-0.5198,-0.529,-0.5238,-0.5043,-0.4704,-0.4369,-0.4145,-0.3811,-0.3587,-0.3587,-0.3363,-0.3475,-0.3923,-0.3699,-0.3475,-0.3365,-0.3475,-0.3587,-0.3597,-0.3788,-0.2446,-0.0708,-0.0842,0.0489,0.2346,0.259,0.2468,0.2346,0.259,0.2714,0.259,0.2346,0.2468,0.259,0.2346,0.2346,0.2346,0.2346,0.2346,0.2346,0.2346,0.2099,0.1977,0.1977,0.1977,0.1977,0.1977,0.1977,0.1977,0.1977,0.1977,0.1977,0.1977,0.1977,0.1977,0.1977,0.1977,0.2099,0.2099,0.2223,0.2223,0.2223,0.1975,0.1851,0.1974,0.1111,0.0617,0.037,-0.0986,-0.2342,-0.3939,-0.308,-0.3328,-0.4558,-0.4088,-0.3892,0.0,0.0,0.0,0.0,0.0,0.0,-0.3736,0.0,-0.4071,-0.4251,-0.4502,-0.4692,-0.47,-0.4769,-0.4826,-0.483,-0.4832,-0.4834,-0.4834,-0.4834,-0.4834,-0.4834,-0.4834,-0.5436,-0.7036,-0.6439,-0.6342,-0.7138,-0.6439,-0.5639,-0.4834,-0.4834,-0.4834,-0.4834,-0.4924,-0.5014,-0.5102,-0.5198,-0.4956,-0.4475,-0.4479,-0.4145,-0.3587,-0.3587,-0.3587,-0.3475,-0.2917,-0.2693,-0.2693,-0.3253,-0.3253,-0.2693,-0.3365,-0.3589,-0.3491,-0.2671,-0.1411,-0.0118,0.0609,0.1848,0.2961,0.2961,0.2961,0.2961,0.2961,0.2961,0.2961,0.2961,0.2961,0.2961,0.2961,0.2961,0.2961,0.2961,0.2961,0.2961,0.2961,0.2469,0.1977,0.1977,0.1977,0.1977,0.1977,0.1977,0.1977,0.1977,0.1977,0.1977,0.1977,0.1977,0.1977,0.1977,0.1977,0.2099,0.2467,0.2467,0.2467,0.259,0.1851,0.1358,0.0989,0.0371,-0.0618,-0.1976,-0.136,-0.1977,-0.3825,-0.3822,-0.3821,-0.3825,-0.3886,-0.359,-0.2397,0.0,0.0,0.0,0.0,0.0,0.0,0.0,-0.3718,-0.3961,-0.4124,-0.4281,-0.4475,-0.4585,-0.4667,-0.4732,-0.4794,-0.4834,-0.4834,-0.4834,-0.4834,-0.4834,-0.5338,-0.5842,-0.6242,-0.6142,-0.6142,0.0,-0.5536,-0.5035,-0.4834,-0.4834,-0.4834,-0.4834,-0.4924,-0.4983,-0.501,-0.4732,-0.4486,-0.4397,-0.3567,-0.3141,-0.2917,-0.2467,-0.2243,-0.2243,-0.2131,-0.202,-0.202,-0.2243,-0.2243,-0.202,-0.2243,-0.226,-0.229,-0.2569,-0.1421,0.024,0.0,0.1233,0.3085,0.3332,0.3208,0.3085,0.3332,0.3332,0.3332,0.3085,0.3208,0.3332,0.3085,0.2961,0.2961,0.2961,0.2961,0.2961,0.2961,0.2838,0.2592,0.2468,0.2345,0.2345,0.2099,0.1977,0.2223,0.2592,0.2591,0.2468,0.2716,0.2468,0.2468,0.2716,0.2468,0.2221,0.1849,0.1726,0.2221,0.346,0.1621,0.0501,0.0502,-0.0253,-0.0892,-0.1019,-0.1529,-0.2039,-0.2547,-0.2494,-0.2731,-0.3262,-0.2832,-0.2485,0.0,0.0,0.0,0.0,0.0,0.0,-0.2908,-0.3203,0.0,0.0,-0.3863,-0.4038,-0.4232,-0.4373,-0.4487,-0.4579,-0.47,-0.4794,-0.4828,-0.4834,-0.4834,-0.4834,-0.5238,-0.5739,-0.6439,-0.5939,-0.5739,-0.6439,-0.5436,-0.4834,-0.4834,-0.4834,-0.4834,-0.4834,-0.4685,-0.4625,-0.4663,-0.4154,-0.3795,-0.3605,-0.3004,-0.2581,-0.2356,-0.1908,-0.1795,-0.1795,-0.1795,-0.1795,-0.1795,-0.1795,-0.1795,-0.1795,-0.1795,-0.1813,-0.1844,-0.1872,-0.107,0.0241,0.0613,0.1603,0.2838,0.3455,0.3579,0.3455,0.358,0.3703,0.358,0.3455,0.3455,0.358,0.3455,0.3332,0.3332,0.3332,0.3332,0.3332,0.3332,0.3332,0.3085,0.2714,0.2714,0.2715,0.2592,0.247,0.2592,0.2961,0.2714,0.2714,0.3085,0.2961,0.2838,0.2961,0.2467,0.1973,0.1726,0.124,0.1494,0.2368,0.0758,-0.0255,-0.0255,-0.1027,-0.1419,-0.129,-0.1805,-0.2064,-0.2064,-0.203,-0.2281,-0.2572,-0.2224,-0.2116,-0.2033,-0.1857,0.0,0.0,-0.204,0.0,-0.2634,-0.2924,-0.3187,0.0,-0.3636,-0.384,-0.3942,-0.4106,-0.4253,-0.4346,-0.4522,-0.4689,-0.4804,-0.4828,-0.4834,-0.4834,-0.4834,-0.5436,-0.6939,-0.5737,-0.5434,-0.6939,-0.5634,-0.4834,-0.4834,-0.4734,-0.4734,-0.4734,-0.4234,-0.3964,-0.4135,-0.3577,-0.3106,-0.2619,-0.2553,-0.2353,-0.1795,-0.1795,-0.1795,-0.1795,-0.1795,-0.1795,-0.1795,-0.1795,-0.1795,-0.1795,-0.1795,-0.1815,-0.1733,-0.082,-0.0476,-0.0121,0.1595,0.222,0.2467,0.3332,0.3703,0.3703,0.3703,0.3826,0.3951,0.3951,0.3951,0.3951,0.3951,0.3951,0.3951,0.3951,0.3951,0.3951,0.3951,0.3703,0.3455,0.3208,0.3085,0.3085,0.3332,0.3208,0.3085,0.3085,0.2838,0.2837,0.3332,0.3209,0.3085,0.2961,0.1973,0.1481,0.173,0.0876,0.0252,0.0126,-0.0385,-0.0905,-0.1163,-0.1813,-0.2074,-0.2074,-0.2074,-0.2074,-0.2074,-0.2071,-0.2082,-0.2109,-0.2112,-0.2129,-0.202,-0.1902,-0.1922,-0.1926,0.0,0.0,-0.2259,-0.2468,-0.2657,0.0,-0.316,-0.3299,-0.3465,-0.3638,-0.3787,-0.3879,-0.4106,-0.4377,-0.4689,-0.4792,-0.4834,-0.4834,-0.4834,-0.5135,-0.6139,-0.5338,-0.5236,-0.6142,-0.5336,-0.4834,-0.4834,-0.4433,-0.4133,-0.4133,-0.3632,-0.3337,-0.3349,-0.2893,-0.263,-0.2464,-0.218,-0.1882,-0.1795,-0.1795,-0.1795,-0.1795,-0.1795,-0.1795,-0.1795,-0.1795,-0.1795,-0.1795,-0.1795,-0.1828,-0.1878,-0.1648,-0.1079,-0.0368,0.0,0.0616,0.1356,0.148,0.2097,0.2714,0.2714,0.3332,0.3951,0.3951,0.3951,0.3951,0.3951,0.3951,0.3951,0.3951,0.3951,0.3951,0.3951,0.3828,0.3826,0.3703,0.358,0.3332,0.3332,0.3332,0.3455,0.3703,0.3455,0.3332,0.3703,0.2838,0.2343,0.259,0.148,0.0495,0.0,-0.0252,-0.0634,-0.154,-0.1693,-0.1838,-0.1838,-0.2124,-0.2137,-0.2137,-0.2137,-0.2137,-0.2137,-0.2112,-0.2104,-0.211,-0.2134,-0.2149,-0.1872,-0.1597,-0.1547,-0.1546,0.0,0.0,0.0,-0.212,-0.248,-0.2812,-0.2957,-0.3105,-0.3381,-0.3467,-0.3526,-0.3618,-0.3895,-0.4146,-0.4285,-0.4534,-0.4704,-0.4704,-0.4704,-0.5014,-0.5854,-0.5266,-0.479,-0.5033,-0.4636,-0.4332,-0.4033,-0.3732,-0.3632,-0.3632,-0.3128,-0.2826,-0.2826,-0.2365,-0.2094,-0.2131,-0.1843,-0.1765,-0.1795,-0.1795,-0.1795,-0.1795,-0.1795,-0.1795,-0.1795,-0.1795,-0.1795,-0.1795,-0.1795,-0.1832,-0.1886,-0.1886,-0.1683,-0.1234,-0.0617,-0.0123,0.037,0.148,0.2097,0.259,0.3085,0.3579,0.3951,0.3951,0.3951,0.3951,0.3951,0.3951,0.3951,0.3951,0.3951,0.3951,0.3951,0.3951,0.3703,0.3332,0.3085,0.3085,0.3579,0.3703,0.3703,0.3828,0.3703,0.3332,0.259,0.1849,0.1603,0.1726,0.074,-0.0124,-0.0504,-0.1016,-0.154,-0.2084,-0.2115,-0.2132,-0.2132,-0.2146,-0.2155,-0.2155,-0.2155,-0.2155,-0.2155,-0.2139,-0.2132,-0.2132,-0.2148,-0.2155,0.0,0.0,0.0,0.0,0.0,-0.1491,0.0,0.0,0.0,-0.2572,-0.2718,0.0,0.0,0.0,0.0,0.0,0.0,0.0,0.0,-0.4042,0.0,-0.4463,-0.45,-0.4924,-0.5764,-0.5186,-0.4564,-0.4002,-0.3971,-0.3676,-0.3228,-0.313,-0.3029,-0.3029,-0.2522,-0.222,-0.222,-0.1846,-0.1671,-0.1705,-0.1729,-0.176,-0.1795,-0.1795,-0.1795,-0.1795,-0.1795,-0.1795,-0.1795,-0.1795,-0.1795,-0.1795,-0.1795,-0.1832,-0.1886,-0.1886,-0.1924,-0.1853,-0.0863,-0.0616,-0.0493,0.1356,0.2097,0.2466,0.358,0.3951,0.3951,0.3951,0.3951,0.3951,0.3951,0.3951,0.3951,0.3951,0.3951,0.3951,0.3951,0.3703,0.3455,0.259,0.2467,0.2714,0.3455,0.3455,0.3455,0.3826,0.358,0.259,0.0617,0.037,0.0493,0.074,-0.0247,-0.0748,-0.0759,-0.1541,-0.2086,-0.2116,-0.2141,-0.2155,-0.2155,-0.2155,-0.2155,-0.2155,-0.2155,-0.2155,-0.2155,-0.2155,-0.2155,-0.2155,-0.2155,-0.2155,0.0,0.0,0.0,0.0,-0.122,0.0,0.0,0.0,-0.1765,-0.1968,0.0,0.0,0.0,0.0,0.0,0.0,0.0,0.0,-0.2899,-0.311,-0.343,-0.3984,-0.4234,-0.4692,-0.5507,-0.5424,-0.4906,-0.4009,-0.3657,-0.3473,-0.3218,-0.2725,-0.2522,-0.2522,-0.202,-0.1718,-0.1718,-0.162,-0.165,-0.1704,-0.1707,-0.174,-0.1795,-0.1795,-0.1795,-0.1795,-0.1795,-0.1795,-0.1795,-0.1795,-0.1795,-0.1795,-0.1795,-0.1832,-0.1886,-0.1886,-0.1924,-0.1853,-0.0863,-0.111,-0.1605,-0.0493,0.0493,0.148,0.3332,0.3951,0.3951,0.3951,0.3951,0.3951,0.3951,0.3951,0.3951,0.3951,0.3951,0.3951,0.3951,0.3209,0.259,0.2467,0.222,0.222,0.259,0.1973,0.1973,0.358,0.2466,0.0617,-0.1358,-0.1606,-0.1358,-0.037,-0.1248,-0.1899,-0.1927,-0.2086,-0.2117,-0.2148,-0.2153,-0.2155,-0.2155,-0.2155,-0.2155,-0.2155,-0.2155,-0.2155,-0.2155,-0.2155,-0.2155,-0.2155,-0.2155,-0.2155,0.0,0.0,0.0,0.0,0.0,0.0,-0.122,0.0,-0.161,0.0,0.0,0.0,0.0,0.0,0.0,0.0,-0.2128,0.0,0.0,0.0,-0.2916,0.0,0.0,0.0,-0.4556,-0.4679,-0.4362,-0.3397,-0.3082,-0.2741,-0.2276,-0.2086,-0.1897,-0.1918,-0.1718,-0.1617,-0.1617,-0.1617,-0.1646,-0.1704,-0.1704,-0.1736,-0.1795,-0.1795,-0.1795,-0.1795,-0.1795,-0.1795,-0.1795,-0.1795,-0.1795,-0.1797,-0.1814,-0.1848,-0.1886,-0.1886,-0.1924,-0.1853,-0.0863,-0.111,-0.1729,-0.0123,0.148,0.2837,0.3703,0.3951,0.3951,0.3951,0.3951,0.3951,0.3951,0.3951,0.3951,0.3951,0.3951,0.3951,0.3951,0.3208,0.2467,0.2467,0.1973,0.1603,0.2343,0.1973,0.1726,0.2097,0.1233,-0.0124,-0.1757,-0.2011,-0.1888,-0.1518,-0.1782,-0.2057,-0.2088,-0.2102,-0.2122,-0.2153,-0.2155,-0.2155,-0.2155,-0.2155,-0.2155,-0.2155,-0.2155,-0.2155,-0.2155,-0.2155,-0.2155,-0.2155,-0.2155,-0.2155,-0.144,0.0,0.0,0.0,0.0,0.0,0.0,0.0,0.0,0.0,0.0,0.0,0.0,0.0,0.0,0.0,0.0,-0.1905,0.0,0.0,0.0,0.0,0.0,0.0,0.0,-0.3674,-0.3357,-0.2691,-0.2501,-0.2109,-0.1648,-0.1567,-0.1585,-0.1615,-0.1617,-0.1617,-0.1617,-0.1617,-0.1646,-0.1704,-0.1704,-0.1736,-0.1795,-0.1795,-0.1795,-0.1795,-0.1795,-0.1795,-0.1795,-0.1795,-0.1795,-0.1798,-0.1828,-0.1859,-0.1887,-0.1895,-0.181,-0.1481,-0.0493,-0.037,-0.0494,0.0986,0.2343,0.358,0.3826,0.3951,0.3951,0.3951,0.3951,0.3951,0.3951,0.3951,0.3951,0.3951,0.3951,0.3951,0.3951,0.2961,0.222,0.2467,0.148,0.0986,0.1726,0.148,0.1235,0.0745,0.0,-0.0877,-0.1918,-0.2052,-0.2055,-0.2063,-0.2071,-0.2085,-0.2108,-0.2117,-0.2131,-0.2153,-0.2155,-0.2155,-0.2155,-0.2155,-0.2155,-0.2155,-0.2155,-0.2155,-0.2155,-0.2155,-0.2155,-0.2155,-0.2155,-0.2155,0.0,0.0,0.0,-0.1228,0.0,0.0,0.0,0.0,-0.119,0.0,0.0,0.0,0.0,0.0,0.0,0.0,0.0,0.0,0.0,0.0,0.0,0.0,0.0,0.0,0.0,-0.2417,-0.2248,0.0,-0.1902,-0.1636,-0.1516,-0.1555,-0.1585,-0.1615,-0.1617,-0.1617,-0.1617,-0.1617,-0.1646,-0.1704,-0.1704,-0.1736,-0.1795,-0.1795,-0.1795,-0.1795,-0.1795,-0.1795,-0.1795,-0.1795,-0.1795,-0.1798,-0.1828,-0.1859,-0.1889,-0.1919,-0.1339,-0.037,0.0616,0.1603,0.2343,0.2466,0.2467,0.2714,0.358,0.3951,0.3951,0.3951,0.3951,0.3951,0.3951,0.3951,0.3951,0.3951,0.3951,0.3951,0.3951,0.2343,0.1356,0.2343,0.1109,0.0,0.0123,-0.0247,-0.0372,-0.0127,-0.1143,-0.192,-0.2089,-0.2093,-0.2086,-0.2066,-0.209,-0.2108,-0.2109,-0.2136,-0.2154,-0.2155,-0.2155,-0.2155,-0.2155,-0.2155,-0.2155,-0.2155,-0.2155,-0.2155,-0.2155,-0.2155,-0.2155,-0.2155,-0.2155,-0.2155,0.0,0.0,-0.1513,-0.1331,0.0,0.0,0.0,0.0,0.0,0.0,0.0,0.0,0.0,0.0,0.0,0.0,0.0,0.0,0.0,0.0,0.0,0.0,0.0,0.0,0.0,0.0,0.0,-0.1994,-0.1782,0.0,-0.1486,-0.1525,-0.1555,-0.1585,-0.1607,-0.1617,-0.1617,-0.1617,-0.1646,-0.1704,-0.1704,-0.1736,-0.1795,-0.1795,-0.1795,-0.1795,-0.1795,-0.1795,-0.1795,-0.1795,-0.1795,-0.18,-0.1851,-0.1525,-0.0944,-0.0959,-0.073,-0.037,0.0616,0.2097,0.3332,0.2714,0.2961,0.3455,0.3826,0.3951,0.3951,0.3951,0.3951,0.3951,0.3951,0.3951,0.3951,0.3951,0.3951,0.3951,0.3951,0.2838,0.222,0.3209,0.1973,0.0866,0.15,0.0375,-0.0754,-0.1269,-0.179,-0.2067,-0.21,-0.2104,-0.211,-0.2123,-0.2133,-0.2139,-0.2139,-0.2148,-0.2155,-0.2155,-0.2155,-0.2155,-0.2155,-0.2155,-0.2155,-0.2155,-0.2155,-0.2155,-0.2155,-0.2155,-0.2155,-0.2155,-0.2155,-0.2155,-0.1532,-0.1549,0.0,-0.1398,-0.1371,0.0,-0.1187,0.0,-0.1258,0.0,0.0,0.0,0.0,0.0,0.0,0.0,0.0,0.0,0.0,-0.1101,0.0,0.0,0.0,0.0,0.0,0.0,-0.1718,-0.1649,-0.1575,0.0,0.0,-0.1492,-0.154,-0.157,-0.1601,-0.1617,-0.1617,-0.1617,-0.1646,-0.1704,-0.1704,-0.1736,-0.1795,-0.1795,-0.1795,-0.1795,-0.1795,-0.1795,-0.1795,-0.1795,-0.1802,-0.1816,-0.1866,-0.1538,-0.0952,-0.0604,0.0,0.0616,0.1356,0.259,0.3826,0.3208,0.3455,0.3951,0.3951,0.3951,0.3951,0.3951,0.3951,0.3951,0.3951,0.3951,0.3951,0.3951,0.3951,0.3951,0.3951,0.2838,0.222,0.3208,0.1486,0.0249,0.1259,0.0,-0.1155,-0.1416,-0.1813,-0.2091,-0.2121,-0.2125,-0.2133,-0.2153,-0.2155,-0.2155,-0.2155,-0.2155,-0.2155,-0.2155,-0.2155,-0.2155,-0.2155,-0.2155,-0.2155,-0.2155,-0.2155,-0.2155,-0.2155,-0.2155,-0.2155,-0.2155,-0.2155,-0.2155]},{"header":{"parameterUnit":"m.s-1","parameterCategory":1,"la1":30.6,"la2":29.2853,"lo1":-89.7004,"lo2":-87.6739,"dy":0.0162,"dx":0.0183,"nx":112,"ny":82,"refTime":"2024-06-09T12:00:00:Z","depth":0,"parameterNumber":3,"parameterNumberName":"V-component_of_WINDS"},"data":[0.0,0.0,0.0,0.0,0.0,0.0,0.0,0.0,0.0,0.0,0.0,0.0,0.0,0.0,0.0,0.0,0.0,0.0,0.0,0.0,0.0,0.0,0.0,0.0,0.0,0.0,0.0,0.0,0.0,0.0,0.0,0.0,0.0,0.0,0.0,0.0,0.0,0.0,0.0,0.0,0.0,0.0,0.0,0.0,0.0,0.0,0.0,0.0,0.0,0.0,0.0,0.0,0.0,0.0,0.0,0.0,0.0,0.0,0.0,0.0,0.0,0.0,0.0,0.0,0.0,0.0,0.0,0.0,0.0,0.0,0.0,0.0,0.0,0.0,0.0,0.0,0.0,0.0,0.0,0.0,0.0,0.0,0.0,0.0,0.0,0.0,0.0,0.0,0.0,0.0,2.3816,2.6883,2.9237,3.0539,3.0439,2.952,2.7857,2.5256,0.0,0.0,0.0,0.0,0.0,0.0,0.0,0.0,0.0,0.0,0.0,0.0,0.0,0.0,0.0,0.0,0.0,0.0,0.0,0.0,0.0,0.0,0.0,0.0,0.0,0.0,0.0,0.0,0.0,0.0,0.0,0.0,0.0,0.0,0.0,0.0,0.0,0.0,0.0,0.0,0.0,0.0,0.0,0.0,0.0,0.0,0.0,0.0,0.0,0.0,0.0,0.0,0.0,0.0,0.0,0.0,0.0,0.0,0.0,0.0,0.0,0.0,0.0,0.0,0.0,0.0,0.0,0.0,0.0,0.0,0.0,0.0,0.0,0.0,0.0,0.0,0.0,0.0,0.0,0.0,0.0,0.0,0.0,0.0,0.0,0.0,0.0,0.0,0.0,0.0,0.0,0.0,0.0,0.0,0.0,0.0,0.0,0.0,0.0,0.0,0.0,0.0,0.0,0.0,2.3756,2.8495,2.9901,3.0519,3.0491,2.8871,2.7071,2.5225,0.0,0.0,0.0,0.0,0.0,0.0,0.0,0.0,0.0,0.0,0.0,0.0,0.0,0.0,0.0,0.0,0.0,0.0,0.0,0.0,0.0,0.0,0.0,0.0,0.0,0.0,0.0,0.0,0.0,0.0,0.0,0.0,0.0,0.0,0.0,0.0,0.0,0.0,0.0,0.0,0.0,0.0,0.0,0.0,0.0,0.0,0.0,0.0,0.0,0.0,0.0,0.0,0.0,0.0,0.0,0.0,0.0,0.0,0.0,0.0,0.0,0.0,0.0,0.0,0.0,0.0,0.0,0.0,0.0,0.0,0.0,0.0,0.0,0.0,0.0,0.0,0.0,0.0,0.0,0.0,0.0,0.0,0.0,0.0,0.0,0.0,0.0,0.0,0.0,0.0,0.0,0.0,0.0,0.0,0.0,0.0,0.0,0.0,0.0,0.0,0.0,0.0,0.0,2.3185,2.5893,2.9644,3.0324,3.0472,3.0414,2.8683,2.6873,2.5146,2.2266,0.0,0.0,0.0,0.0,0.0,0.0,0.0,0.0,0.0,0.0,0.0,0.0,0.0,0.0,0.0,0.0,0.0,0.0,0.0,0.0,0.0,0.0,0.0,0.0,0.0,0.0,0.0,0.0,0.0,0.0,0.0,0.0,0.0,0.0,0.0,0.0,0.0,0.0,0.0,0.0,0.0,0.0,0.0,0.0,0.0,0.0,0.0,0.0,0.0,0.0,0.0,0.0,0.0,0.0,0.0,0.0,0.0,0.0,0.0,0.0,0.0,0.0,0.0,0.0,0.0,0.0,0.0,0.0,0.0,0.0,0.0,0.0,0.0,0.0,0.0,0.0,0.0,0.0,0.0,0.0,0.0,0.0,0.0,0.0,0.0,0.0,0.0,0.0,0.0,0.0,0.0,0.0,0.0,0.0,0.0,0.0,0.0,0.0,0.0,0.0,0.0,0.0,2.6132,2.7954,3.035,3.054,3.0439,3.0305,2.8433,2.661,2.5105,2.1661,0.0,0.0,0.0,0.0,0.0,0.0,0.0,0.0,0.0,0.0,0.0,0.0,0.0,0.0,0.0,0.0,0.0,0.0,0.0,0.0,0.0,0.0,0.0,0.0,0.0,0.0,0.0,0.0,0.0,0.0,0.0,0.0,0.0,0.0,0.0,0.0,0.0,0.0,0.0,0.0,0.0,0.0,0.0,0.0,0.0,0.0,0.0,0.0,0.0,0.0,0.0,0.0,0.0,0.0,0.0,0.0,0.0,0.0,0.0,0.0,0.0,0.0,0.0,0.0,0.0,0.0,0.0,0.0,0.0,0.0,0.0,0.0,0.0,0.0,0.0,0.0,0.0,0.0,0.0,0.0,0.0,0.0,0.0,0.0,0.0,0.0,0.0,0.0,0.0,0.0,0.0,0.0,0.0,0.0,0.0,0.0,0.0,0.0,0.0,0.0,0.0,0.0,2.6048,2.8748,3.0416,3.0482,3.0378,3.0305,2.7845,2.592,2.5048,2.1093,0.0,0.0,0.0,0.0,0.0,0.0,0.0,0.0,0.0,0.0,0.0,0.0,0.0,0.0,0.0,0.0,0.0,0.0,0.0,0.0,0.0,0.0,0.0,0.0,0.0,0.0,0.0,0.0,0.0,0.0,0.0,0.0,0.0,0.0,0.0,0.0,0.0,0.0,0.0,0.0,0.0,0.0,0.0,0.0,0.0,0.0,0.0,0.0,0.0,0.0,0.0,0.0,0.0,0.0,0.0,0.0,0.0,0.0,0.0,0.0,0.0,0.0,0.0,0.0,0.0,0.0,0.0,0.0,0.0,0.0,0.0,0.0,0.0,0.0,0.0,0.0,0.0,0.0,0.0,0.0,0.0,0.0,0.0,0.0,0.0,0.0,0.0,0.0,0.0,0.0,0.0,0.0,0.0,0.0,0.0,0.0,0.0,0.0,0.0,0.0,0.0,0.0,2.5834,2.8124,0.0,3.0528,3.0433,3.0371,2.8425,2.6599,2.5215,0.0,0.0,0.0,0.0,0.0,0.0,0.0,0.0,0.0,0.0,0.0,0.0,0.0,0.0,0.0,0.0,0.0,0.0,0.0,0.0,0.0,0.0,0.0,0.0,0.0,0.0,0.0,0.0,0.0,0.0,0.0,0.0,0.0,0.0,0.0,0.0,0.0,0.0,0.0,0.0,0.0,0.0,0.0,0.0,0.0,0.0,0.0,0.0,0.0,0.0,0.0,0.0,0.0,0.0,0.0,0.0,0.0,0.0,0.0,0.0,0.0,0.0,0.0,0.0,0.0,0.0,0.0,0.0,0.0,0.0,0.0,0.0,0.0,0.0,0.0,0.0,0.0,0.0,0.0,0.0,0.0,0.0,0.0,0.0,0.0,0.0,0.0,0.0,0.0,0.0,0.0,0.0,0.0,0.0,0.0,0.0,0.0,0.0,0.0,0.0,0.0,0.0,2.367,2.5984,2.8066,0.0,3.0546,3.0482,3.0409,2.8522,2.6611,2.4897,0.0,0.0,0.0,0.0,0.0,0.0,0.0,0.0,0.0,0.0,0.0,0.0,0.0,0.0,0.0,0.0,0.0,0.0,0.0,0.0,0.0,0.0,0.0,0.0,0.0,0.0,0.0,0.0,0.0,0.0,0.0,0.0,0.0,0.0,0.0,0.0,0.0,0.0,0.0,0.0,0.0,0.0,0.0,0.0,0.0,0.0,0.0,0.0,0.0,0.0,0.0,0.0,0.0,0.0,0.0,0.0,0.0,0.0,0.0,0.0,0.0,0.0,0.0,0.0,0.0,0.0,0.0,0.0,0.0,0.0,0.0,0.0,0.0,0.0,0.0,0.0,0.0,0.0,0.0,0.0,0.0,0.0,0.0,0.0,0.0,0.0,0.0,0.0,0.0,0.0,0.0,0.0,0.0,0.0,0.0,0.0,0.0,0.0,0.0,0.0,0.0,0.0,2.3762,2.6587,2.8837,3.0522,3.0576,3.0471,3.0398,2.7953,2.5695,0.0,0.0,0.0,0.0,0.0,0.0,0.0,0.0,0.0,0.0,0.0,0.0,0.0,0.0,0.0,0.0,0.0,0.0,0.0,0.0,0.0,0.0,0.0,0.0,0.0,0.0,0.0,0.0,0.0,0.0,0.0,0.0,0.0,0.0,0.0,0.0,0.0,0.0,0.0,0.0,0.0,0.0,0.0,0.0,0.0,0.0,0.0,0.0,0.0,0.0,0.0,0.0,0.0,0.0,0.0,0.0,0.0,0.0,0.0,0.0,0.0,0.0,0.0,0.0,0.0,0.0,0.0,0.0,0.0,0.0,0.0,0.0,0.0,0.0,0.0,0.0,0.0,0.0,0.0,0.0,0.0,0.0,0.0,0.0,0.0,0.0,0.0,0.0,0.0,0.0,0.0,0.0,0.0,0.0,0.0,0.0,0.0,0.0,0.0,0.0,0.0,0.0,0.0,2.4527,2.6844,2.8722,3.0449,3.0595,3.0558,3.055,2.8647,2.6718,2.5004,0.0,0.0,0.0,0.0,0.0,0.0,0.0,0.0,0.0,0.0,0.0,0.0,0.0,0.0,0.0,0.0,0.0,0.0,0.0,0.0,0.0,0.0,0.0,0.0,0.0,0.0,0.0,0.0,0.0,0.0,0.0,0.0,0.0,0.0,0.0,0.0,0.0,0.0,0.0,0.0,0.0,0.0,0.0,0.0,0.0,0.0,0.0,0.0,0.0,0.0,0.0,0.0,0.0,0.0,0.0,0.0,0.0,0.0,0.0,0.0,0.0,0.0,0.0,0.0,0.0,0.0,0.0,0.0,0.0,0.0,0.0,0.0,0.0,0.0,0.0,0.0,0.0,0.0,0.0,0.0,0.0,0.0,0.0,0.0,0.0,0.0,0.0,0.0,0.0,0.0,0.0,0.0,0.0,0.0,0.0,0.0,0.0,0.0,0.0,0.0,0.0,0.0,2.4921,2.7276,2.9201,3.0961,3.1081,3.1043,3.1032,2.904,2.7042,2.5329,0.0,0.0,0.0,0.0,0.0,0.0,0.0,0.0,0.0,0.0,0.0,0.0,0.0,0.0,0.0,0.0,0.0,0.0,0.0,0.0,0.0,0.0,0.0,0.0,0.0,0.0,0.0,0.0,0.0,0.0,0.0,0.0,0.0,0.0,0.0,0.0,0.0,0.0,0.0,0.0,0.0,0.0,0.0,0.0,0.0,0.0,0.0,0.0,0.0,0.0,0.0,0.0,0.0,0.0,0.0,0.0,0.0,0.0,0.0,0.0,0.0,0.0,0.0,0.0,0.0,0.0,0.0,0.0,0.0,0.0,0.0,0.0,0.0,0.0,0.0,0.0,0.0,0.0,0.0,0.0,0.0,0.0,0.0,0.0,0.0,0.0,0.0,0.0,0.0,0.0,0.0,0.0,0.0,0.0,0.0,0.0,0.0,0.0,0.0,0.0,0.0,0.0,2.5265,2.7938,3.0122,3.1918,3.1874,3.173,3.17,2.9264,2.702,2.5337,0.0,0.0,0.0,0.0,0.0,0.0,0.0,0.0,0.0,0.0,0.0,0.0,0.0,0.0,0.0,0.0,0.0,0.0,0.0,0.0,0.0,0.0,0.0,0.0,0.0,0.0,0.0,0.0,0.0,0.0,0.0,0.0,0.0,0.0,0.0,0.0,0.0,0.0,0.0,0.0,0.0,0.0,0.0,0.0,0.0,0.0,0.0,0.0,0.0,0.0,0.0,0.0,0.0,0.0,0.0,0.0,0.0,0.0,0.0,0.0,2.0386,0.0,0.0,0.0,0.0,0.0,0.0,0.0,0.0,0.0,0.0,0.0,0.0,0.0,0.0,0.0,0.0,0.0,0.0,0.0,0.0,0.0,0.0,0.0,0.0,0.0,0.0,0.0,0.0,0.0,0.0,0.0,0.0,0.0,0.0,0.0,0.0,0.0,0.0,0.0,0.0,0.0,2.6997,2.9259,3.1045,3.2768,3.2288,3.1845,3.1777,2.9879,2.798,2.6307,2.3414,0.0,0.0,0.0,0.0,0.0,0.0,0.0,0.0,0.0,0.0,0.0,0.0,0.0,0.0,0.0,0.0,0.0,0.0,0.0,0.0,0.0,0.0,0.0,0.0,0.0,0.0,0.0,0.0,0.0,0.0,0.0,0.0,0.0,0.0,0.0,0.0,0.0,0.0,0.0,0.0,0.0,0.0,0.0,0.0,0.0,0.0,0.0,0.0,0.0,0.0,0.0,0.0,0.0,0.0,0.0,0.0,0.0,0.0,0.0,0.0,2.2781,0.0,0.0,0.0,0.0,0.0,0.0,0.0,0.0,0.0,0.0,0.0,0.0,0.0,0.0,0.0,0.0,0.0,0.0,0.0,0.0,0.0,0.0,0.0,0.0,0.0,0.0,0.0,0.0,0.0,0.0,0.0,0.0,0.0,0.0,0.0,0.0,0.0,0.0,0.0,0.0,2.7639,3.0036,3.198,3.3689,3.3372,3.2861,3.2425,3.0683,2.907,2.7785,2.4913,0.0,0.0,0.0,0.0,0.0,0.0,0.0,0.0,0.0,0.0,0.0,0.0,0.0,0.0,0.0,0.0,0.0,0.0,0.0,0.0,0.0,0.0,0.0,0.0,0.0,0.0,0.0,0.0,0.0,0.0,0.0,0.0,0.0,0.0,0.0,0.0,0.0,0.0,0.0,0.0,0.0,0.0,0.0,0.0,0.0,0.0,0.0,0.0,0.0,0.0,0.0,0.0,0.0,2.9125,3.0302,3.167,3.0996,3.1089,3.1573,2.7924,2.6813,2.7374,2.4851,0.0,0.0,0.0,0.0,0.0,0.0,0.0,0.0,0.0,0.0,0.0,0.0,0.0,0.0,0.0,0.0,0.0,0.0,0.0,0.0,0.0,0.0,0.0,0.0,2.9683,2.9436,2.4369,0.0,0.0,0.0,0.0,0.0,0.0,0.0,0.0,0.0,0.0,0.0,2.8217,3.089,3.3057,3.4653,3.4533,3.4003,3.3112,3.1507,3.0124,2.9102,2.6425,2.4457,0.0,0.0,0.0,0.0,0.0,0.0,0.0,0.0,0.0,0.0,0.0,0.0,0.0,0.0,0.0,0.0,0.0,0.0,0.0,0.0,0.0,0.0,0.0,0.0,0.0,0.0,0.0,0.0,0.0,0.0,0.0,0.0,1.7727,1.9511,0.0,0.0,0.0,0.0,0.0,0.0,0.0,0.0,0.0,0.0,0.0,0.0,0.0,2.9238,3.0802,3.1789,3.2728,3.3602,3.4475,3.5009,3.5224,3.5113,3.5137,3.5215,3.4693,0.0,3.0135,2.8279,0.0,0.0,0.0,0.0,0.0,0.0,0.0,0.0,0.0,0.0,0.0,0.0,0.0,0.0,0.0,0.0,0.0,0.0,0.0,0.0,0.0,0.0,3.2086,3.2309,3.3063,3.3334,0.0,2.8753,2.588,2.4682,2.2869,0.0,0.0,0.0,0.0,0.0,0.0,0.0,3.0092,3.2674,3.4645,3.5613,3.5028,3.4175,3.3246,3.2203,3.0906,2.928,2.8692,2.7729,2.6169,2.4535,0.0,0.0,0.0,0.0,0.0,0.0,0.0,0.0,0.0,0.0,0.0,0.0,0.0,0.0,0.0,0.0,0.0,0.0,0.0,0.0,0.0,0.0,0.0,0.0,0.0,0.0,0.0,0.0,0.0,1.834,2.077,2.1474,2.1664,2.1374,0.0,0.0,0.0,0.0,0.0,0.0,0.0,0.0,0.0,3.0387,3.1657,3.2908,3.4127,3.499,3.5639,3.6028,3.7395,3.8034,3.8054,3.8544,3.8773,3.8773,3.8804,3.7674,3.5586,3.2895,3.1052,2.9747,0.0,0.0,0.0,0.0,2.811,2.9394,3.0753,3.0992,3.0564,2.9938,0.0,0.0,0.0,0.0,0.0,0.0,0.0,0.0,0.0,0.0,3.4623,3.5126,3.5852,3.6366,3.6085,3.4128,3.1493,0.0,2.7466,2.642,2.3645,0.0,0.0,0.0,0.0,2.9265,3.1919,3.3634,3.4923,3.5807,3.5527,3.4913,3.4011,3.3112,3.2039,3.0752,2.9747,2.8878,2.8144,2.65,2.4641,0.0,0.0,0.0,0.0,0.0,0.0,0.0,0.0,0.0,0.0,0.0,0.0,0.0,0.0,0.0,0.0,0.0,0.0,0.0,0.0,0.0,0.0,0.0,0.0,0.0,0.0,0.0,0.0,2.1367,2.3553,2.3277,2.4402,2.4528,0.0,0.0,0.0,0.0,0.0,0.0,2.9534,3.1042,3.2648,3.4362,3.5282,3.6261,3.7317,3.7987,3.8423,3.8695,4.001,4.0645,4.0687,4.1329,4.1647,4.1647,4.1655,4.1293,4.0421,3.7005,3.496,3.3813,3.2263,3.1644,3.165,3.1713,3.2405,3.3515,3.4861,3.5334,3.5154,3.4035,3.3355,3.2616,3.0665,0.0,0.0,0.0,0.0,3.2431,3.4544,3.5717,3.656,3.7424,3.8093,3.8559,3.8669,3.8155,3.6409,0.0,3.1751,3.0956,2.7254,0.0,0.0,0.0,0.0,3.1168,3.3131,3.428,3.5171,3.584,3.5857,3.5469,3.4572,3.3701,3.2802,3.1855,3.0432,2.9627,2.9631,2.818,2.6575,2.4873,0.0,0.0,0.0,0.0,0.0,0.0,0.0,0.0,0.0,0.0,0.0,0.0,0.0,0.0,0.0,0.0,0.0,0.0,0.0,0.0,0.0,0.0,0.0,0.0,0.0,0.0,0.0,0.0,0.0,2.5076,2.7217,0.0,0.0,0.0,0.0,2.9862,3.0777,3.202,3.3705,3.4712,3.6028,3.7709,3.8598,3.9841,4.148,4.1538,4.2039,4.2988,4.3085,4.3203,4.3306,4.3354,4.3371,4.3377,4.3446,4.3443,4.3131,3.9713,3.7302,3.5681,3.4834,3.4482,3.4491,3.4501,3.5534,3.6957,3.7044,3.7077,3.7194,3.7935,3.7008,3.5585,3.5441,3.4256,0.0,0.0,3.4902,3.5833,3.6725,3.7649,3.8572,3.9448,3.9695,3.9715,3.9721,3.9595,3.8941,0.0,3.4909,3.3239,3.2996,0.0,3.049,3.0456,3.1909,3.3072,3.3278,3.4789,3.5859,3.5903,3.5898,3.5514,3.4575,3.3708,3.2802,3.1855,3.1004,3.052,3.052,2.965,2.8354,2.6605,2.4892,0.0,0.0,0.0,0.0,0.0,0.0,0.0,0.0,0.0,0.0,0.0,0.0,0.0,0.0,0.0,0.0,0.0,0.0,0.0,0.0,0.0,0.0,0.0,0.0,0.0,0.0,0.0,0.0,2.8867,3.0384,0.0,3.0392,3.1463,3.2335,3.2675,3.4539,3.594,3.6573,3.8488,3.9832,4.0414,4.1292,4.2024,4.2622,4.2641,4.2825,4.3178,4.3738,4.4078,4.4238,4.4788,4.5074,4.5122,4.5129,4.4853,4.4269,4.3097,4.1592,3.9999,3.9744,3.9309,3.8893,3.9458,4.0032,4.0613,4.1142,4.1325,4.1286,4.1033,3.9773,3.8377,3.8377,3.754,3.6891,3.8311,3.8981,3.9565,4.0928,4.111,4.1013,4.1325,4.1013,4.0643,4.0643,4.0604,4.0402,3.9818,3.8001,3.6216,3.5187,3.4905,3.4633,3.4119,3.5002,3.5721,3.5735,3.6287,3.6455,3.5903,3.585,3.569,3.529,3.3992,3.3034,3.2667,3.1361,3.0354,2.9785,2.9476,2.8489,2.6721,2.5553,2.3427,0.0,0.0,0.0,0.0,0.0,0.0,0.0,0.0,0.0,0.0,0.0,0.0,0.0,0.0,0.0,0.0,0.0,0.0,0.0,0.0,0.0,0.0,0.0,0.0,0.0,0.0,3.0148,3.1504,3.3244,3.4192,3.3857,3.4918,3.5864,3.6466,3.8139,3.9262,3.9596,4.1226,4.2244,4.2533,4.309,4.3532,4.3857,4.3857,4.3855,4.3924,4.4501,4.4851,4.4987,4.5568,4.588,4.5966,4.5966,4.5696,4.5278,4.5312,4.4651,4.3559,4.3046,4.2499,4.2047,4.2622,4.2825,4.2873,4.3426,4.359,4.3518,4.2949,4.2017,4.112,4.1081,4.0691,4.0452,4.1623,4.1948,4.2202,4.3305,4.3169,4.2747,4.2747,4.2338,4.1948,4.1948,4.1948,4.187,4.1559,4.0045,3.8466,3.7403,3.741,3.7378,3.6826,3.7179,3.7497,3.7491,3.7502,3.7167,3.6323,3.6229,3.6066,3.5728,3.4157,3.3161,3.3112,3.1525,3.0217,2.934,2.9302,2.8489,2.6721,2.5592,2.4335,2.2965,0.0,0.0,0.0,0.0,0.0,0.0,0.0,0.0,0.0,0.0,0.0,0.0,0.0,0.0,0.0,0.0,0.0,0.0,0.0,0.0,0.0,0.0,0.0,2.7981,3.1427,3.3726,3.2937,3.5768,3.7465,3.6689,3.8135,3.9794,4.1418,4.1552,4.1953,4.2794,4.2851,4.3233,4.4036,4.4055,4.4456,4.5277,4.5297,4.536,4.5495,4.5495,4.5566,4.568,4.568,4.5766,4.5894,4.5894,4.6008,4.6196,4.6189,4.6206,4.6036,4.4403,4.3789,4.3785,4.3785,4.3737,4.3673,4.3673,4.3673,4.37,4.3761,4.3766,4.3724,4.3665,4.3615,4.3606,4.3623,4.3643,4.3643,4.3663,4.3663,4.3637,4.3637,4.3617,4.3598,4.3598,4.3598,4.3344,4.2494,4.1033,3.9902,3.9844,3.9143,3.8565,3.85,3.8416,0.0,3.8343,3.8336,3.8035,3.7208,3.7075,3.6697,3.5825,3.4235,3.3219,3.3112,3.1544,3.0255,2.9379,2.934,2.8528,2.6799,2.5136,2.4691,2.553,0.0,0.0,0.0,0.0,0.0,0.0,0.0,0.0,0.0,0.0,0.0,0.0,0.0,0.0,0.0,0.0,0.0,0.0,0.0,0.0,0.0,0.0,3.2248,3.2072,3.3589,3.5585,3.7906,3.9012,3.9967,4.096,4.1456,4.1953,4.2412,4.2985,4.3424,4.3673,4.4265,4.4704,4.4934,4.4934,4.5048,4.5297,4.5297,4.5317,4.536,4.536,4.5438,4.5547,4.5547,4.5632,4.5752,4.5761,4.5835,4.5978,4.6033,4.6105,4.6153,4.5753,4.559,4.5597,4.5585,4.5545,4.5495,4.5495,4.5495,4.5497,4.5501,4.5092,4.4565,4.454,4.41,4.3736,4.4351,4.4534,4.4689,4.5323,4.5019,4.454,4.454,4.4052,4.3598,4.3598,4.3598,4.352,4.3286,4.2864,4.2182,4.0955,4.0507,4.0317,4.0351,4.0215,0.0,3.9315,3.919,3.8869,3.8071,3.7946,3.7607,3.6792,3.5678,3.4468,3.3189,3.2077,3.1091,3.0288,3.023,2.9727,2.8606,2.6895,2.6122,0.0,0.0,0.0,0.0,0.0,0.0,0.0,0.0,0.0,0.0,0.0,0.0,0.0,0.0,0.0,0.0,0.0,0.0,0.0,0.0,0.0,0.0,3.3392,3.5716,3.6037,3.6729,3.8117,4.0521,4.1132,4.1858,4.3176,4.331,4.3443,4.3825,4.4284,4.4551,4.4551,4.501,4.5297,4.5297,4.5297,4.5297,4.5297,4.5297,4.5297,4.5297,4.5297,4.5339,4.5419,4.5419,4.5494,4.5626,4.5638,4.5736,4.5906,4.5987,4.6091,0.0,0.0,0.0,0.0,0.0,4.6289,4.6249,4.6249,4.6249,4.6249,4.623,4.5898,4.5488,4.5488,4.5134,4.4835,4.5305,4.5437,4.5552,4.6065,4.5825,4.5436,4.5436,4.5066,4.4695,4.4695,4.4695,4.4579,4.4228,4.415,0.0,4.233,4.1777,4.1434,4.1143,4.098,4.0704,4.0208,4.0082,3.9721,3.8878,3.8811,3.8471,3.7637,3.6426,0.0,0.0,0.0,3.199,3.1139,3.0772,0.0,0.0,0.0,0.0,0.0,0.0,0.0,0.0,2.8897,2.9371,0.0,0.0,0.0,0.0,0.0,0.0,0.0,0.0,0.0,0.0,0.0,0.0,0.0,0.0,0.0,0.0,3.632,3.8777,3.9583,4.0211,4.0882,4.1588,4.239,4.3212,4.4013,4.413,4.4475,4.5239,4.5297,4.5297,4.5297,0.0,0.0,0.0,0.0,4.5297,4.5297,4.5297,4.5297,4.5297,4.5297,4.5297,4.5317,4.5317,4.5381,4.5483,4.5571,4.5694,4.5883,4.6016,4.6084,4.6105,4.6245,4.63,4.6303,4.6301,4.6306,4.6306,4.6306,0.0,0.0,4.6306,4.63,4.6303,4.6303,4.6306,4.6288,4.6229,4.6215,4.6195,4.6195,4.6206,4.6203,4.6203,4.6196,4.6196,4.6196,4.6196,4.5962,4.5202,4.5053,4.4754,4.3814,4.298,4.2176,4.1357,4.1186,4.1077,4.0926,4.0849,4.0513,3.9755,0.0,0.0,3.8443,3.6985,3.6047,3.5839,3.4352,3.3064,3.2126,3.141,3.141,3.2222,3.2145,3.2532,3.3392,3.4253,3.4679,3.4621,3.2358,3.2483,0.0,0.0,0.0,0.0,0.0,0.0,0.0,0.0,0.0,0.0,0.0,0.0,0.0,0.0,0.0,3.5901,3.8446,4.0553,4.1308,4.2089,4.2636,4.2768,4.3175,4.3771,4.4569,4.4884,4.5125,4.5277,4.5297,4.5297,4.5297,4.5297,4.5297,4.5297,4.5297,4.5297,4.5297,4.5297,4.5297,4.5297,0.0,0.0,4.5398,4.5398,4.538,4.5419,4.5475,4.5594,4.5742,4.5829,4.5949,4.6105,4.6245,4.63,4.63,4.6306,4.6306,4.6306,4.6306,4.6306,4.6306,4.6303,4.63,4.63,4.6306,4.63,0.0,4.6278,4.623,4.62,4.62,4.6202,4.6206,4.6209,4.6196,4.6196,4.6196,4.6196,4.6157,4.5981,4.5949,4.5669,4.4785,4.3929,4.3065,4.219,4.2021,4.1721,4.1064,4.0878,4.0765,4.0634,4.0577,4.0214,3.94,3.9023,3.8227,3.6748,3.5753,3.4825,3.3924,3.375,3.406,3.493,3.4253,3.4331,3.5201,3.6013,3.6419,3.64,3.5916,3.5936,0.0,0.0,0.0,0.0,0.0,0.0,0.0,0.0,0.0,0.0,0.0,3.1839,0.0,0.0,3.7495,3.8358,4.0215,4.1694,4.2103,4.2816,4.3241,4.31,4.3627,4.4165,4.4561,4.4868,4.5045,4.5045,4.5213,4.5297,4.5297,4.5297,4.5297,4.5297,4.5297,4.5297,4.5297,4.5338,4.5338,4.5338,4.536,4.538,4.54,4.54,4.54,4.54,4.5476,4.553,4.5613,4.5737,4.5925,4.6105,4.6176,4.624,4.63,4.63,4.63,4.63,4.63,4.63,4.63,4.63,4.63,4.63,4.63,4.6309,4.6295,4.6303,4.6284,4.6249,4.6249,4.6223,4.6206,4.6191,4.6201,4.6197,4.6197,4.6192,4.6206,4.6206,4.6197,4.6065,4.5626,4.5192,4.4465,4.3187,4.2974,4.2643,4.1758,4.159,4.138,4.0943,4.0904,4.0713,4.0231,3.9805,3.8983,3.7676,3.7188,3.6767,3.6323,3.6303,3.6516,3.6942,3.6516,3.6516,3.6942,3.7793,3.8431,3.8856,3.9262,3.9243,0.0,0.0,0.0,0.0,0.0,0.0,0.0,0.0,2.9665,3.0769,3.3327,3.5614,3.6244,3.8136,3.9815,4.0552,4.1765,4.2625,4.2673,4.3177,4.3439,4.321,4.3877,4.4318,4.4318,4.4572,4.4726,4.4726,4.5023,4.5194,4.5194,4.5256,4.5394,4.5547,4.5547,4.5642,4.5816,4.5876,4.5916,4.5897,4.5898,4.5918,4.5918,4.5918,4.5918,4.5937,4.5975,4.6012,4.6011,4.6036,4.6135,4.629,4.615,4.6181,4.63,4.63,4.63,4.63,4.63,4.63,4.63,4.63,4.63,4.63,4.63,4.63,4.63,4.63,4.6295,4.6305,4.6307,4.6269,4.6226,4.6204,4.62,4.6195,4.6195,4.6209,4.6202,4.6202,4.6206,4.6222,4.6225,4.6222,4.5701,4.4153,4.3938,4.3603,4.2698,4.2549,4.2181,4.1268,4.1201,4.114,4.0865,4.0192,3.942,3.8605,3.8479,3.8392,3.8218,3.8199,3.8276,3.845,3.845,3.8547,3.8721,3.9572,4.0346,4.1042,4.1874,4.1912,2.1908,2.3317,2.52,2.7111,2.7467,2.8721,0.0,0.0,3.4457,3.6507,3.8414,3.9733,3.9825,4.1208,4.2365,4.2397,4.3143,4.3703,4.3656,4.3612,4.3579,4.3553,4.3836,4.4048,4.4048,4.4308,4.4438,4.4438,4.4701,4.4868,4.4868,4.5151,4.5642,4.643,4.6449,4.6854,4.768,4.772,4.772,4.772,4.7701,4.7721,4.7799,4.7799,4.7799,4.7798,4.7798,4.7798,4.7759,4.7137,4.6946,4.7008,4.636,4.6181,4.63,4.63,4.63,4.63,4.63,4.63,4.63,4.63,4.63,4.63,4.63,4.63,4.63,4.63,4.6303,4.629,4.6305,4.6288,4.6269,4.6207,4.62,4.6195,4.6195,4.6209,4.6202,4.6202,4.6254,4.63,4.6297,4.6286,4.5933,4.4918,4.4772,4.4473,4.3642,4.3431,4.305,4.2225,4.21,4.1766,4.1045,4.0827,4.0374,3.9518,3.94,3.9011,3.8237,3.8199,3.8566,3.934,3.934,3.9727,4.05,4.1313,4.1777,4.1893,4.2744,4.3111,2.5596,2.7091,2.8569,0.0,3.1458,3.2866,3.6115,3.6863,3.7326,3.8998,4.0661,4.1794,4.1794,4.2711,4.3441,0.0,4.3693,4.3869,4.3851,4.3786,4.3719,4.3719,4.3818,4.3832,4.3716,4.403,4.4221,4.4181,4.4503,4.4991,4.5594,4.5792,4.6345,4.7373,4.7392,4.7604,4.7988,4.8048,4.8068,4.8068,4.8068,4.8068,4.8087,4.8087,4.8106,4.8105,4.8105,4.8105,4.8086,4.7773,4.7712,4.7759,4.695,4.6746,4.6883,4.6468,4.63,4.63,4.63,4.63,4.63,4.63,4.63,4.63,4.6306,4.6303,4.63,4.6306,4.6303,4.6303,4.6297,4.6297,4.6297,4.6267,4.6269,4.6269,4.6269,4.6268,4.6264,4.6264,4.6286,4.6307,4.6307,4.6308,4.6171,4.5772,4.5714,4.5403,4.4569,4.4405,4.405,4.3198,4.2572,4.2095,4.1836,4.1253,4.076,4.0439,4.0324,4.0094,3.9727,3.9707,4.0094,4.0945,4.0945,4.1371,4.226,4.2589,4.3015,4.3518,4.3885,4.4311,2.79,2.9744,0.0,3.2924,3.4623,3.6292,3.7682,3.8631,3.9542,4.0677,4.1841,4.2656,4.2797,4.3237,4.3627,4.367,4.3781,4.3883,4.3929,4.3883,4.3837,4.3837,4.3804,4.3719,4.36,4.3846,4.4005,4.3961,4.4522,4.5205,4.593,4.6377,4.7118,4.8214,4.8314,4.8489,4.874,4.8779,4.8817,4.8817,4.8817,4.8817,4.8817,4.8817,4.8817,4.8817,4.8817,4.8817,4.8798,4.8567,4.854,4.857,4.77,4.75,4.7607,4.6883,4.6464,4.63,4.63,4.63,4.63,4.6303,4.6303,4.6306,4.6293,4.629,4.6309,4.6293,4.629,4.6309,4.6295,4.6293,4.6309,4.6295,4.63,4.6303,4.6303,4.6307,4.6308,4.6308,4.6308,4.6308,4.6308,4.6308,4.6308,4.6308,4.6308,4.6074,4.5449,4.5156,4.4766,4.4121,4.3186,4.265,4.2754,4.2076,4.1675,4.1699,4.1597,4.1528,4.1528,4.1492,4.1757,4.2357,4.2357,4.2667,4.3305,4.3537,4.3982,4.462,4.4833,4.5239,2.7591,0.0,3.3617,3.4407,3.632,3.8302,3.948,4.0399,4.1205,4.1986,4.2176,4.2331,4.2718,4.2816,4.2835,4.2835,4.3485,4.4005,4.4005,4.3961,4.3915,4.3915,4.3818,4.3804,0.0,4.3804,4.3804,4.3804,4.4774,4.5368,4.5436,4.6732,4.7886,4.8857,4.9118,4.9682,5.0606,5.0625,5.0606,5.0606,5.0606,5.0606,5.0606,5.0606,5.0606,5.0606,5.0606,5.0606,5.0548,4.9702,4.9446,4.9479,4.8609,4.8327,4.8386,4.7637,4.6903,4.63,4.63,4.63,4.6303,4.629,4.6293,4.6293,4.6293,4.6297,4.63,4.6295,4.6297,4.6301,4.6301,4.6301,4.6301,4.6301,4.6305,4.6307,4.6307,4.6308,4.6308,4.6308,4.6308,4.6308,4.6308,4.6308,4.6308,4.6308,4.6308,4.6289,4.6269,4.5527,4.498,4.4961,4.4179,4.3652,4.3652,4.3564,4.3528,4.3512,4.3401,4.3316,4.3316,4.3264,4.3247,4.3266,4.3266,4.3266,4.3305,4.4156,4.4581,4.462,4.5394,4.578,3.0228,0.0,3.5478,3.7303,3.8725,3.9993,4.1113,4.1848,4.2229,4.2203,4.1972,4.1693,4.1293,4.12,4.1367,4.1924,4.2686,4.3392,4.3912,4.3974,4.3974,4.3974,4.3961,0.0,0.0,0.0,0.0,4.3804,4.4753,4.5612,4.6282,4.7325,4.8469,4.972,4.9851,5.0155,5.0683,5.0702,5.0702,5.0702,5.0702,5.0702,5.0702,5.0702,5.0702,5.0702,5.0702,5.0702,5.0664,5.0375,5.0278,5.0235,4.9369,4.9103,4.9143,4.8409,4.8039,4.7733,4.6663,4.63,4.6303,4.629,4.6293,4.6295,4.6301,4.6303,4.6301,4.6303,4.6303,4.6301,4.6305,4.6303,4.6303,4.6305,4.6306,4.6307,4.6307,4.6308,4.6308,4.6308,4.6308,4.6308,4.6308,4.6308,4.6308,4.6308,4.6308,4.6308,4.6308,4.6035,4.5859,4.5859,4.5078,4.4551,4.4551,4.3976,4.359,4.359,4.3512,4.3447,4.3404,4.3382,4.3606,4.4156,4.4156,4.4427,4.4949,4.5239,4.5448,4.5534,4.5805,4.5966,3.2831,3.5174,3.7128,3.9217,4.0305,4.1024,4.1498,4.1868,4.1973,4.1282,4.0551,3.9941,3.9574,3.9027,3.9194,4.0903,4.1609,4.2407,4.3819,4.4005,4.4005,4.4005,4.4005,4.4005,0.0,0.0,0.0,4.3883,4.5018,4.6015,4.6638,4.7878,4.8974,4.9891,5.0111,5.0294,5.0504,5.0624,5.0702,5.0702,5.0702,5.0702,5.0702,5.0702,5.0702,5.0702,5.0702,5.0702,5.0683,5.0702,5.0683,5.0663,5.0105,4.9944,4.9939,4.92,4.8993,4.8872,4.7307,4.6758,4.6716,4.6395,4.6297,4.6297,4.6306,4.6307,4.6306,4.6307,4.6306,4.6306,4.6307,4.6307,4.6306,4.6307,4.6307,4.6307,4.6307,4.6308,4.6308,4.6308,4.6308,4.6308,4.6308,4.6308,4.6308,4.6308,4.6308,4.6308,4.6308,4.6308,4.6308,4.6308,4.5801,4.5469,4.5469,4.4918,4.4562,4.4562,4.4493,4.4448,4.4401,4.439,4.4608,4.5086,4.5134,4.5386,4.5861,4.591,4.5947,4.6036,4.6036,4.6072,3.5192,3.7018,3.8602,4.0147,4.1078,4.1411,4.0656,4.0731,4.0581,3.9282,3.8022,3.7195,0.0,0.0,3.6463,3.9677,4.0346,4.1293,4.367,4.4005,4.4023,0.0,0.0,0.0,0.0,0.0,0.0,4.4135,0.0,4.6513,4.655,4.8365,4.9384,4.9427,4.991,5.0183,5.0249,5.0544,5.0702,5.0702,5.0702,5.0702,5.0702,5.0702,5.0702,5.0702,5.0702,5.0702,5.0702,5.0702,5.0701,5.0701,5.0775,5.0793,5.0731,5.0018,4.9812,4.9662,4.8236,4.7666,4.7467,4.6637,4.6344,4.6303,4.6306,4.6308,4.6308,4.6307,4.6308,4.6308,4.6308,4.6308,4.6308,4.6308,4.6308,4.6308,4.6308,4.6308,4.6308,4.6308,4.6308,4.6308,4.6308,4.6308,4.6308,4.6308,4.6308,4.6308,4.6308,4.6308,4.6308,4.6308,4.6308,4.6308,4.6308,4.6308,4.6308,4.6308,4.6241,4.6206,4.6202,4.6137,4.6068,4.6007,4.606,4.606,4.6007,4.606,4.6105,4.6105,4.6105,4.6105,3.6367,3.8465,4.0112,4.1078,4.1464,4.1411,4.0656,4.0306,3.9473,3.703,3.5533,3.4255,0.0,0.0,0.0,3.7299,3.9695,0.0,4.3745,4.4005,0.0,4.4878,0.0,4.5194,4.5807,4.5862,0.0,0.0,4.6252,4.6754,4.7367,4.8453,4.922,4.9665,4.983,5.013,5.0565,5.0663,5.0702,5.0702,5.0702,5.0702,5.0702,5.0702,5.0702,5.0702,5.0702,5.0702,5.0683,5.0702,5.074,5.0775,5.0738,5.0793,5.0858,5.0775,5.0753,5.0641,4.9812,4.8688,4.7551,4.7341,4.6834,4.6307,4.6308,4.6308,4.6308,4.6308,4.6308,4.6308,4.6308,4.6308,4.6308,4.6308,4.6308,4.6308,4.6308,4.6308,4.6308,4.6308,4.6308,4.6308,4.6308,4.6308,4.6308,4.6308,4.6308,4.6308,4.6308,4.6308,4.6308,4.6308,4.6308,4.6308,4.6308,4.6308,4.6308,4.6308,4.6288,4.6243,4.6202,4.6175,4.6142,4.6068,4.6091,4.6091,4.6068,4.6091,4.6125,4.6167,4.6167,4.6202,3.8269,3.987,4.1078,4.1499,4.1358,4.0639,3.8848,3.8226,3.7057,3.3707,3.2401,0.0,3.0293,3.1191,0.0,0.0,0.0,0.0,4.3615,4.4321,4.4748,0.0,4.5602,0.0,4.6457,4.6494,4.6643,0.0,4.7033,4.7218,4.7683,4.8463,4.9141,4.9598,4.9749,5.0106,5.0683,5.0702,5.0702,5.0702,5.0702,5.0702,5.0702,5.0702,5.0721,5.074,0.0,5.074,5.0759,5.0777,5.0813,5.0846,5.0791,5.0825,5.0909,5.0985,5.1061,5.1045,5.0719,4.9718,4.856,4.8277,4.7831,4.7362,4.6992,4.6875,4.6797,4.6406,4.6308,4.6308,4.6308,4.6308,4.6308,4.6308,4.6308,4.6308,4.6308,4.6308,4.6308,4.6308,4.6308,4.6308,4.6308,4.6308,4.6308,4.6308,4.6308,4.6308,4.6308,4.6308,4.6308,4.6308,4.6308,4.6308,4.6308,4.6308,4.6308,4.6308,4.6308,4.6288,4.6241,4.6241,4.6209,4.6142,4.6167,4.6167,4.6142,4.6167,4.6206,4.6241,4.6241,4.6265,4.0307,4.1095,4.1604,4.1604,4.0955,3.9533,3.6535,3.5509,3.4096,3.0215,0.0,2.8957,2.8773,2.9109,3.0931,3.5609,0.0,3.9454,4.3448,4.4748,4.5342,4.5454,4.616,4.6698,4.681,4.6828,4.7107,4.7813,4.7868,4.7868,4.7868,4.8519,4.9061,4.9384,4.9693,5.0087,5.0624,5.0683,5.0702,5.0702,5.0702,5.0702,5.0701,5.0701,5.0738,5.0793,5.0793,5.0793,5.081,5.0863,5.0899,5.0899,5.0893,5.089,5.0906,5.0921,5.1004,5.1105,5.1097,5.0666,4.9951,4.9263,4.8962,4.8727,4.7966,4.7753,4.7617,4.6835,4.6543,4.6465,4.6465,4.6387,4.6308,4.6308,4.6308,4.6308,4.6308,4.6308,4.6308,4.6308,4.6308,4.6308,4.6308,4.6308,4.6308,4.6308,4.6308,4.6308,4.6308,4.6308,4.6308,4.6308,4.6308,4.6308,4.6308,4.6308,4.6308,4.6308,4.6308,4.6308,4.6308,4.6308,4.6268,4.6209,4.6267,4.6267,4.6209,4.6268,4.6308,4.6308,4.6308,4.6308,4.1095,4.1499,4.1604,4.1604,4.0551,3.8907,3.664,3.4604,0.0,0.0,2.7423,2.6602,2.5541,2.7567,3.0559,3.4048,3.7021,4.0085,4.3522,4.4748,4.5547,0.0,4.6995,4.7757,4.8426,4.8481,0.0,0.0,4.8686,4.8686,4.8686,4.8816,4.9061,4.9384,4.9884,5.0183,5.0294,5.0565,5.0702,5.0702,5.0702,5.0739,5.0793,5.0793,5.0793,5.0793,5.0793,0.0,5.0793,5.081,5.0846,5.0899,5.0916,5.0893,5.0921,5.103,5.1081,5.1117,5.1152,5.1089,5.0833,5.0004,4.9279,4.8701,4.8482,4.8548,4.8613,4.8365,4.7846,4.7363,4.7363,4.6836,4.6308,4.6308,4.6308,4.6308,4.6308,4.6308,4.6308,4.6308,4.6308,4.6308,4.6308,4.6308,4.6308,4.6308,4.6308,4.6308,4.6308,4.6308,4.6308,4.6308,4.6308,4.6308,4.6308,4.6308,4.6308,4.6308,4.6308,4.6308,4.6308,4.6308,4.6289,4.6288,4.6289,4.6289,4.6288,4.6289,4.6308,4.6308,4.6308,4.6308,4.1349,4.1604,4.1604,4.1604,4.013,3.7945,3.5031,0.0,0.0,0.0,2.5588,2.5208,2.4612,2.647,0.0,3.1857,3.4346,3.7373,4.1534,4.3206,0.0,4.629,4.7571,4.8481,0.0,4.8909,4.8909,4.8909,4.8909,4.8909,4.8909,4.9061,4.9315,4.9655,5.0062,5.0342,5.0527,5.0664,5.0739,5.0738,5.0738,5.0793,5.0846,5.0846,5.0844,5.0841,5.0841,5.0841,5.0841,5.0841,5.0877,5.0893,5.0893,5.0909,5.0906,5.0961,5.099,5.1004,5.103,5.1035,5.0977,5.0569,5.0228,4.9926,4.9477,4.9399,4.9385,4.8938,4.8553,4.8281,4.8281,4.7969,4.7539,4.707,4.6621,4.6308,4.6308,4.6308,4.6308,4.6308,4.6308,4.6308,4.6308,4.6308,4.6308,4.6308,4.6308,4.6308,4.6308,4.6308,4.6308,4.6308,4.6308,4.6308,4.6308,4.6308,4.6308,4.6308,4.6308,4.6308,4.6308,4.6308,4.6308,4.6308,4.6308,4.6308,4.6308,4.6308,4.6308,4.6308,4.6308,4.6308,4.1165,4.1481,4.1569,4.1394,3.9603,3.6925,3.3344,3.0897,0.0,0.0,2.4357,2.45,2.45,0.0,2.7511,0.0,3.1949,3.4717,3.9695,4.1924,4.3912,0.0,4.7924,0.0,4.8909,4.8909,0.0,4.8909,4.8993,4.9008,4.9008,4.9252,4.955,4.9891,5.0164,5.0446,5.072,5.0775,5.081,5.081,5.081,5.0846,5.0897,5.0897,5.0893,5.0906,5.0906,5.0906,5.0906,5.0906,5.0906,5.0906,5.0906,5.0906,5.0906,5.0906,5.0906,5.0906,5.0906,5.0906,5.0906,5.0906,5.103,5.107,5.0426,5.0265,5.0168,4.9585,4.9296,4.918,4.918,4.9043,4.873,4.8047,4.7363,4.6855,4.6855,4.6855,4.6797,4.6601,4.6582,4.6523,4.6328,4.6308,4.6308,4.6308,4.6308,4.6308,4.6308,4.6308,4.6308,4.6308,4.6308,4.6308,4.6308,4.6308,4.6308,4.6308,4.6308,4.6308,4.6308,4.6308,4.6308,4.6308,4.6308,4.6308,4.6308,4.6308,4.6308,4.6308,4.6308,4.6406,4.0358,4.1078,4.1446,4.0762,3.8831,3.6209,3.2751,0.0,0.0,2.5005,2.4482,2.45,2.45,2.5224,2.686,3.0095,0.0,3.4717,3.9695,4.2407,4.4544,4.629,0.0,0.0,4.8909,4.8909,0.0,4.8909,4.9182,4.9345,4.9345,4.9375,4.9561,4.9873,5.0214,5.0404,5.0425,5.0663,5.0846,5.0899,5.0899,5.0897,5.089,5.089,5.089,5.0906,5.0906,5.0906,0.0,5.0906,5.0906,5.0906,5.0906,5.0906,5.0906,5.0906,5.0906,5.0906,5.0906,5.0906,5.0906,5.0906,5.1004,5.1097,5.1011,5.1086,5.116,5.1105,5.0598,5.0078,5.0078,4.9492,4.8887,4.8808,4.8711,4.8652,4.8652,4.8652,4.8437,4.7637,4.748,4.7226,4.6445,4.6308,4.6307,4.6307,4.6305,4.6303,4.6303,4.6303,4.6303,4.6303,4.6307,4.6308,4.6308,4.6308,4.6308,4.6307,4.6308,4.6308,4.6307,4.6308,4.6308,4.6308,4.6308,4.6308,4.6308,4.6308,4.6308,4.6308,4.6308,4.6719,3.9445,4.0674,4.1411,4.0656,3.8501,3.5723,3.2629,0.0,2.7323,2.4986,2.45,2.45,2.45,2.476,2.5726,2.8013,2.8924,3.0872,3.5312,3.8061,4.0783,4.3955,4.6174,0.0,0.0,0.0,4.9283,4.9491,4.9617,4.9796,4.9997,4.9822,4.9848,5.0183,5.0327,5.049,5.0699,5.0825,5.0858,5.0893,5.0893,5.0909,5.0906,5.0906,5.0906,5.0906,5.0906,5.0906,0.0,5.0906,5.0906,5.0906,5.0906,5.0906,5.0906,5.0906,5.0906,5.0906,5.0906,5.0906,5.0906,5.0906,5.0952,5.0984,5.1122,5.1232,5.1301,5.1359,5.1151,5.0918,5.0918,5.0312,4.9687,4.9687,4.9277,4.8906,4.8906,4.8906,4.8808,4.8457,4.7969,4.748,4.7148,4.666,4.6307,4.6307,4.6305,4.6301,4.6301,4.6301,4.6303,4.6305,4.6306,4.6306,4.6306,4.6306,4.6306,4.6307,4.6307,4.6308,4.6308,4.6308,4.6308,4.6308,4.6308,4.6308,4.6308,4.6308,4.6308,4.6308,4.6836,4.7266,3.7795,3.9392,4.0393,3.9705,3.7683,3.508,0.0,2.9439,2.7114,2.4948,2.4517,2.4515,2.4498,2.4534,2.4981,2.6358,2.6972,2.87,3.2809,3.5504,3.8497,0.0,0.0,4.6731,0.0,4.904,4.9627,5.0024,5.0059,5.0183,5.0529,5.031,5.0289,5.0548,5.0548,5.0661,5.0906,5.0906,5.0906,5.0906,5.0906,5.0906,5.0906,5.0906,5.0906,5.0906,5.0906,5.0906,0.0,5.0906,5.0906,5.0906,5.0906,5.0906,5.0906,5.0906,5.0906,5.0906,5.0906,5.0906,5.0906,5.0906,5.0937,5.099,5.1132,5.1225,5.1284,5.134,5.1386,5.1406,5.1406,5.0976,5.0547,5.0547,5.0098,4.9648,4.9648,4.9648,4.957,4.9336,4.8789,4.8281,4.8027,4.7479,4.7067,4.7067,4.6848,4.6688,4.6688,4.6454,4.6297,4.6301,4.63,4.63,4.6305,4.6305,4.6305,4.6307,4.6307,4.6307,4.6308,4.6308,4.6308,4.6308,4.6308,4.6308,4.6308,4.6562,4.668,4.6719,4.7578,4.8125,3.5232,3.697,3.7993,3.7376,3.622,3.4253,3.0668,2.8772,2.7182,2.4966,2.4549,2.4564,2.4512,2.4547,2.486,2.5682,2.714,2.9617,3.3711,3.6359,0.0,0.0,0.0,4.5653,4.6549,4.842,4.9819,5.035,5.0392,0.0,5.089,5.089,5.089,5.089,5.089,5.089,5.0906,5.0906,5.0906,5.0906,5.0906,5.0906,5.0906,5.0906,5.0906,5.0906,5.0906,5.0906,0.0,5.0906,5.0906,5.0906,5.0906,5.0906,5.0906,5.0906,5.0906,5.0906,5.0906,5.0906,5.0906,5.0906,5.099,5.1105,5.1105,5.1142,5.1218,5.1284,5.1359,5.1406,5.1406,5.1387,5.1387,5.1387,5.1387,5.1367,5.1367,5.1367,5.1133,5.0332,5.0176,4.9902,4.9043,4.8884,4.8879,4.8879,4.8145,4.7588,4.7588,4.6827,4.63,4.63,4.63,4.6293,4.6308,4.6308,4.6307,4.6307,4.6308,4.6308,4.6301,4.6306,4.6307,4.6307,4.6307,4.6307,4.6308,4.7168,4.7598,4.7617,4.8476,4.9355,3.1977,3.3701,3.4978,3.391,3.2642,3.1074,2.8858,2.7366,2.6079,2.4828,2.4582,2.458,2.4564,2.4599,2.542,2.7923,2.9172,3.0924,0.0,0.0,0.0,4.1997,4.5819,4.8465,0.0,0.0,5.0306,5.0718,5.0752,5.0786,5.089,5.0906,5.0906,5.0906,5.0906,5.0906,5.0906,5.0906,5.0906,5.0906,5.0906,5.0906,5.0906,5.0906,5.0906,5.0906,5.0906,5.0906,5.0906,5.0906,5.0906,5.0906,5.0906,5.0906,5.0906,5.0906,5.0906,5.0906,5.0906,5.0906,5.0906,5.0906,5.0937,5.0976,5.1066,5.1187,5.1284,5.1359,5.1386,5.1406,5.1406,5.1404,5.1403,5.1403,5.1403,5.1403,5.1403,5.1403,5.1325,5.107,5.0542,5.0035,4.9761,4.9229,4.8833,4.8833,4.859,4.8427,4.8427,4.8174,4.7806,4.7243,4.7182,4.6947,4.6354,4.6293,4.6295,4.63,4.63,4.6301,4.6301,4.6303,4.6303,4.6303,4.6892,4.7186,4.7186,4.8065,4.8768,4.9312,4.9585,5.0191,0.0,3.0975,3.2072,3.1409,3.044,2.9219,2.7711,2.6581,2.5639,2.4783,2.4631,2.4647,2.4631,2.4647,2.5302,2.7361,2.8857,0.0,0.0,0.0,0.0,4.2652,0.0,0.0,0.0,5.0176,5.0587,5.0877,5.0909,5.0906,5.0906,5.0906,5.0906,5.0906,5.0906,5.0906,5.0906,5.0906,5.0906,5.0906,5.0906,5.0906,5.0906,5.0906,5.0906,5.0906,5.0906,5.0906,0.0,5.0906,5.0906,5.0906,5.0906,5.0906,5.0906,5.0906,5.0906,5.0906,5.0906,5.0906,5.0906,5.0906,5.0932,5.1011,5.1093,5.12,5.131,5.1386,5.1406,5.1406,5.1406,5.1404,5.1402,5.1402,5.14,5.1398,5.1398,5.1398,5.1398,5.1398,5.0969,5.0598,5.0598,5.0144,4.9788,4.9788,4.9508,4.9286,4.9286,4.8993,4.8607,4.8102,4.806,4.7822,4.7295,4.6655,4.6446,4.6764,4.6783,4.6922,4.7235,4.7235,4.7235,4.7235,4.7786,4.8061,4.8082,4.8941,4.9781,5.0598,5.0598,5.0871,0.0,2.8612,2.9286,2.9564,2.915,2.8347,2.6969,2.628,0.0,2.4781,2.466,2.4729,2.4867,2.4826,2.4895,2.5177,2.7264,0.0,0.0,3.5871,0.0,0.0,4.6372,0.0,4.9143,5.0106,5.07,5.089,5.0906,5.0906,5.0906,5.0906,5.0906,5.0906,5.0906,5.0906,5.0906,5.0906,5.0906,5.0906,5.0906,5.0906,5.0906,5.0906,5.0906,0.0,5.0906,5.0906,5.0906,5.0906,5.0906,5.0906,5.0906,5.0906,5.0906,5.0906,5.0906,5.0906,5.0906,5.0906,5.0906,5.0906,5.1011,5.1113,5.1172,5.126,5.1316,5.1386,5.1406,5.1406,5.1406,5.1405,5.1404,5.1404,5.14,5.1396,5.1396,5.1396,5.1396,5.1396,5.1396,5.1396,5.1396,5.1394,5.1408,5.1408,5.0718,5.0184,5.0184,4.9481,4.8954,4.8896,4.8896,4.8876,4.8818,4.7361,4.6822,4.7627,4.7686,4.8016,4.8772,4.8792,4.8792,4.8792,4.887,4.8951,4.9072,4.9834,5.0615,5.1396,5.1396,5.1396,2.5187,0.0,2.6303,2.6024,2.5834,2.5627,0.0,2.5107,2.4951,2.4714,2.4692,2.5102,2.6381,2.6115,2.6716,2.9852,0.0,0.0,3.6756,0.0,0.0,4.6224,4.8263,4.9625,4.9927,5.049,5.0858,5.089,5.0906,5.0906,5.0906,5.0906,5.0906,5.0906,5.0906,5.0906,5.0906,5.0906,5.0906,5.0906,5.0906,5.0906,5.0906,5.0906,5.0906,5.0906,5.0906,5.0906,5.0906,5.0906,5.0906,5.0906,5.0906,5.0906,5.0906,5.0906,5.0906,5.0906,5.0956,5.0971,5.0971,5.0971,5.1061,5.1187,5.12,5.1245,5.1302,5.1386,5.14,5.1396,5.1396,5.1391,5.1405,5.1405,5.1402,5.1402,5.1402,5.1402,5.1402,5.1402,5.1402,5.1402,5.1402,5.1398,5.1398,5.1398,5.1238,5.1082,5.1082,5.0926,5.0535,4.9872,4.9794,4.952,4.8857,4.845,4.8294,4.8512,4.8512,4.8607,4.8782,4.8802,4.8802,4.8802,4.9453,5.0119,5.0806,5.1001,5.1193,5.1402,5.1402,5.1402,2.4461,2.5299,2.608,2.5897,2.5855,2.5839,2.5853,2.5252,2.4707,0.0,0.0,0.0,0.0,0.0,0.0,0.0,3.3004,0.0,0.0,0.0,4.6563,4.725,4.9009,5.0298,0.0,5.0752,5.0906,5.0906,5.0906,5.0906,5.0906,5.0906,5.0906,5.0906,5.0906,5.0906,5.0906,5.0906,5.0906,5.0906,5.0906,5.0906,5.0906,5.0906,5.0906,5.0906,5.0906,5.0906,5.0906,5.0906,5.0906,5.0906,5.0906,5.0906,5.0906,5.0906,5.0906,5.0906,5.0971,5.102,5.1048,5.1056,5.1122,5.1206,5.1234,5.1283,5.1346,5.1381,5.1396,5.1394,5.1394,5.1408,5.1402,5.1402,5.1398,5.1394,5.1394,5.1394,5.1394,5.1394,5.1394,5.1394,5.1394,5.1394,5.1394,5.1394,5.1394,5.1394,5.1394,5.1394,5.1219,5.075,5.0692,5.0516,5.0028,4.9989,4.9813,4.9423,4.9403,4.9579,4.9989,4.9989,4.9989,4.9989,5.0461,5.0933,5.1402,5.1402,5.1402,5.1394,5.1394,5.1394,2.4845,2.615,2.7325,2.6925,2.7017,2.7167,2.7035,0.0,0.0,0.0,0.0,0.0,0.0,2.7411,0.0,0.0,0.0,0.0,4.1788,4.5132,4.7311,4.7834,4.9296,0.0,5.0805,5.089,5.0906,5.0906,5.0906,5.0906,5.0906,5.0906,5.0906,5.0906,5.0906,5.0906,5.0906,5.0906,5.0906,5.0906,5.0906,5.0906,5.0906,5.0906,5.0906,5.0906,0.0,0.0,5.0906,5.0906,5.0906,5.0906,5.0906,5.0906,5.0906,5.0906,5.0906,5.0921,5.0986,5.1067,5.1121,5.1122,5.116,5.1234,5.1283,5.1343,5.1398,5.1391,5.1396,5.1396,5.1396,5.1391,5.1408,5.1408,5.1402,5.1394,5.1394,5.1394,5.1394,5.1394,5.1394,5.1394,5.1394,5.1394,5.1394,5.1394,5.1394,5.1394,5.1394,5.1394,5.1394,5.1394,5.1394,5.1394,5.1394,5.1394,5.1082,5.036,5.0301,5.0633,5.1375,5.1394,5.1394,5.1394,5.1394,5.1394,5.1394,5.1394,5.1394,5.1394,5.1531,5.1609,2.6384,2.8013,2.8613,2.5796,2.6153,2.7017,2.6338,2.6,0.0,0.0,0.0,0.0,0.0,3.0809,3.2142,0.0,0.0,4.112,0.0,0.0,4.7903,4.87,0.0,5.0567,5.0644,5.0789,5.0906,5.0906,5.0906,5.0906,5.0906,5.0906,5.0906,5.0906,5.0906,5.0906,5.0906,5.0906,5.0906,5.0906,5.0906,5.0906,5.0906,5.0906,5.0906,5.0906,0.0,5.0906,5.0906,5.0956,5.0971,5.0971,5.0971,5.0971,5.0971,5.0971,5.0971,5.0986,5.1056,5.1127,5.1183,5.1181,5.1239,5.1281,5.1304,5.1343,5.1394,5.1398,5.1398,5.1398,5.1398,5.1398,5.1398,5.1398,5.1394,5.1394,5.1394,5.1394,5.1394,5.1394,5.1394,5.1394,5.1394,5.1394,5.1394,5.1394,5.1394,5.1394,5.1394,5.1394,5.1394,5.1394,5.1394,5.1394,5.1394,5.1394,5.1336,5.1219,5.1199,5.1258,5.1394,5.1394,5.1394,5.1394,5.1394,5.1394,5.1394,5.1394,5.1394,5.1414,5.2156,5.2507,2.5086,2.6735,2.7974,2.6435,2.7955,2.987,2.9983,2.9288,0.0,0.0,0.0,0.0,0.0,0.0,3.5302,3.8848,0.0,4.3221,4.5449,4.6896,4.8075,0.0,0.0,5.0625,5.0754,5.0858,5.0906,5.0906,5.0906,5.0906,5.0906,5.0906,5.0906,5.0906,5.0906,5.0906,5.0906,5.0906,5.0906,5.0906,5.0906,5.0906,5.0906,5.0906,5.0906,5.0906,0.0,5.0956,5.0956,5.1039,5.1053,5.1053,5.1053,5.1053,5.1053,5.1053,5.1048,5.1056,5.1082,5.1139,5.1206,5.1238,5.1274,5.1307,5.1347,5.1372,5.1394,5.1394,5.1394,5.1394,5.1394,5.1394,5.1394,5.1394,5.1394,5.1394,5.1394,5.1394,5.1394,5.1394,5.1394,5.1394,5.1394,5.1394,5.1394,5.1394,5.1394,5.1394,5.1394,5.1394,5.1394,5.1394,5.1394,5.1394,5.1394,5.1394,5.1394,5.1394,5.1394,5.1394,5.1394,5.1394,5.1394,5.1394,5.1394,5.1394,5.1394,5.1863,5.2097,5.2117,5.2995,5.3405,2.44,2.564,2.7052,2.7636,2.9382,3.1372,3.3043,3.2105,3.1354,0.0,0.0,0.0,0.0,3.5832,0.0,4.2314,4.357,4.4712,4.6602,4.7449,4.8317,4.9527,5.0258,5.0736,5.089,5.0906,5.0906,5.0906,5.0906,5.0906,5.0906,5.0906,5.0906,5.0906,5.0906,5.0921,5.0921,5.0941,5.0941,5.0906,5.0906,5.0906,5.0906,5.0906,5.0921,5.0941,5.0971,5.1005,5.102,5.1081,5.1095,5.1095,5.1095,5.1095,5.1095,5.1095,5.1121,5.1127,5.1127,5.1159,5.1197,5.1283,5.1297,5.131,5.1374,5.1394,5.1394,5.1394,5.1394,5.1394,5.1394,5.1394,5.1394,5.1394,5.1394,5.1394,5.1394,5.1394,5.1394,5.1394,5.1394,5.1394,5.1394,5.1394,5.1394,5.1394,5.1394,5.1394,5.1394,5.159,5.1629,5.1414,5.159,5.1629,5.1414,5.1394,5.1394,5.1394,5.1394,5.1394,5.1394,5.1394,5.1394,5.1394,5.1394,5.1492,5.1707,5.237,5.28,5.3034,5.3893,5.4303,2.6419,2.6569,2.6632,2.895,2.8519,2.8575,3.2518,3.2105,0.0,3.5916,0.0,0.0,0.0,3.8984,4.1579,4.4213,4.505,4.5973,4.7722,0.0,4.8961,5.0584,5.0851,5.089,5.0906,5.0906,5.0906,5.0906,5.0906,5.0906,5.0906,5.0906,5.0906,5.0906,5.0956,5.0986,5.0986,5.1053,5.102,5.0906,5.0956,5.0956,5.0906,5.0971,5.0986,5.0986,5.1005,5.1039,5.1101,5.1102,5.1095,5.1095,5.1095,5.1095,5.1095,5.1095,5.1127,5.1202,5.1202,5.1202,5.1197,5.1283,5.1297,5.131,5.1374,5.1394,5.1394,5.1394,5.1394,5.1394,5.1394,5.1394,5.1394,5.1394,5.1394,5.1394,5.1394,5.1394,5.1394,5.1394,5.1394,5.1394,5.1394,5.1394,5.1394,5.1394,5.1394,5.1394,5.1394,5.2117,5.2292,5.1492,5.2117,5.2273,5.1472,5.1394,5.1394,5.1394,5.1394,5.1394,5.1394,5.1394,5.1394,5.1394,5.1394,5.1804,5.2605,5.2663,5.3112,5.3932,5.4791,5.5201,2.4752,2.5952,2.7399,2.93,3.0074,0.0,0.0,3.5268,3.6408,3.9623,4.0209,0.0,0.0,0.0,4.3183,4.4782,4.5285,4.6157,4.8012,4.8361,4.903,5.0712,5.0906,5.0906,5.0906,5.0906,5.0906,5.0906,5.0906,5.0906,5.0906,5.0941,5.0956,5.0956,5.1039,5.1053,5.1053,5.1087,5.1067,5.102,5.1053,5.1053,5.1039,5.1053,5.1053,5.1053,5.1062,5.1089,5.1102,5.1127,5.1159,5.1159,5.1159,5.1159,5.1159,5.1159,5.1171,5.1202,5.1202,5.1189,5.1209,5.1274,5.133,5.1366,5.1389,5.1785,5.2214,5.2214,5.2605,5.2761,5.1687,5.1394,5.1394,5.1394,5.1804,5.2058,5.1511,5.1824,5.2058,5.1511,5.1394,5.1394,5.1394,5.1394,5.1394,5.1394,5.1394,5.1609,5.2136,5.2507,5.278,5.2995,5.3307,5.3366,5.3034,5.3014,5.3014,5.3014,5.1999,5.1394,5.1394,5.1394,5.1648,5.2195,5.2214,5.2644,5.3502,5.4049,5.4498,5.483,5.5708,5.6118,2.4079,2.5565,2.7566,2.9401,0.0,0.0,3.6271,3.7634,3.9169,4.2347,4.2453,4.2363,4.3533,0.0,0.0,0.0,4.5454,4.6163,4.7758,4.8237,4.8933,5.0345,5.0751,5.0906,5.0906,5.0906,5.0906,5.0906,5.0906,5.0921,5.0921,5.1005,5.102,5.102,5.1081,5.1095,5.1095,5.1127,5.1127,5.1127,5.1127,5.1114,5.1101,5.1095,5.1095,5.1095,5.1102,5.1108,5.1127,5.1171,5.1202,5.1202,5.1202,5.1202,5.1202,5.1202,5.1202,5.1202,5.1202,5.1376,5.1588,5.1381,5.1513,5.1777,5.1795,5.2234,5.2761,5.3034,5.3541,5.3737,5.2526,5.2214,5.2214,5.2214,5.2683,5.2956,5.2351,5.2683,5.2936,5.2331,5.2214,5.2214,5.2214,5.2214,5.2214,5.2214,5.2214,5.2448,5.3034,5.3346,5.3756,5.4342,5.4166,5.401,5.401,5.401,5.401,5.401,5.2878,5.2214,5.2214,5.2214,5.2507,5.3093,5.3112,5.3541,5.44,5.5005,5.5435,5.5728,5.6313,5.6606,2.5101,2.571,2.6934,0.0,0.0,0.0,3.8137,3.8615,3.9551,4.3818,4.3288,4.2585,4.4467,4.3681,0.0,4.5203,4.5658,4.609,4.698,4.7831,4.8701,4.961,5.0403,5.0906,5.0906,5.0906,5.0906,5.0906,5.0956,5.1005,5.1005,5.1053,5.1101,5.1101,5.1102,5.1095,5.1095,5.1171,5.1202,5.1202,5.1202,5.1166,5.1101,5.1102,5.1095,5.1095,5.1095,5.1139,5.1202,5.1202,5.1202,5.1202,5.1202,5.1202,5.1202,5.1202,5.1202,5.1202,5.1202,5.1775,5.2356,5.1577,5.1904,5.2617,5.2694,5.2722,5.2897,5.3776,5.4029,5.4029,5.4029,5.4029,5.4029,5.401,5.401,5.401,5.401,5.401,5.401,5.401,5.401,5.401,5.401,5.401,5.401,5.401,5.401,5.401,5.401,5.4771,5.5318,5.5318,5.4537,5.4029,5.4029,5.4029,5.4029,5.4029,5.4029,5.4029,5.401,5.401,5.401,5.401,5.401,5.4439,5.5318,5.5318,5.5767,5.6606,5.6606,5.6606,2.5114,2.7026,0.0,3.0598,0.0,0.0,0.0,4.0967,0.0,0.0,4.4558,4.4372,4.5027,4.494,0.0,4.5483,4.5708,4.6123,4.7041,4.7342,4.8039,4.9524,4.9915,5.0287,5.0848,5.0956,5.0971,5.0971,5.102,5.1067,5.1067,5.1095,5.1102,5.1102,5.1146,5.1171,5.1171,5.119,5.1202,5.1202,5.1202,5.119,5.1166,5.1159,5.1171,5.1171,5.1171,5.1171,5.1202,5.1202,5.1202,5.1202,5.1202,5.1202,5.1202,5.1202,5.1202,5.1202,5.1202,5.1403,5.1728,5.2097,5.2421,5.2794,5.3428,5.4049,5.4576,5.483,5.5357,5.5825,5.5825,5.5825,5.5513,5.4283,5.4478,5.4752,5.4127,5.4478,5.4732,5.4127,5.401,5.401,5.401,5.401,5.401,5.401,5.401,5.4225,5.483,5.5689,5.6216,5.6216,5.5981,5.5825,5.5825,5.5825,5.5825,5.5825,5.5825,5.5279,5.4049,5.401,5.4283,5.4908,5.4908,5.5337,5.6216,5.6216,5.6352,5.6606,5.6606,5.6606,2.6848,2.9126,0.0,3.3824,3.7297,4.0692,4.2564,0.0,0.0,0.0,4.4874,4.4824,4.5341,4.5238,0.0,4.5619,4.5771,4.6054,4.659,4.6958,4.7525,4.8585,4.9292,4.9877,5.038,5.0777,5.102,5.1053,5.1081,5.1108,5.1108,5.1134,5.1139,5.1139,5.1171,5.1202,5.1202,5.1202,5.1202,5.1202,5.1202,5.1202,5.1202,5.1202,5.1202,5.1202,5.1202,5.1202,5.1202,5.1202,5.1202,5.1202,5.1202,5.1202,5.1202,5.1202,5.1202,5.1202,5.12,5.1705,5.2355,5.2546,5.3105,5.3834,5.4361,5.4888,5.5376,5.5728,5.6196,5.6606,5.6606,5.6606,5.6333,5.5279,5.5435,5.5669,5.5142,5.5454,5.5669,5.5123,5.5025,5.5025,5.5025,5.5025,5.5025,5.5025,5.5025,5.522,5.5747,5.6274,5.6606,5.6606,5.6606,5.6606,5.6606,5.6606,5.6606,5.6606,5.6606,5.6138,5.5083,5.5025,5.5279,5.5806,5.5825,5.6079,5.6606,5.6606,5.6606,5.6606,5.6606,5.6606,2.9325,3.1312,0.0,3.7769,3.9718,0.0,4.4591,4.5341,4.5303,4.5182,0.0,4.4474,4.5475,4.499,4.4766,4.5664,4.586,4.5906,4.5906,4.659,4.7114,4.7204,4.8546,4.9533,4.9702,5.0405,5.0942,5.1081,5.1089,5.1095,5.1095,5.1171,5.1202,5.1202,5.1202,5.1202,5.1202,5.1202,5.1202,5.1202,5.1202,5.1202,5.1202,5.1202,5.1202,5.1202,5.1202,5.1202,5.1202,5.1202,5.1202,5.1202,5.1202,5.1202,5.1202,5.1202,5.1202,5.1214,5.1287,5.2408,5.3689,5.3046,5.3958,5.5318,5.5396,5.5415,5.5571,5.6372,5.6606,5.6606,5.6606,5.6606,5.6606,5.6606,5.6606,5.6606,5.6606,5.6606,5.6606,5.6606,5.6606,5.6606,5.6606,5.6606,5.6606,5.6606,5.6606,5.6606,5.6606,5.6606,5.6606,5.6606,5.6606,5.6606,5.6606,5.6606,5.6606,5.6606,5.6606,5.6606,5.6606,5.6606,5.6606,5.6606,5.6606,5.6606,5.6606,5.6606,5.6606,5.6606,5.6606,5.6606,2.7892,3.0433,0.0,0.0,4.0157,4.3597,4.5113,4.553,4.5616,4.558,4.5522,4.5582,4.5859,4.5762,4.5711,4.5929,4.5917,4.5925,4.5968,4.6092,4.646,4.719,4.7553,4.8277,4.9653,4.9848,5.0231,5.1043,5.1042,5.1075,5.1171,5.1202,5.1202,5.1202,5.1202,5.1202,5.1202,5.1202,5.1202,5.1202,5.1202,5.1202,5.1202,5.1202,5.1202,5.1202,5.1202,5.1202,5.1202,5.1202,5.1202,5.1202,5.1202,5.1202,5.1202,5.1202,5.1202,5.1303,5.1977,5.2506,5.3064,5.4257,5.4933,5.5435,5.6118,5.6313,5.6352,5.6547,5.6606,5.6606,5.6606,5.6606,5.6606,5.6606,5.6606,5.6606,5.6606,5.6606,5.6606,5.6606,5.6606,5.6606,5.6606,5.6606,5.6606,5.6606,5.6606,5.6606,5.6606,5.6606,5.6606,5.6606,5.6606,5.6606,5.6606,5.6606,5.6606,5.6606,5.6606,5.6606,5.6606,5.6606,5.6606,5.6606,5.6606,5.6606,5.6606,5.6606,5.6606,5.6606,5.6606,5.6606,2.831,0.0,0.0,3.8542,0.0,4.4938,4.5399,4.5648,4.5791,4.5791,4.5887,4.596,4.5994,4.6003,4.5991,4.596,4.5949,4.596,4.5991,4.5972,4.6127,4.6612,4.6959,4.7655,4.8952,4.9408,4.9954,5.0855,5.0986,5.1034,5.1108,5.1089,5.1134,5.1202,5.1202,5.1202,5.1202,5.1202,5.1202,5.1202,5.1202,5.1202,5.1202,5.1202,5.1202,5.1202,5.1202,5.1202,5.1202,5.1202,5.1202,5.1202,5.1202,5.1202,5.1202,5.1202,5.1202,5.1322,5.2219,5.2845,5.3458,5.4803,5.5547,5.6001,5.6469,5.6606,5.6606,5.6606,5.6606,5.6606,5.6606,5.6606,5.6606,5.6606,5.6606,5.6606,5.6606,5.6606,5.6606,5.6606,5.6606,5.6606,5.6606,5.6606,5.6606,5.6606,5.6606,5.6606,5.6606,5.6606,5.6606,5.6606,5.6606,5.6606,5.6606,5.6606,5.6606,5.6606,5.6606,5.6606,5.6606,5.6606,5.6606,5.6606,5.6606,5.6606,5.6606,5.6606,5.6606,5.6606,5.6606,5.6606,2.8519,0.0,3.5705,4.1322,4.4116,0.0,4.5563,4.5746,4.5906,4.5899,4.5972,4.5997,4.6003,4.6003,4.5972,4.5929,4.5972,4.6003,4.6003,4.6005,4.5997,4.6003,4.6532,4.7235,4.8048,4.874,4.9521,5.046,5.0642,5.0786,5.0986,5.1005,5.1062,5.1202,5.1202,5.1202,5.1202,5.1202,5.1202,5.1202,5.1202,5.1202,5.1202,5.1202,5.1202,5.1202,5.1202,5.1202,5.1202,5.1202,5.1202,5.1202,5.1202,5.1202,5.1202,5.1202,5.1202,5.1353,5.2459,5.3292,5.4086,5.5165,5.6001,5.6606,5.6606,5.6606,5.6606,5.6606,5.6606,5.6606,5.6606,5.6606,5.6606,5.6606,5.6606,5.6606,5.6606,5.6606,5.6606,5.6606,5.6606,5.6606,5.6606,5.6606,5.6606,5.6606,5.6606,5.6606,5.6606,5.6606,5.6606,5.6606,5.6606,5.6606,5.6606,5.6606,5.6606,5.6606,5.6606,5.6606,5.6606,5.6606,5.6606,5.6606,5.6606,5.6606,5.6606,5.6606,5.6591,5.6579,5.6579,5.6582,2.563,0.0,3.6388,0.0,4.3312,4.4789,0.0,0.0,4.5919,0.0,4.5997,4.5997,4.5997,4.5997,4.5997,4.5986,4.5997,4.5997,4.5997,4.5997,4.5997,4.5997,4.6083,4.6499,4.7353,4.7323,4.7967,4.9698,4.9656,4.9967,5.0952,5.1005,5.1062,5.1202,5.1202,5.1202,5.1202,5.1202,5.1202,5.1202,5.1202,5.1202,5.1202,5.1202,5.1202,5.1202,5.1202,5.1202,5.1202,5.1202,5.1202,5.1202,5.1202,5.1202,5.1202,5.1202,5.1202,5.1431,5.3142,5.3803,5.4183,5.5885,5.6508,5.6606,5.6606,5.6606,5.6606,5.6606,5.6606,5.6606,5.6606,5.6606,5.6606,5.6606,5.6606,5.6606,5.6606,5.6606,5.6606,5.6606,5.6606,5.6606,5.6606,5.6606,5.6606,5.6606,5.6606,5.6606,5.6606,5.6606,5.6606,5.6606,5.6606,5.6606,5.6606,5.6606,5.6606,5.6606,5.6606,5.6606,5.6606,5.6606,5.6606,5.6606,5.6606,5.6606,5.6606,5.6606,5.6566,5.6503,5.6503,5.6483,2.7254,3.1536,3.5949,0.0,4.2563,4.4124,4.4983,0.0,4.5953,4.5997,4.5997,4.5997,4.5997,4.5997,4.5997,4.5997,4.5997,4.5997,4.5997,4.5997,4.5997,4.5997,4.5972,4.6254,4.7002,4.6978,4.7366,4.8548,4.8606,4.8835,4.9389,4.9888,5.0255,5.0464,5.095,5.1202,5.1202,5.1202,5.1202,5.1202,5.1202,5.1202,5.1202,5.1202,5.1202,5.1202,5.1202,5.1202,5.1202,5.1202,5.1202,5.1202,5.1202,5.1202,5.1202,5.1202,5.15,5.2124,5.3445,5.4223,5.4842,5.6172,5.6606,5.6606,5.6606,5.6606,5.6606,5.6606,5.6606,5.6606,5.6606,5.6606,5.6606,5.6606,5.6606,5.6606,5.6606,5.6606,5.6606,5.6606,5.6606,5.6606,5.6606,5.6606,5.6606,5.6606,5.6606,5.6606,5.6606,5.6606,5.6606,5.6606,5.6606,5.6606,5.6606,5.6606,5.6606,5.6606,5.6606,5.6606,5.6606,5.6606,5.6606,5.6606,5.6606,5.6579,5.6536,5.6536,5.6503,5.6434,5.6434,5.6426,0.0,0.0,3.3685,3.8296,4.0839,4.2519,0.0,0.0,4.5705,0.0,4.5861,4.5997,4.5997,4.5997,4.5997,4.5997,4.5997,4.5997,4.5997,4.5997,4.5997,4.5997,4.596,4.6125,4.6596,4.6622,4.687,4.7507,4.7626,4.7835,4.8237,4.8874,4.933,4.9571,5.0192,5.0658,5.0872,5.1086,5.1202,5.1202,5.1202,5.1202,5.1202,5.1202,5.1202,5.1202,5.1202,5.1214,5.1206,5.1202,5.1214,5.1206,5.1202,5.1202,5.1222,5.1435,5.192,5.2668,5.3806,5.464,5.535,5.6286,5.6606,5.6606,5.6606,5.6606,5.6606,5.6606,5.6606,5.6606,5.6606,5.6606,5.6606,5.6606,5.6606,5.6606,5.6606,5.6606,5.6606,5.6606,5.6606,5.6606,5.6606,5.6606,5.6606,5.6606,5.6606,5.6606,5.6606,5.6606,5.6606,5.6606,5.6606,5.6606,5.6606,5.6606,5.6606,5.6606,5.6606,5.6606,5.6606,5.6606,5.6591,5.6563,5.6598,5.6571,5.6504,5.6483,5.6432,5.6372,5.6372,5.6366,0.0,2.7194,0.0,3.4587,3.7372,0.0,0.0,0.0,4.4851,4.4851,4.5472,4.5997,4.5997,4.5997,4.5997,4.5997,4.5997,4.5997,4.5997,4.5997,4.5997,4.5997,4.5997,4.5983,4.5951,4.5834,4.6086,4.6882,4.6855,4.7255,4.8324,4.8435,4.8509,4.8658,4.8716,4.9124,4.9959,5.0794,5.1202,5.1202,5.1202,5.1202,5.1202,5.1202,5.1202,5.1202,5.1202,5.1197,5.1201,5.1206,5.1197,5.1201,5.1206,5.1202,5.1299,5.2057,5.2407,5.2746,5.445,5.5109,5.535,5.6286,5.6606,5.6606,5.6606,5.6606,5.6606,5.6606,5.6606,5.6606,5.6606,5.6606,5.6606,5.6606,5.6606,5.6606,5.6606,5.6606,5.6606,5.6606,5.6606,5.6606,5.6606,5.6606,5.6606,5.6606,5.6606,5.6606,5.6606,5.6606,5.6606,5.6606,5.6606,5.6606,5.6606,5.6606,5.6606,5.6606,5.6606,5.6606,5.6606,5.6606,5.6566,5.6504,5.6577,5.6577,5.6504,5.6432,5.6366,5.6316,5.6316,5.6309,0.0,0.0,0.0,3.17,3.5061,3.7955,3.9431,4.1937,4.4112,4.4676,4.5025,4.5394,4.5899,4.5997,4.5997,4.5997,4.5997,4.5997,4.5997,4.5997,4.5997,4.5997,4.5953,4.5899,4.5776,4.5731,4.5783,4.5988,4.6025,4.6275,4.6784,4.7287,4.763,4.7764,4.8308,4.9027,4.9881,5.0755,5.1202,5.1202,5.1197,5.12,5.12,5.124,5.1249,5.1249,5.1249,5.124,5.1191,5.124,5.1258,5.1256,5.1258,5.1249,5.1366,5.2163,5.2867,5.3565,5.4697,5.5545,5.6152,5.6445,5.6558,5.6582,5.6558,5.6533,5.6538,5.6582,5.6563,5.6558,5.6582,5.6606,5.6606,5.6606,5.6606,5.6606,5.6606,5.6606,5.6606,5.6606,5.6606,5.6606,5.6606,5.6606,5.6606,5.6606,5.6606,5.6606,5.6606,5.6606,5.6606,5.6606,5.6606,5.6606,5.6606,5.6606,5.6606,5.6606,5.6606,5.6582,5.6533,5.6575,5.6568,5.6495,5.6523,5.6484,5.6372,5.6421,5.6413,5.63,5.6338,5.665,2.3265,0.0,0.0,0.0,0.0,3.4769,3.7372,0.0,4.2112,4.3258,4.419,4.4967,4.5491,4.5822,4.5997,4.5997,4.5997,4.5997,4.5997,4.5997,4.5997,4.5997,4.5972,4.5874,4.5715,4.5746,4.5715,4.5584,4.57,0.0,4.5925,4.6429,4.6763,4.6871,4.7706,4.858,4.9454,5.0328,5.0903,5.1197,5.119,5.122,5.1239,5.1284,5.13,5.13,5.1316,5.1308,5.1276,5.1292,5.1308,5.1335,5.1308,5.13,5.1437,5.252,5.3342,5.4058,5.515,5.5994,5.6553,5.6503,5.6528,5.6553,5.6503,5.6497,5.6503,5.6553,5.6528,5.6503,5.6553,5.6572,5.6572,5.6572,5.6572,5.6572,5.6572,5.6582,5.6606,5.6606,5.6606,5.6606,5.6606,5.6606,5.6606,5.6606,5.6606,5.6606,5.6606,5.6606,5.6606,5.6606,5.6606,5.6582,5.6563,5.6577,5.6577,5.6577,5.6567,5.6552,5.6528,5.6571,5.6579,5.6503,5.6515,5.6475,5.6327,5.642,5.6425,5.6339,5.6689,5.7466,0.0,0.0,0.0,0.0,0.0,0.0,3.5546,0.0,3.8732,4.0441,4.283,4.4637,4.4715,4.5375,4.5919,4.5958,4.5977,4.5997,4.5997,4.5997,4.5997,4.5997,4.5997,4.5929,4.5712,4.5819,4.5852,4.5715,4.5819,4.5925,4.5997,4.5997,4.5997,4.5997,4.6851,4.7706,4.8541,4.9454,5.0323,5.1152,5.1191,5.1239,5.13,5.13,5.13,5.1308,5.1362,5.1394,5.1394,5.1342,5.1342,5.1394,5.1335,5.132,5.1542,5.3195,5.3868,5.4179,5.5836,5.6454,5.6504,5.6504,5.6504,5.6504,5.6504,5.6504,5.6504,5.6504,5.6504,5.6504,5.6504,5.6504,5.6504,5.6504,5.6504,5.6504,5.6504,5.6548,5.6606,5.6606,5.6606,5.6606,5.6606,5.6606,5.6606,5.6606,5.6606,5.6606,5.6606,5.6606,5.6606,5.6606,5.6606,5.6563,5.6509,5.6509,5.6509,5.6503,5.6532,5.6566,5.6632,5.6659,5.6637,5.6586,5.6644,5.6606,5.6472,5.6433,5.6414,5.6472,5.7368,5.8699,2.2804,0.0,0.0,0.0,0.0,0.0,0.0,0.0,3.5371,3.7683,3.9237,4.0733,4.2578,4.3627,4.4404,4.5025,4.5608,4.5997,4.5997,4.5997,4.5997,4.5997,4.596,4.5919,4.5866,4.588,4.588,0.0,4.5917,4.5975,4.5997,4.5997,4.5997,4.5997,4.6851,4.7414,4.7667,4.9148,5.0014,5.0257,5.1008,5.1349,5.1362,5.1366,5.1377,5.1377,5.1381,5.1406,5.1406,5.1377,5.1377,5.1406,5.1377,5.1767,5.245,5.3493,5.4278,5.4999,5.6094,5.649,5.6498,5.6503,5.6491,5.6498,5.6503,5.6503,5.6503,5.6498,5.6491,5.6503,5.6498,5.6504,5.6504,5.6504,5.6504,5.6504,5.6504,5.6511,5.6542,5.6528,5.6533,5.6533,5.6582,5.6606,5.6577,5.6542,5.6523,5.6528,5.6536,5.6528,5.6528,5.6536,5.6528,5.6519,5.6493,5.6497,5.6519,5.6574,5.7125,5.7459,5.7478,5.8066,5.8391,5.837,5.8398,5.8382,5.8343,5.7133,5.6848,5.7446,5.8955,5.9909,0.0,0.0,0.0,0.0,0.0,0.0,2.9525,3.1125,0.0,0.0,3.6751,3.8421,4.0266,4.1607,4.2694,4.3569,4.4715,4.5608,4.5938,4.5997,4.5997,4.5997,4.5972,4.5912,4.5819,4.5887,4.5912,4.5819,4.5929,4.5997,4.5997,4.5997,4.5997,4.5997,4.6522,4.696,4.7349,4.871,4.9601,4.9987,5.0947,5.14,5.1391,5.141,5.1394,5.1394,5.1394,5.1394,5.1394,5.1394,5.1394,5.1394,5.1394,5.1921,5.28,5.362,5.4482,5.5312,5.6207,5.6501,5.6511,5.6496,5.6488,5.6496,5.6508,5.65,5.6508,5.6496,5.6496,5.6508,5.6496,5.6503,5.6503,5.6503,5.6503,5.6503,5.6503,5.6503,5.6498,5.6497,5.6497,5.6517,5.6542,5.6567,5.6542,5.6504,5.6497,5.6497,5.6498,5.6504,5.6511,5.6504,5.6509,5.6508,5.6497,5.6822,5.7051,5.7099,5.7886,5.8339,5.8339,5.8839,5.9104,5.9107,5.9093,5.9104,5.9104,5.8128,5.8061,5.8909,5.9939,6.0588,2.5133,2.499,0.0,0.0,2.666,0.0,2.9374,3.0367,3.0969,0.0,3.4595,3.6537,3.7508,3.9062,4.0461,4.1354,4.3025,4.4617,4.5705,4.5938,4.5997,4.5997,4.5997,4.5929,4.5746,4.5893,4.591,4.5746,4.5886,4.5997,4.5997,4.6007,4.6007,4.6007,4.6075,4.6472,4.7261,4.8129,4.9023,4.997,5.0834,5.1313,5.1394,5.1394,5.1394,5.1394,5.1394,5.1394,5.1394,5.1394,5.1394,5.1394,5.1394,5.198,5.294,5.3705,5.4568,5.5468,5.6227,5.6499,5.6509,5.6503,5.65,5.65,5.65,5.6492,5.6503,5.6503,5.6503,5.6503,5.6503,5.6503,5.6503,5.6503,5.6503,5.6503,5.6503,5.65,5.6496,5.6491,5.6498,5.6498,5.6503,5.6491,5.6498,5.6498,5.6511,5.6491,5.6503,5.651,5.6498,5.6504,5.6508,5.6543,5.6634,5.7356,5.7831,5.7949,5.8768,5.9231,5.9246,5.9347,5.9397,5.9397,5.9397,5.9397,5.9397,5.93,5.9631,6.0393,6.049,6.0959,2.8894,2.902,2.9332,2.8431,0.0,0.0,2.7191,2.8212,2.9627,0.0,3.0069,3.139,3.2963,3.4614,3.6032,3.6906,3.9062,4.1646,4.4617,4.5589,4.5997,4.5997,4.5997,4.5964,4.586,4.596,4.5953,4.588,4.5941,4.5997,4.5997,4.6037,4.6084,4.6084,4.6146,4.6266,4.6442,4.7294,4.817,4.9059,4.9933,5.0727,5.1394,5.1394,5.1394,5.1394,5.1394,5.1394,5.1394,5.1394,5.1394,5.1394,5.1394,5.2351,5.3776,5.394,5.495,5.6268,5.6445,5.65,5.6507,5.6504,5.6504,5.6497,5.6497,5.6503,5.6503,5.6503,5.6503,5.6503,5.6503,5.6503,5.6503,5.6503,5.6503,5.6503,5.6503,5.6511,5.6492,5.65,5.6508,5.6503,5.6503,5.6503,5.6496,5.65,5.6496,5.6503,5.65,5.6511,5.6494,5.6503,5.6504,5.6775,5.748,5.7695,5.8102,5.8808,5.9663,6.0148,6.0148,6.0822,6.1193,6.1193,6.1193,6.1193,6.1193,6.049,6.0237,6.0412,6.1115,6.1544,3.0607,3.0466,3.0801,3.0781,0.0,0.0,0.0,2.8535,2.9074,2.9887,2.9363,2.9544,3.2166,3.2982,3.3546,3.442,3.7061,3.9451,4.0771,4.3141,4.4753,4.4753,4.4753,4.4877,4.5228,4.534,4.5569,4.5956,4.6037,4.6047,4.6093,4.6138,4.6146,4.6146,4.6183,4.6203,4.6203,4.7089,4.7962,4.8801,4.9673,5.0555,5.1394,5.1394,5.1394,5.1394,5.1394,5.1394,5.1394,5.1394,5.1394,5.1394,5.1394,5.2468,5.401,5.401,5.5072,5.6549,5.652,5.6504,5.6503,5.6504,5.6504,5.6503,5.6498,5.6488,5.6503,5.6503,5.6503,5.6503,5.6503,5.6503,5.6503,5.6503,5.6503,5.6503,5.6503,5.6503,5.65,5.6503,5.6498,5.6498,5.6488,5.65,5.65,5.6511,5.65,5.6503,5.6503,5.6493,5.6501,5.6497,5.6499,5.6855,5.7732,5.8194,5.8827,5.969,6.0568,6.1056,6.1056,6.1466,6.1701,6.1701,6.1701,6.1701,6.1701,6.1252,6.1056,6.1056,6.1505,6.1701,0.0,0.0,0.0,0.0,0.0,3.1038,0.0,0.0,0.0,3.0948,2.9582,0.0,0.0,0.0,0.0,0.0,0.0,0.0,0.0,3.9285,0.0,4.2461,4.2811,4.3216,4.3782,4.3815,4.4356,4.5743,4.5393,4.5437,4.6157,4.6203,4.6209,4.6209,4.6201,4.6216,4.6216,4.6975,4.7842,4.8818,4.952,5.0399,5.1394,5.1394,5.1394,5.1394,5.1394,5.1394,5.1394,5.1394,5.1394,5.1394,5.1394,5.2468,5.401,5.401,5.5103,5.6591,5.6517,5.65,5.6521,5.6507,5.6504,5.6489,5.6508,5.6503,5.6503,5.6503,5.6503,5.6503,5.6503,5.6503,5.6503,5.6503,5.6503,5.6503,5.6503,5.65,5.6496,5.6503,5.6509,5.6497,5.6496,5.6496,5.6496,5.6492,5.6508,5.6503,5.652,5.6522,5.6502,5.6499,5.664,5.7104,5.7983,5.8847,5.9729,6.0607,6.131,6.1701,6.1701,6.1701,6.1701,6.1701,6.1701,6.1701,6.1701,6.1701,6.1701,6.1701,6.1701,6.1701,0.0,0.0,0.0,0.0,3.494,0.0,0.0,0.0,3.1083,2.9054,0.0,0.0,0.0,0.0,0.0,0.0,0.0,0.0,3.1547,3.3842,3.646,3.8721,4.0286,4.1179,4.1137,4.0517,4.1449,4.4703,4.2872,4.2926,4.602,4.6209,4.6201,4.6201,4.6264,4.6296,4.6296,4.6397,4.7237,4.8798,4.8896,4.9813,5.1394,5.1394,5.1394,5.1394,5.1394,5.1394,5.1394,5.1394,5.1394,5.1394,5.1394,5.2468,5.401,5.401,5.5103,5.6591,5.6517,5.6532,5.6579,5.6521,5.6502,5.6504,5.6503,5.6503,5.6503,5.6503,5.6503,5.6503,5.6503,5.6503,5.6503,5.6503,5.6503,5.6503,5.6503,5.651,5.6503,5.6509,5.6499,5.6499,5.6503,5.6489,5.6489,5.6508,5.6489,5.652,5.6585,5.6598,5.6566,5.6503,5.7193,5.8016,5.8875,5.9749,6.0627,6.1505,6.1642,6.1701,6.1701,6.1701,6.1701,6.1701,6.1701,6.1701,6.1701,6.1701,6.1701,6.1701,6.1701,6.1701,0.0,0.0,0.0,0.0,0.0,0.0,3.105,0.0,3.0719,0.0,0.0,0.0,0.0,0.0,0.0,0.0,2.9513,0.0,0.0,0.0,3.333,0.0,0.0,0.0,3.9228,3.9529,4.0645,4.3167,4.1468,4.1824,4.5314,4.5499,4.5742,4.6249,4.6296,4.63,4.63,4.63,4.7139,4.8798,4.8798,4.9716,5.1394,5.1394,5.1394,5.1394,5.1394,5.1394,5.1394,5.1394,5.1394,5.1453,5.196,5.2917,5.401,5.401,5.5103,5.6591,5.6517,5.6532,5.6595,5.6523,5.6504,5.6491,5.65,5.6503,5.6503,5.6503,5.6503,5.6503,5.6503,5.6503,5.6503,5.6503,5.6503,5.6503,5.6503,5.6491,5.6509,5.6509,5.6489,5.6501,5.6494,5.6508,5.6497,5.6504,5.649,5.6758,5.7493,5.7582,5.7684,5.7988,5.8332,5.8909,5.9788,6.0198,6.0764,6.1642,6.1701,6.1701,6.1701,6.1701,6.1701,6.1701,6.1701,6.1701,6.1701,6.1701,6.1701,6.1701,6.1701,6.1701,3.8801,0.0,0.0,0.0,0.0,0.0,0.0,0.0,0.0,0.0,0.0,0.0,0.0,0.0,0.0,0.0,0.0,2.9059,0.0,0.0,0.0,0.0,0.0,0.0,0.0,3.73,3.8369,4.1064,3.9472,4.0238,4.4422,4.4875,4.5402,4.6261,4.63,4.63,4.63,4.63,4.7139,4.8798,4.8798,4.9716,5.1394,5.1394,5.1394,5.1394,5.1394,5.1394,5.1394,5.1394,5.1394,5.1492,5.2351,5.3229,5.4029,5.4264,5.5302,5.6563,5.6521,5.6522,5.656,5.6515,5.6494,5.6508,5.6492,5.6503,5.6503,5.6503,5.6503,5.6503,5.6503,5.6503,5.6503,5.6503,5.6503,5.6503,5.6503,5.6504,5.6499,5.6509,5.6504,5.6495,5.6497,5.6504,5.6607,5.6929,5.6973,5.7415,5.8601,5.8773,5.8851,5.9085,5.9319,5.971,6.0354,6.0627,6.1037,6.1661,6.1701,6.1701,6.1701,6.1701,6.1701,6.1701,6.1701,6.1701,6.1701,6.1701,6.1701,6.1701,6.1701,6.1701,0.0,0.0,0.0,3.5174,0.0,0.0,0.0,0.0,3.4081,0.0,0.0,0.0,0.0,0.0,0.0,0.0,0.0,0.0,0.0,0.0,0.0,0.0,0.0,0.0,0.0,3.2527,3.3186,0.0,3.6298,3.7464,4.3411,4.4543,4.5402,4.6261,4.63,4.63,4.63,4.63,4.7139,4.8798,4.8798,4.9716,5.1394,5.1394,5.1394,5.1394,5.1394,5.1394,5.1394,5.1394,5.1394,5.1492,5.2351,5.3229,5.4108,5.4947,5.5785,5.6503,5.65,5.6501,5.6494,5.6489,5.6509,5.6497,5.6508,5.6503,5.6503,5.6503,5.6503,5.6503,5.6503,5.6503,5.6503,5.6503,5.6503,5.6503,5.6503,5.6494,5.6507,5.6494,5.6493,5.6504,5.6504,5.6503,5.6874,5.7988,5.8192,5.866,5.9807,5.9944,5.9729,5.9163,5.9846,6.0373,6.0393,6.1174,6.1681,6.1701,6.1701,6.1701,6.1701,6.1701,6.1701,6.1701,6.1701,6.1701,6.1701,6.1701,6.1701,6.1701,6.1701,6.1701,0.0,0.0,4.3313,3.8121,0.0,0.0,0.0,0.0,0.0,0.0,0.0,0.0,0.0,0.0,0.0,0.0,0.0,0.0,0.0,0.0,0.0,0.0,0.0,0.0,0.0,0.0,0.0,3.6528,3.5483,0.0,4.2552,4.3665,4.4543,4.5402,4.6007,4.63,4.63,4.63,4.7139,4.8798,4.8798,4.9716,5.1394,5.1394,5.1394,5.1394,5.1394,5.1394,5.1394,5.1394,5.1394,5.1531,5.2995,5.3748,5.4093,5.4933,5.5776,5.6503,5.65,5.6504,5.6503,5.6497,5.6504,5.6496,5.6492,5.6503,5.6503,5.6503,5.6503,5.6503,5.6503,5.6503,5.6503,5.6503,5.6503,5.6503,5.6503,5.6511,5.6499,5.651,5.6489,5.6673,5.7265,5.7362,5.7573,5.817,5.8586,5.9183,6.0139,6.0256,6.0412,6.0783,6.1076,6.1252,6.1252,6.1525,6.1701,6.1701,6.1701,6.1701,6.1701,6.1701,6.1701,6.1701,6.1701,6.1701,6.1701,6.1701,6.1701,6.1701,6.1701,6.1701,4.386,4.4348,0.0,4.0034,3.9253,0.0,3.4003,0.0,3.6033,0.0,0.0,0.0,0.0,0.0,0.0,0.0,0.0,0.0,0.0,2.654,0.0,0.0,0.0,0.0,0.0,0.0,3.1476,3.4335,3.4358,0.0,0.0,4.2728,4.4094,4.4972,4.5851,4.63,4.63,4.63,4.7139,4.8798,4.8798,4.9716,5.1394,5.1394,5.1394,5.1394,5.1394,5.1394,5.1394,5.1394,5.159,5.1999,5.3444,5.4197,5.4562,5.5368,5.6015,5.65,5.6507,5.6503,5.6492,5.6491,5.6496,5.6503,5.6503,5.6503,5.6503,5.6503,5.6503,5.6503,5.6503,5.6503,5.6503,5.6503,5.6503,5.6503,5.6503,5.6511,5.6499,5.6491,5.6758,5.7148,5.7701,5.8301,5.8797,5.9006,5.9347,5.9885,6.0744,6.0861,6.1076,6.1642,6.1701,6.1701,6.1701,6.1701,6.1701,6.1701,6.1701,6.1701,6.1701,6.1701,6.1701,6.1701,6.1701,6.1701,6.1701,6.1701,6.1701,6.1701,6.1701,6.1701]}]]